Date StartTime U_cm/s V_cm/s W_cm/s Ustd_cm/s Vstd_cm/s Wstd_cm/s Uvar_(cm/s)^2 Vvar_(cm/s)^2 Wvar_(cm/s)^2 KE_(m/s)^2 TurbulentKE_(m/s)^2 HorizWindSpeed_cm/s FrictionSpeec_cm/s DragCoef SpeedOfSound_m/s SonicTemperature_C Pressure_mb 
11/15/2014  00:00:00       -2.746      -60.890      -12.429       30.356       46.404       29.034      921.484     2153.359      842.980        0.389        0.196       60.952       16.981        0.078      336.128        7.221      861.545
11/15/2014  00:01:00       43.857      -32.556       29.789       52.681       79.099       51.422     2775.297     6256.642     2644.234        0.777        0.584       54.620       50.129        0.842      336.038        7.072      861.536
11/15/2014  00:02:00       69.878     -136.027      -19.625       64.699       42.029       40.642     4185.923     1766.404     1651.805        1.569        0.380      152.925       25.557        0.028      336.094        7.164      861.537
11/15/2014  00:03:00       23.208     -136.763      -15.107       62.713       41.833       38.468     3932.909     1750.039     1479.782        1.332        0.358      138.719       37.841        0.074      336.111        7.192      861.528
11/15/2014  00:04:00        4.507      -93.938       -7.256       54.415       50.079       32.872     2960.977     2507.872     1080.598        0.772        0.327       94.046       18.498        0.039      336.121        7.210      861.521
11/15/2014  00:05:00      -13.007      -22.667       -7.052       22.919       19.907       16.474      525.292      396.284      271.403        0.096        0.060       26.134        8.112        0.096      336.096        7.166      861.524
11/15/2014  00:06:00        5.703      -39.291        3.609       47.700       39.180       29.233     2275.263     1535.103      854.558        0.313        0.233       39.703       23.426        0.348      336.095        7.165      861.504
11/15/2014  00:07:00      -24.767      -38.857       -7.460       34.929       48.991       23.608     1220.065     2400.159      557.321        0.318        0.209       46.079       17.429        0.143      336.137        7.236      861.475
11/15/2014  00:08:00       -5.319      -31.748        2.843       24.865       20.535       18.152      618.291      421.672      329.508        0.121        0.068       32.190       14.950        0.216      336.096        7.169      861.460
11/15/2014  00:09:00       -5.337      -27.986        7.660       32.254       24.185       26.187     1040.299      584.894      685.762        0.159        0.116       28.491       15.870        0.310      336.066        7.119      861.449
11/15/2014  00:10:00       10.214      -36.488        0.245       23.250       34.506       22.543      540.585     1190.639      508.171        0.184        0.112       37.891       11.184        0.087      336.035        7.065      861.434
11/15/2014  00:11:00      -28.012      -59.686       -1.917       61.816       38.429       37.092     3821.160     1476.822     1375.851        0.551        0.334       65.933       16.130        0.060      336.015        7.034      861.431
11/15/2014  00:12:00      -24.061      -38.579      -10.098       24.697       21.923       14.860      609.958      480.619      220.820        0.174        0.066       45.467        6.604        0.021      336.031        7.061      861.413
11/15/2014  00:13:00      -24.144      -22.302       -0.060       20.728       34.719       20.130      429.650     1205.414      405.216        0.156        0.102       32.868        7.709        0.055      336.008        7.022      861.381
11/15/2014  00:14:00      -24.460      -87.513      -14.930       37.076       45.794       29.196     1374.639     2097.052      852.405        0.640        0.216       90.867       22.131        0.059      336.075        7.133      861.355
11/15/2014  00:15:00        7.288      -82.586       -8.146       48.232       49.232       38.370     2326.316     2423.804     1472.247        0.658        0.311       82.907       27.800        0.112      336.015        7.031      861.330
11/15/2014  00:16:00      -28.484      -52.956       -0.162       37.067       41.336       27.630     1373.984     1708.696      763.410        0.373        0.192       60.131       19.368        0.104      335.955        6.933      861.314
11/15/2014  00:17:00      -28.629      -49.022      -11.619       34.948       45.107       28.076     1221.375     2034.658      788.288        0.370        0.202       56.769       27.366        0.232      335.903        6.845      861.303
11/15/2014  00:18:00       -4.659      -82.339       -4.954       40.748       38.657       31.875     1660.386     1494.376     1016.043        0.550        0.209       82.471       20.673        0.063      335.911        6.860      861.289
11/15/2014  00:19:00       13.256     -117.307      -17.553       48.806       47.191       42.741     2382.056     2227.018     1826.795        1.034        0.322      118.054       27.176        0.053      335.977        6.969      861.265
11/15/2014  00:20:00        3.297     -103.393      -11.585       65.815       58.359       40.244     4331.658     3405.827     1619.577        1.009        0.468      103.446       32.063        0.096      335.939        6.906      861.253
11/15/2014  00:21:00       35.800     -111.759      -15.125       46.740       62.076       44.049     2184.647     3853.405     1940.342        1.099        0.399      117.353       33.465        0.081      335.991        6.993      861.243
11/15/2014  00:22:00        6.215     -106.320       -8.153       42.658       44.687       38.643     1819.746     1996.956     1493.253        0.836        0.265      106.501       30.703        0.083      335.962        6.944      861.238
11/15/2014  00:23:00       14.127      -64.974       -4.402       34.762       42.294       29.905     1208.407     1788.748      894.337        0.417        0.195       66.493       17.585        0.070      335.953        6.930      861.246
11/15/2014  00:24:00       31.814      -73.342       -6.617       35.780       28.968       29.527     1280.241      839.123      871.831        0.471        0.150       79.945       18.469        0.053      335.900        6.842      861.262
11/15/2014  00:25:00       -8.639      -55.646        7.851       48.323       40.169       31.451     2335.098     1613.582      989.167        0.408        0.247       56.313       21.487        0.146      335.976        6.968      861.277
11/15/2014  00:26:00       -5.014      -66.061        4.426       41.545       52.299       35.268     1726.014     2735.164     1243.820        0.506        0.285       66.251       23.137        0.122      335.997        7.002      861.280
11/15/2014  00:27:00       11.816      -74.239        4.480       72.990       58.675       40.621     5327.528     3442.716     1650.059        0.804        0.521       75.173       41.028        0.298      336.046        7.085      861.294
11/15/2014  00:28:00        3.674      -70.753        5.858       40.685       41.917       37.248     1655.248     1757.019     1387.397        0.493        0.240       70.848       28.861        0.166      336.031        7.060      861.301
11/15/2014  00:29:00        2.519      -17.806        7.857       18.276       21.138       18.665      334.023      446.824      348.378        0.076        0.056       17.983       14.479        0.648      335.908        6.854      861.316
11/15/2014  00:30:00       14.339        7.700       48.757       34.257       40.355       21.238     1173.515     1628.504      451.069        0.295        0.163       16.276       21.857        1.803      335.753        6.597      861.316
11/15/2014  00:31:00      122.190      100.480       80.293       98.436       54.112       53.519     9689.551     2928.067     2864.313        2.347        0.774      158.198       54.992        0.121      335.582        6.309      861.294
11/15/2014  00:32:00      106.294       87.680       15.751       74.098       48.390       42.393     5490.488     2341.557     1797.161        1.443        0.481      137.790       40.544        0.087      335.312        5.861      861.297
11/15/2014  00:33:00      128.822       77.491       18.636       39.362       42.932       29.466     1549.338     1843.178      868.226        1.360        0.213      150.333       21.276        0.020      335.174        5.634      861.294
11/15/2014  00:34:00       85.606       63.757        8.290       56.599       43.228       32.090     3203.477     1868.689     1029.792        0.878        0.305      106.739       29.007        0.074      335.088        5.491      861.299
11/15/2014  00:35:00       94.144       79.260       19.217       42.048       27.985       30.946     1768.011      783.156      957.639        0.951        0.175      123.066       22.113        0.032      335.060        5.445      861.309
11/15/2014  00:36:00      148.197       90.048       23.342       44.946       39.049       34.451     2020.136     1524.805     1186.843        1.767        0.237      173.410       19.796        0.013      335.242        5.745      861.309
11/15/2014  00:37:00      141.929      105.660       32.474       44.886       39.696       38.623     2014.710     1575.764     1491.709        1.872        0.254      176.940       18.221        0.011      335.139        5.574      861.290
11/15/2014  00:38:00      153.237      110.967       42.759       42.491       30.490       34.417     1805.493      929.622     1184.502        2.077        0.196      189.196       17.281        0.008      335.115        5.534      861.279
11/15/2014  00:39:00       76.901       94.306       73.299       64.114       53.478       52.529     4110.651     2859.886     2759.248        1.495        0.486      121.686       46.396        0.145      335.051        5.430      861.272
11/15/2014  00:40:00       62.936       57.578       46.431       67.373       50.596       46.488     4539.170     2559.927     2161.104        0.934        0.463       85.300       33.850        0.157      335.120        5.545      861.269
11/15/2014  00:41:00       89.676       34.409       56.468       52.701       56.363       37.584     2777.443     3176.802     1412.531        0.989        0.368       96.051       38.869        0.164      335.241        5.743      861.259
11/15/2014  00:42:00      111.511       41.556       36.886       58.828       51.081       43.508     3460.771     2609.301     1892.989        1.174        0.398      119.002       30.860        0.067      335.360        5.942      861.253
11/15/2014  00:43:00       92.748       47.129       62.739       68.497       53.871       47.051     4691.885     2902.130     2213.787        1.228        0.490      104.035       34.213        0.108      335.355        5.932      861.252
11/15/2014  00:44:00      110.392       51.109        7.974       45.499       45.673       36.685     2070.194     2086.031     1345.763        1.018        0.275      121.649       20.852        0.029      335.315        5.865      861.269
11/15/2014  00:45:00      100.437       72.223       25.297       54.383       46.995       38.240     2957.547     2208.551     1462.292        1.128        0.331      123.709       34.092        0.076      335.273        5.795      861.285
11/15/2014  00:46:00      140.200       78.385       22.361       42.392       38.809       30.731     1797.107     1506.157      944.414        1.527        0.212      160.625       23.320        0.021      335.247        5.755      861.293
11/15/2014  00:47:00      138.367       57.489        7.417       36.201       23.197       31.201     1310.537      538.078      973.516        1.266        0.141      149.835       20.585        0.019      335.162        5.612      861.289
11/15/2014  00:48:00      138.702       90.200       29.399       46.800       34.661       35.597     2190.215     1201.351     1267.137        1.645        0.233      165.452       22.780        0.019      335.155        5.602      861.248
11/15/2014  00:49:00      143.483      122.819       88.380       57.465       59.394       60.141     3302.268     3527.702     3616.950        2.696        0.522      188.870       35.490        0.035      335.194        5.663      861.188
11/15/2014  00:50:00      110.105      115.160      103.990       57.019       49.248       50.023     3251.150     2425.330     2502.254        2.219        0.409      159.326       26.602        0.028      335.276        5.801      861.139
11/15/2014  00:51:00       78.076       36.484       35.984       60.906       60.489       55.802     3709.494     3658.967     3113.909        0.960        0.524       86.179       35.727        0.172      335.230        5.725      861.112
11/15/2014  00:52:00       85.822       51.495       58.420       47.104       41.030       36.858     2218.815     1683.450     1358.527        0.934        0.263      100.085       26.408        0.070      335.149        5.590      861.106
11/15/2014  00:53:00       48.548       59.526       61.236       49.842       42.323       38.744     2484.252     1791.262     1501.080        0.771        0.289       76.813       34.653        0.204      335.177        5.636      861.121
11/15/2014  00:54:00       -1.200       43.426       70.593       25.359       32.158       21.885      643.093     1034.164      478.966        0.451        0.108       43.443       14.772        0.116      335.196        5.668      861.160
11/15/2014  00:55:00       -0.660       11.619       42.234       19.729       35.344       24.714      389.243     1249.229      610.800        0.208        0.112       11.638       25.304        4.727      335.235        5.732      861.181
11/15/2014  00:56:00        7.770       11.176       48.527       20.051       30.132       18.996      402.044      907.961      360.839        0.211        0.084       13.612       16.216        1.419      335.238        5.738      861.182
11/15/2014  00:57:00       16.064       57.332       75.169       35.149       35.773       25.640     1235.436     1279.696      657.431        0.618        0.159       59.540       23.924        0.161      335.298        5.839      861.176
11/15/2014  00:58:00       54.290       37.062       48.003       32.929       32.187       27.813     1084.300     1035.990      773.572        0.476        0.145       65.735       22.288        0.115      335.214        5.700      861.184
11/15/2014  00:59:00       26.972       55.314       54.267       30.264       25.326       20.639      915.900      641.383      425.978        0.436        0.099       61.539       13.677        0.049      335.215        5.700      861.204
11/15/2014  01:00:00       86.493       53.598       39.014       40.677       32.607       29.152     1654.600     1063.187      849.811        0.772        0.178      101.753       20.970        0.042      335.246        5.752      861.215
11/15/2014  01:01:00      111.344       49.946        9.753       44.540       32.882       33.452     1983.840     1081.242     1119.032        0.958        0.209      122.033       20.956        0.029      335.125        5.551      861.218
11/15/2014  01:02:00       69.961       60.413       -1.899       34.510       26.850       27.804     1190.937      720.916      773.082        0.562        0.134       92.435       17.704        0.037      334.911        5.197      861.237
11/15/2014  01:03:00       32.758       65.690       -4.755       32.437       42.560       26.063     1052.149     1811.327      679.292        0.448        0.177       73.405       20.377        0.077      334.806        5.022      861.262
11/15/2014  01:04:00       36.139       79.745        2.761       46.000       55.802       36.168     2115.970     3113.918     1308.123        0.710        0.327       87.552       33.166        0.144      334.890        5.161      861.288
11/15/2014  01:05:00       83.679       53.211        8.134       47.320       36.521       30.043     2239.178     1333.763      902.594        0.719        0.224       99.165       18.457        0.035      334.858        5.108      861.314
11/15/2014  01:06:00       26.494       55.704       -3.780       26.580       50.457       22.487      706.507     2545.952      505.683        0.379        0.188       61.684       28.957        0.220      334.813        5.033      861.360
11/15/2014  01:07:00       15.828       60.080       -4.462       18.335       29.707       13.007      336.168      882.488      169.183        0.263        0.069       62.130       12.146        0.038      334.899        5.176      861.388
11/15/2014  01:08:00       38.087       73.165       -1.626       19.359       29.218       19.989      374.765      853.688      399.577        0.422        0.081       82.485       15.979        0.038      334.969        5.292      861.390
11/15/2014  01:09:00       49.764       70.489       -4.522       33.303       39.040       28.680     1109.077     1524.119      822.559        0.546        0.173       86.285       23.512        0.074      334.936        5.237      861.378
11/15/2014  01:10:00      102.929       75.447        5.619       39.933       27.892       25.624     1594.618      777.947      656.602        0.967        0.151      127.620       16.041        0.016      334.900        5.179      861.353
11/15/2014  01:11:00      108.120       85.104       20.852       36.291       30.083       23.671     1317.028      905.001      560.300        1.107        0.139      137.596       16.444        0.014      334.941        5.247      861.327
11/15/2014  01:12:00       94.731       49.599       -0.843       47.728       34.185       22.205     2277.984     1168.635      493.083        0.769        0.197      106.931       12.599        0.014      334.968        5.291      861.325
11/15/2014  01:13:00      120.097       63.028       15.337       32.428       33.312       20.695     1051.592     1109.721      428.281        1.061        0.129      135.631       17.954        0.018      335.028        5.392      861.342
11/15/2014  01:14:00      119.401       86.666       29.248       37.229       29.951       27.819     1385.986      897.042      773.873        1.284        0.153      147.538       17.336        0.014      335.054        5.433      861.368
11/15/2014  01:15:00       93.893       49.898       16.078       29.740       21.444       22.986      884.453      459.845      528.344        0.672        0.094      106.329       15.313        0.021      335.088        5.491      861.385
11/15/2014  01:16:00       70.812       44.639       20.423       15.066       14.306       15.164      226.985      204.653      229.941        0.404        0.033       83.708        7.487        0.008      335.133        5.565      861.407
11/15/2014  01:17:00       35.687       26.850        9.135       13.049       12.519       12.323      170.279      156.737      151.860        0.128        0.024       44.660        7.113        0.025      335.077        5.473      861.426
11/15/2014  01:18:00       63.882       39.107       12.566       17.185       18.576       14.986      295.308      345.081      224.567        0.332        0.043       74.902        9.910        0.018      335.173        5.631      861.441
11/15/2014  01:19:00       60.028       45.051        5.460       18.727       15.875       16.163      350.710      252.004      261.251        0.326        0.043       75.053       11.251        0.022      335.097        5.506      861.447
11/15/2014  01:20:00       87.531       57.009       13.747       31.880       28.966       20.321     1016.359      839.011      412.937        0.668        0.113      104.459        8.931        0.007      335.045        5.419      861.441
11/15/2014  01:21:00       82.562       42.180        4.401       31.267       26.277       18.763      977.595      690.458      352.069        0.532        0.101       92.712       16.775        0.033      335.016        5.373      861.429
11/15/2014  01:22:00       72.121       41.646        7.345       35.844       24.157       22.882     1284.823      583.555      523.592        0.469        0.120       83.282       14.756        0.031      334.976        5.304      861.436
11/15/2014  01:23:00       67.873       42.152       17.051       34.448       21.190       18.750     1186.698      449.011      351.580        0.433        0.099       79.897       13.433        0.028      334.965        5.285      861.467
11/15/2014  01:24:00       51.113       38.497       14.010       35.456       28.478       22.519     1257.152      811.023      507.125        0.343        0.129       63.989       15.301        0.057      335.002        5.346      861.496
11/15/2014  01:25:00       45.172       36.223       13.355       31.823       13.454       15.490     1012.725      181.020      239.951        0.248        0.072       57.902       11.433        0.039      335.018        5.374      861.513
11/15/2014  01:26:00       53.312       27.958       19.804       26.594       18.626       16.063      707.263      346.910      258.030        0.266        0.066       60.198        9.875        0.027      335.040        5.411      861.526
11/15/2014  01:27:00       52.937       33.449       16.001       12.932        8.640       14.107      167.227       74.656      199.013        0.231        0.022       62.619        7.421        0.014      335.093        5.499      861.549
11/15/2014  01:28:00       53.928       40.547        7.515       18.002       18.940       16.769      324.057      358.733      281.213        0.279        0.048       67.471       12.283        0.033      335.121        5.546      861.577
11/15/2014  01:29:00       39.614       51.648       -3.490       20.998       33.174       19.596      440.936     1100.482      384.016        0.309        0.096       65.090       19.259        0.088      335.076        5.471      861.600
11/15/2014  01:30:00       39.332       33.997       -2.950       32.044       30.045       18.747     1026.826      902.701      351.457        0.250        0.114       51.989       13.563        0.068      335.011        5.364      861.626
11/15/2014  01:31:00       55.069       47.756        2.323       32.670       23.369       19.616     1067.299      546.121      384.774        0.366        0.100       72.892       10.812        0.022      335.036        5.404      861.649
11/15/2014  01:32:00       78.947       48.828       10.508       25.820       19.248       18.011      666.655      370.476      324.387        0.504        0.068       92.826       11.678        0.016      335.150        5.592      861.664
11/15/2014  01:33:00       64.299       57.967        8.774       27.244       18.099       17.195      742.222      327.585      295.658        0.447        0.068       86.572       11.895        0.019      335.082        5.480      861.677
11/15/2014  01:34:00       93.587       53.801        2.510       30.926       24.774       15.674      956.411      613.728      245.678        0.674        0.091      107.949       14.010        0.017      335.069        5.458      861.677
11/15/2014  01:35:00       85.323       62.882        0.109       34.395       28.338       18.817     1183.013      803.056      354.066        0.679        0.117      105.991       11.216        0.011      335.016        5.371      861.669
11/15/2014  01:36:00       24.709       45.111       -3.875       22.609       21.501       19.135      511.185      462.307      366.152        0.200        0.067       51.435       14.557        0.080      334.878        5.142      861.667
11/15/2014  01:37:00       15.227       14.915        5.486       24.534       17.107       17.364      601.914      292.643      301.500        0.084        0.060       21.315       12.634        0.351      334.813        5.033      861.664
11/15/2014  01:38:00       11.329       68.187       -4.736       19.589       30.394       14.383      383.733      923.783      206.862        0.316        0.076       69.122       16.086        0.054      334.903        5.183      861.656
11/15/2014  01:39:00       -3.699      114.424      -16.203       21.140       17.315       11.350      446.895      299.812      128.833        0.712        0.044      114.484        7.500        0.004      335.092        5.497      861.637
11/15/2014  01:40:00      -14.053       66.572       -4.660       26.123       24.009       18.105      682.389      576.450      327.807        0.312        0.079       68.039       11.638        0.029      335.061        5.444      861.610
11/15/2014  01:41:00        8.886      117.297      -13.144       21.125       24.659       18.611      446.246      608.069      346.364        0.771        0.070      117.633       14.008        0.014      335.096        5.504      861.595
11/15/2014  01:42:00       26.813      118.972       -9.858       22.999       29.597       25.133      528.965      876.010      631.676        0.850        0.102      121.956       20.574        0.028      334.972        5.299      861.593
11/15/2014  01:43:00       22.652       76.682       -7.949       29.848       40.536       21.259      890.903     1643.143      451.935        0.472        0.149       79.958       18.644        0.054      334.921        5.213      861.616
11/15/2014  01:44:00       27.214      104.092      -16.636       22.901       23.839       17.343      524.443      568.287      300.796        0.662        0.070      107.590       12.327        0.013      335.068        5.458      861.645
11/15/2014  01:45:00      -14.931      107.954      -19.582       21.648       16.075        8.416      468.643      258.405       70.834        0.653        0.040      108.982        5.184        0.002      335.131        5.561      861.677
11/15/2014  01:46:00      -12.937       64.109       -3.970       18.759       30.318       12.795      351.896      919.209      163.706        0.286        0.072       65.401        6.333        0.009      335.144        5.583      861.694
11/15/2014  01:47:00       24.157       77.517       -5.932       23.230       21.024       12.511      539.644      442.021      156.514        0.388        0.057       81.194       10.935        0.018      335.235        5.733      861.705
11/15/2014  01:48:00       60.079       59.773        5.451       29.632       25.973       21.976      878.053      674.610      482.930        0.462        0.102       84.748       18.019        0.045      335.050        5.427      861.692
11/15/2014  01:49:00      108.035       64.437       17.099       24.740       25.681       20.981      612.046      659.511      440.191        0.891        0.086      125.793        7.931        0.004      335.040        5.411      861.664
11/15/2014  01:50:00      126.377       56.166        9.451       41.599       33.042       24.877     1730.490     1091.745      618.888        1.133        0.172      138.296       17.578        0.016      335.086        5.486      861.628
11/15/2014  01:51:00      146.343       82.510       11.195       28.896       27.450       24.205      834.968      753.481      585.867        1.526        0.109      168.001       11.626        0.005      335.070        5.459      861.609
11/15/2014  01:52:00      102.965       63.576        4.999       44.998       35.780       21.750     2024.802     1280.242      473.080        0.922        0.189      121.012       22.398        0.034      335.044        5.416      861.609
11/15/2014  01:53:00       83.704       40.400        8.820       32.996       32.368       23.010     1088.704     1047.657      529.480        0.569        0.133       92.944       18.046        0.038      334.880        5.143      861.626
11/15/2014  01:54:00       91.636       40.018        4.438       26.905       20.661       22.824      723.875      426.861      520.930        0.584        0.084       99.993       17.133        0.029      334.888        5.157      861.651
11/15/2014  01:55:00       85.704       28.235        0.612       33.308       31.737       17.709     1109.443     1007.222      313.610        0.529        0.122       90.235       16.161        0.032      334.950        5.261      861.674
11/15/2014  01:56:00       99.058       59.195       22.982       30.014       20.823       20.566      900.858      433.584      422.953        0.780        0.088      115.398       16.472        0.020      334.846        5.087      861.667
11/15/2014  01:57:00      116.573       65.879       22.443       29.463       23.317       21.839      868.071      543.681      476.948        1.016        0.094      133.900       15.639        0.014      334.858        5.107      861.670
11/15/2014  01:58:00       77.998       34.182       11.990       46.196       32.318       22.383     2134.070     1044.427      500.984        0.554        0.184       85.159       24.280        0.081      334.773        4.967      861.688
11/15/2014  01:59:00       59.064       35.254        7.350       24.143       16.101       11.506      582.870      259.235      132.379        0.288        0.049       68.786        7.872        0.013      334.735        4.903      861.715
11/15/2014  02:00:00       33.002       18.475        4.018       15.340       12.242       14.464      235.329      149.862      209.215        0.102        0.030       37.821        5.817        0.024      334.775        4.972      861.757
11/15/2014  02:01:00       25.894        9.872        2.982       11.152        9.502       11.789      124.368       90.296      138.973        0.057        0.018       27.712        7.386        0.071      334.769        4.959      861.787
11/15/2014  02:02:00       21.041       24.985        1.778       11.389       10.077        9.208      129.716      101.555       84.794        0.069        0.016       32.664        4.944        0.023      334.770        4.961      861.805
11/15/2014  02:03:00       46.488       33.506        9.010       11.783       10.985       13.104      138.835      120.668      171.723        0.190        0.022       57.304        4.083        0.005      334.720        4.878      861.812
11/15/2014  02:04:00       56.586       34.286        2.522        9.268       14.542        9.310       85.889      211.457       86.672        0.238        0.019       66.163        6.367        0.009      334.781        4.979      861.801
11/15/2014  02:05:00       43.648       16.179        9.833       18.038       20.039       13.285      325.357      401.547      176.479        0.158        0.045       46.550        6.685        0.021      334.802        5.014      861.793
11/15/2014  02:06:00       52.020       37.883        8.580       17.737       13.442       12.266      314.594      180.681      150.453        0.243        0.032       64.352        7.746        0.014      334.851        5.097      861.784
11/15/2014  02:07:00       47.034       22.113       -0.817       20.111       18.098       10.670      404.457      327.548      113.853        0.177        0.042       51.973        8.014        0.024      334.780        4.978      861.772
11/15/2014  02:08:00       43.294       29.009        0.429       16.254       16.725       13.418      264.203      279.740      180.052        0.172        0.036       52.115        6.677        0.016      334.775        4.970      861.777
11/15/2014  02:09:00       31.214       42.273       -0.759       12.979        9.456        9.000      168.447       89.425       81.004        0.155        0.017       52.548        6.244        0.014      334.767        4.957      861.798
11/15/2014  02:10:00       20.311       32.913       -6.445       12.200       12.269        7.605      148.830      150.532       57.844        0.095        0.018       38.676        5.268        0.019      334.852        5.099      861.813
11/15/2014  02:11:00        7.331       16.793       -5.566        9.311       10.223        5.402       86.687      104.513       29.178        0.029        0.011       18.324        4.199        0.053      334.819        5.044      861.827
11/15/2014  02:12:00        3.845        3.578       -3.212        6.587        5.573        4.349       43.392       31.058       18.914        0.007        0.005        5.253        1.522        0.084      334.793        5.000      861.830
11/15/2014  02:13:00       31.433       16.323        5.955        9.340       10.904       10.592       87.234      118.895      112.188        0.080        0.016       35.419        7.855        0.049      334.860        5.111      861.815
11/15/2014  02:14:00       42.645       40.459        7.396       12.371       10.713       10.184      153.054      114.768      103.708        0.194        0.019       58.784        9.301        0.025      334.871        5.130      861.793
11/15/2014  02:15:00       21.109       45.437       -1.728       14.191        8.477        9.407      201.388       71.861       88.487        0.144        0.018       50.101        7.686        0.024      334.876        5.136      861.784
11/15/2014  02:16:00       -7.270       69.817      -14.855        9.583       16.352        7.146       91.831      267.392       51.069        0.278        0.021       70.195        4.715        0.005      334.958        5.273      861.788
11/15/2014  02:17:00        4.603       82.448      -14.016       12.363       16.742        7.825      152.848      280.300       61.235        0.375        0.025       82.577        6.398        0.006      334.955        5.270      861.809
11/15/2014  02:18:00       14.099       87.294      -14.761       10.923       13.499        6.089      119.310      182.233       37.080        0.419        0.017       88.425        6.037        0.005      334.949        5.260      861.832
11/15/2014  02:19:00       12.339       49.367       -9.232        9.123       20.953        4.758       83.237      439.037       22.636        0.161        0.027       50.886        4.539        0.008      334.922        5.214      861.853
11/15/2014  02:20:00       13.737       11.988       -2.315       10.967       12.011        5.166      120.278      144.253       26.684        0.031        0.015       18.232        4.622        0.064      334.872        5.131      861.864
11/15/2014  02:21:00       16.646       -0.135       -1.288       11.929        8.845        4.491      142.310       78.233       20.173        0.026        0.012       16.647        2.637        0.025      334.809        5.027      861.856
11/15/2014  02:22:00      -42.889        2.565       -0.487       11.766        8.482        5.654      138.448       71.951       31.971        0.104        0.012       42.966        3.989        0.009      334.386        4.325      861.847
11/15/2014  02:23:00      -56.730        6.691      -11.939       13.215        7.134        8.024      174.628       50.894       64.386        0.185        0.014       57.123        3.080        0.003      334.296        4.176      861.853
11/15/2014  02:24:00      -42.569       -2.887       -6.004       12.468        5.965        6.443      155.444       35.585       41.506        0.104        0.012       42.666        3.693        0.007      334.348        4.263      861.852
11/15/2014  02:25:00        1.719        4.314       -3.119       20.555       13.994        7.000      422.515      195.835       49.005        0.035        0.033        4.644        9.245        3.963      334.513        4.538      861.829
11/15/2014  02:26:00       49.972       18.643        1.103       13.079        9.868        7.292      171.048       97.381       53.178        0.158        0.016       53.337        4.038        0.006      334.686        4.821      861.811
11/15/2014  02:27:00       54.175       13.852        0.891       13.783       15.224       10.334      189.971      231.778      106.795        0.183        0.026       55.918        4.682        0.007      334.826        5.052      861.814
11/15/2014  02:28:00       71.179       56.566       -3.121       15.362       17.715       24.448      235.996      313.823      597.712        0.471        0.057       90.919       10.238        0.013      334.877        5.141      861.803
11/15/2014  02:29:00      104.196       69.135       24.933       27.287       20.873       25.703      744.603      435.679      660.643        0.905        0.092      125.046       14.813        0.014      334.833        5.065      861.751
11/15/2014  02:30:00      116.659       56.350       16.439       33.840       27.604       25.157     1145.140      761.997      632.893        0.980        0.127      129.555       15.965        0.015      334.827        5.056      861.700
11/15/2014  02:31:00      117.894       50.054        9.738       54.593       36.475       34.497     2980.432     1330.443     1190.072        1.100        0.275      128.080        8.986        0.005      334.816        5.037      861.685
11/15/2014  02:32:00       97.701       59.764       20.812       37.221       28.377       25.252     1385.368      805.240      637.686        0.819        0.141      114.531       22.772        0.040      334.766        4.954      861.715
11/15/2014  02:33:00      118.104       57.856       23.804       45.668       22.284       27.934     2085.584      496.573      780.286        1.061        0.168      131.513       21.948        0.028      334.779        4.976      861.721
11/15/2014  02:34:00       82.698       45.708       31.546       35.483       33.550       33.467     1259.059     1125.625     1120.015        0.671        0.175       94.489       26.006        0.076      334.770        4.963      861.698
11/15/2014  02:35:00       80.572       26.779       23.839       52.140       33.005       33.947     2718.548     1089.323     1152.382        0.637        0.248       84.905       24.703        0.085      334.760        4.946      861.687
11/15/2014  02:36:00       55.195       31.941       37.956       35.215       36.480       21.601     1240.128     1330.772      466.604        0.427        0.152       63.771       17.125        0.072      334.703        4.851      861.681
11/15/2014  02:37:00       46.098       27.725       26.014       35.552       22.491       23.017     1263.942      505.854      529.788        0.293        0.115       53.794       13.569        0.064      334.738        4.910      861.682
11/15/2014  02:38:00       50.192      -14.581       10.211       39.086       26.164       17.748     1527.725      684.546      314.978        0.268        0.126       52.267       14.166        0.073      334.948        5.258      861.698
11/15/2014  02:39:00      -43.252      -53.474       -2.436       33.951       28.660       15.643     1152.692      821.424      244.710        0.348        0.111       68.776       12.108        0.031      334.573        4.635      861.741
11/15/2014  02:40:00      -82.272      -60.249       -4.078       23.713       23.412       15.918      562.321      548.126      253.396        0.589        0.068      101.973       11.060        0.012      334.393        4.335      861.781
11/15/2014  02:41:00      -41.110      -13.739        2.394       38.988       22.793       13.568     1520.041      519.522      184.101        0.205        0.111       43.345       19.954        0.212      334.345        4.256      861.796
11/15/2014  02:42:00      -10.792       -1.774        5.057       18.539       14.735       10.699      343.705      217.121      114.465        0.041        0.034       10.936        6.548        0.359      334.379        4.316      861.798
11/15/2014  02:43:00       -5.642        4.971        4.653       21.654        6.549       12.015      468.883       42.892      144.358        0.037        0.033        7.520       13.673        3.306      334.465        4.456      861.791
11/15/2014  02:44:00       53.364       34.033       10.135       16.645       10.762       11.625      277.068      115.820      135.152        0.232        0.026       63.293        6.993        0.012      334.477        4.475      861.788
11/15/2014  02:45:00       51.097       38.464        5.890       27.407       18.710       17.150      751.148      350.076      294.123        0.276        0.070       63.956       11.820        0.034      334.396        4.341      861.804
11/15/2014  02:46:00       64.081       25.855        4.156       25.809       22.658       17.049      666.104      513.405      290.661        0.313        0.074       69.101       12.411        0.032      334.567        4.626      861.819
11/15/2014  02:47:00      -11.320      -18.086        0.458       22.317       16.283       11.565      498.032      265.138      133.740        0.068        0.045       21.337       10.923        0.262      334.590        4.663      861.838
11/15/2014  02:48:00     -106.651      -36.594       -6.995       37.381       31.011       13.778     1397.333      961.707      189.846        0.766        0.127      112.754       15.882        0.020      334.249        4.097      861.860
11/15/2014  02:49:00      -56.261      -37.302        0.575       56.495       27.113       17.507     3191.724      735.090      306.490        0.439        0.212       67.504       24.493        0.132      334.190        4.000      861.878
11/15/2014  02:50:00       10.555      -14.484       17.875       20.232       23.741       13.297      409.332      563.614      176.804        0.090        0.057       17.922       12.662        0.499      334.209        4.031      861.866
11/15/2014  02:51:00       -6.212      -33.583        8.448       20.170       27.842       14.310      406.832      775.169      204.788        0.131        0.069       34.153       17.296        0.256      334.299        4.183      861.856
11/15/2014  02:52:00      -13.174      -14.596        5.008       13.549       12.578        8.057      183.582      158.202       64.916        0.041        0.020       19.662        4.661        0.056      334.437        4.409      861.863
11/15/2014  02:53:00      -40.952      -10.647        0.131       14.158       13.858       10.140      200.440      192.041      102.828        0.114        0.025       42.314        5.137        0.015      334.412        4.369      861.880
11/15/2014  02:54:00      -50.229       12.456       -6.060        9.436       10.284        5.858       89.035      105.756       34.316        0.147        0.011       51.750        5.588        0.012      334.327        4.227      861.895
11/15/2014  02:55:00      -54.897       -8.938       -6.905        7.935       10.567        7.380       62.963      111.665       54.462        0.169        0.011       55.619        4.963        0.008      334.420        4.381      861.899
11/15/2014  02:56:00      -58.265        3.151       -6.274       10.527       12.056        7.879      110.809      145.350       62.074        0.188        0.016       58.350        5.440        0.009      334.436        4.407      861.916
11/15/2014  02:57:00      -26.397      -15.249       -5.271        5.891        9.194        5.638       34.701       84.539       31.789        0.055        0.008       30.485        3.732        0.015      334.496        4.509      861.923
11/15/2014  02:58:00       -8.895       -7.252       -4.364        8.239        9.000        6.329       67.884       80.997       40.057        0.017        0.009       11.477        4.901        0.182      334.518        4.543      861.908
11/15/2014  02:59:00       13.156        6.716        4.286        9.312        7.279        9.566       86.720       52.983       91.518        0.023        0.012       14.771        4.809        0.106      334.577        4.640      861.867
11/15/2014  03:00:00       19.887       32.827       -2.155        8.512        9.181        7.663       72.460       84.287       58.721        0.085        0.011       38.381        3.971        0.011      334.537        4.575      861.822
11/15/2014  03:01:00       -2.532       32.991       -7.362       11.335        6.849        3.622      128.490       46.915       13.119        0.067        0.009       33.088        4.639        0.020      334.513        4.533      861.800
11/15/2014  03:02:00       -8.395       25.865       -5.136        7.145        7.561        4.348       51.055       57.168       18.906        0.045        0.006       27.193        1.769        0.004      334.565        4.621      861.791
11/15/2014  03:03:00      -13.044       -7.521       -2.314       10.957       12.977        5.462      120.057      168.397       29.830        0.028        0.016       15.057        5.945        0.156      334.475        4.472      861.786
11/15/2014  03:04:00        1.254      -20.920        2.178       10.315       12.923       11.159      106.407      166.996      124.526        0.042        0.020       20.958        5.239        0.062      334.490        4.498      861.783
11/15/2014  03:05:00        4.171      -57.398       13.658       21.428       34.341       24.513      459.145     1179.316      600.867        0.287        0.112       57.550       15.971        0.077      334.444        4.422      861.803
11/15/2014  03:06:00        2.178       17.381       50.890       28.092       37.974       29.467      789.137     1442.043      868.282        0.300        0.155       17.517       27.464        2.458      334.362        4.285      861.807
11/15/2014  03:07:00        3.740       14.452       40.667       20.582       26.421       18.123      423.613      698.077      328.443        0.166        0.073       14.928       17.886        1.436      334.249        4.097      861.805
11/15/2014  03:08:00       17.238       27.174       12.032       26.522       29.156       20.769      703.422      850.058      431.353        0.158        0.099       32.180       20.794        0.418      334.082        3.820      861.810
11/15/2014  03:09:00       28.475       76.654       -3.729       13.344       22.721       15.200      178.069      516.254      231.034        0.381        0.046       81.772       15.167        0.034      333.954        3.609      861.785
11/15/2014  03:10:00       40.116       65.950       -4.766       18.996       18.455       10.934      360.859      340.599      119.556        0.340        0.041       77.193        8.393        0.012      334.114        3.873      861.753
11/15/2014  03:11:00       35.481       33.986        1.433       13.372       17.314       16.527      178.814      299.763      273.156        0.158        0.038       49.132       12.039        0.060      334.254        4.107      861.726
11/15/2014  03:12:00       14.447       11.054       11.621       16.812       10.511        9.121      282.654      110.477       83.190        0.047        0.024       18.191        7.675        0.178      334.242        4.086      861.717
11/15/2014  03:13:00      -17.762       -6.285        0.634       17.580       11.047        5.866      309.058      122.030       34.411        0.041        0.023       18.841        8.520        0.204      334.128        3.896      861.719
11/15/2014  03:14:00      -39.011      -29.027       -3.288       11.148        9.227       10.279      124.285       85.145      105.659        0.135        0.016       48.625        8.653        0.032      334.172        3.969      861.733
11/15/2014  03:15:00      -11.339      -37.981       -5.320       12.294        9.963        9.217      151.140       99.259       84.950        0.097        0.017       39.638        5.397        0.019      334.277        4.145      861.748
11/15/2014  03:16:00      -14.919      -27.105       -8.990        5.400       17.794        5.176       29.165      316.637       26.794        0.071        0.019       30.940        5.087        0.027      334.408        4.362      861.760
11/15/2014  03:17:00      -34.798      -14.448       -1.399        9.882       14.337        5.936       97.645      205.537       35.235        0.088        0.017       37.678        5.914        0.025      334.310        4.199      861.788
11/15/2014  03:18:00       -4.994       -8.476        2.934       16.311        7.950        5.790      266.052       63.196       33.523        0.023        0.018        9.838        5.854        0.354      334.294        4.173      861.791
11/15/2014  03:19:00       27.703       17.444        5.240        9.000        9.379        8.622       81.000       87.974       74.334        0.067        0.012       32.738        5.147        0.025      334.310        4.199      861.774
11/15/2014  03:20:00      -11.870       -3.400        2.256       17.460       10.972        9.627      304.860      120.379       92.671        0.034        0.026       12.348        8.944        0.525      334.246        4.092      861.774
11/15/2014  03:21:00        5.681       18.199        7.438        7.650        6.760        8.413       58.524       45.696       70.779        0.030        0.009       19.065        4.565        0.057      334.300        4.182      861.763
11/15/2014  03:22:00       28.290       47.449       -1.184       15.088       22.455       16.722      227.646      504.213      279.628        0.203        0.051       55.243       11.995        0.047      334.388        4.327      861.758
11/15/2014  03:23:00        4.172       72.717       -4.337       12.749       13.842       11.874      162.532      191.611      141.002        0.291        0.025       72.837        5.698        0.006      334.355        4.274      861.769
11/15/2014  03:24:00       17.220       73.779       -9.519        6.645        9.586        6.038       44.162       91.890       36.462        0.300        0.009       75.762        3.681        0.002      334.445        4.423      861.801
11/15/2014  03:25:00       20.754       42.125      -12.654        6.360       14.988        7.464       40.448      224.646       55.708        0.134        0.016       46.960        5.291        0.013      334.333        4.237      861.854
11/15/2014  03:26:00        6.414       10.661       -7.459       14.840       20.816        5.425      220.223      433.304       29.433        0.045        0.034       12.442        6.324        0.258      334.332        4.236      861.905
11/15/2014  03:27:00      -27.002      -27.663       -4.210       12.612       16.209        8.091      159.068      262.726       65.459        0.100        0.024       38.657        4.668        0.015      334.319        4.214      861.954
11/15/2014  03:28:00        0.718        2.033        4.276        8.385        9.429        5.969       70.310       88.897       35.633        0.011        0.010        2.157        4.467        4.290      334.099        3.847      861.986
11/15/2014  03:29:00       37.730       28.939       16.375       17.114        7.155       10.710      292.888       51.190      114.695        0.149        0.023       47.550        8.293        0.030      334.087        3.828      861.987
11/15/2014  03:30:00        6.094      -14.403       -0.077       16.390       20.322        9.561      268.618      412.997       91.409        0.051        0.039       15.639        7.571        0.234      334.133        3.904      861.983
11/15/2014  03:31:00      -32.951      -12.172       -9.045       20.237       16.425        9.536      409.548      269.780       90.934        0.104        0.039       35.128       12.611        0.129      334.123        3.887      862.001
11/15/2014  03:32:00      -47.631      -19.034       -5.014       12.318       11.870        8.704      151.741      140.890       75.764        0.151        0.018       51.293        4.812        0.009      334.016        3.713      862.004
11/15/2014  03:33:00      -62.511      -28.167       -6.468       16.526       10.135        5.790      273.109      102.718       33.521        0.258        0.020       68.564        5.991        0.008      333.973        3.639      862.007
11/15/2014  03:34:00      -49.609       -0.949       -5.382       22.425       22.895       11.215      502.891      524.176      125.780        0.182        0.058       49.618       13.341        0.072      333.858        3.448      862.013
11/15/2014  03:35:00      -21.749       39.978       -3.056       10.902       19.530        7.795      118.845      381.430       60.762        0.132        0.028       45.511        2.709        0.004      333.998        3.683      862.020
11/15/2014  03:36:00        5.157       85.654      -12.574       15.096       40.587       18.162      227.897     1647.298      329.850        0.486        0.110       85.809       25.051        0.085      333.947        3.596      862.064
11/15/2014  03:37:00       17.655      131.829      -25.141       11.602       15.929        6.573      134.610      253.723       43.202        0.938        0.022      133.006        2.944        0.000      334.035        3.741      862.104
11/15/2014  03:38:00       23.159       86.870      -19.125       13.525       17.969        7.338      182.920      322.877       53.843        0.450        0.028       89.904        4.518        0.003      334.143        3.923      862.119
11/15/2014  03:39:00       -7.843       22.471       -5.968        9.873       19.798        5.908       97.468      391.941       34.908        0.056        0.026       23.800        8.122        0.116      334.327        4.227      862.136
11/15/2014  03:40:00      -19.475      -13.424       -0.770       10.070       10.400        8.982      101.414      108.156       80.673        0.043        0.015       23.653        3.735        0.025      334.230        4.065      862.156
11/15/2014  03:41:00      -26.056      -14.153       -4.397       14.025       15.473        8.453      196.701      239.421       71.448        0.070        0.025       29.651        6.914        0.054      334.093        3.839      862.165
11/15/2014  03:42:00      -30.031       -4.289       -6.727       16.158       15.601        8.689      261.094      243.399       75.505        0.077        0.029       30.335        6.187        0.042      333.950        3.604      862.167
11/15/2014  03:43:00      -81.738       28.653       -6.329       13.532       11.469        9.816      183.116      131.544       96.347        0.398        0.021       86.614        3.667        0.002      333.697        3.182      862.179
11/15/2014  03:44:00      -77.350       27.571       -7.868       27.778       23.728       16.846      771.593      563.026      283.791        0.421        0.081       82.117       12.938        0.025      333.819        3.384      862.199
11/15/2014  03:45:00      -86.928       19.631      -15.717       28.572       30.947       17.545      816.380      957.690      307.813        0.513        0.104       89.117       16.680        0.035      333.824        3.392      862.212
11/15/2014  03:46:00      -48.367       44.951       -7.538       25.537       20.947       11.979      652.115      438.764      143.490        0.283        0.062       66.030       10.533        0.025      334.038        3.749      862.205
11/15/2014  03:47:00       14.577      -51.317       -5.037       23.167       49.584       19.752      536.720     2458.603      390.125        0.313        0.169       53.347       23.492        0.194      334.061        3.785      862.194
11/15/2014  03:48:00       -5.347      -22.447        3.945       16.931       15.477       12.708      286.667      239.542      161.501        0.062        0.034       23.075        9.783        0.180      334.107        3.862      862.172
11/15/2014  03:49:00      -43.970      -14.562       -5.954       27.099       23.363       13.388      734.364      545.820      179.228        0.182        0.073       46.319       12.854        0.077      333.980        3.651      862.161
11/15/2014  03:50:00      -73.639       11.540      -12.106       32.494       16.960       11.047     1055.841      287.657      122.031        0.358        0.073       74.537        9.849        0.017      333.813        3.374      862.162
11/15/2014  03:51:00      -30.818       11.720       -4.768       16.919       19.040       11.339      286.241      362.531      128.563        0.094        0.039       32.971        3.478        0.011      333.864        3.461      862.159
11/15/2014  03:52:00      -18.192       -9.755        0.197       16.795       12.628        7.751      282.081      159.472       60.079        0.046        0.025       20.643        6.612        0.103      333.911        3.538      862.173
11/15/2014  03:53:00      -10.766       12.041        4.069       16.135       30.652       14.300      260.341      939.574      204.478        0.084        0.070       16.152        9.843        0.371      334.196        4.009      862.199
11/15/2014  03:54:00      -14.421       91.185       -9.005       21.058       36.366       18.581      443.427     1322.516      345.236        0.536        0.106       92.318       15.812        0.029      334.368        4.295      862.239
11/15/2014  03:55:00      -83.589       -4.080       -4.249       18.463       31.028       14.078      340.879      962.762      198.196        0.426        0.075       83.689        6.183        0.005      334.063        3.788      862.257
11/15/2014  03:56:00     -104.031       -9.207      -11.032       24.448       15.511       12.891      597.696      240.602      166.184        0.602        0.050      104.438        9.150        0.008      333.884        3.493      862.250
11/15/2014  03:57:00      -71.246       31.431       -8.972       30.781       19.094       15.646      947.454      364.575      244.808        0.385        0.078       77.871        9.805        0.016      334.289        4.164      862.226
11/15/2014  03:58:00      -14.239        6.646       -3.758       27.509       14.299       13.176      756.725      204.450      173.601        0.070        0.057       15.713       18.023        1.316      334.721        4.880      862.223
11/15/2014  03:59:00       58.560       32.422       10.526       15.331       11.170       14.125      235.034      124.774      199.507        0.258        0.028       66.936        3.011        0.002      334.674        4.803      862.218
11/15/2014  04:00:00        7.992       31.639       57.079       22.056       31.108       15.221      486.476      967.737      231.691        0.300        0.084       32.633       16.021        0.241      334.235        4.073      862.202
11/15/2014  04:01:00        6.404       -8.531       22.673       22.753       33.388       18.479      517.701     1114.736      341.463        0.130        0.099       10.667       16.789        2.477      334.230        4.065      862.215
11/15/2014  04:02:00      -38.072       -9.179      -10.072       50.086       40.494       17.931     2508.584     1639.759      321.537        0.305        0.223       39.163       14.889        0.145      334.200        4.016      862.256
11/15/2014  04:03:00     -123.051       69.313      -22.651       52.277       40.514       29.900     2732.905     1641.416      894.027        1.286        0.263      141.230       29.685        0.044      334.042        3.752      862.291
11/15/2014  04:04:00      -59.400       53.160      -15.419       34.257       49.163       18.669     1173.536     2416.973      348.534        0.526        0.197       79.714       23.419        0.086      334.081        3.817      862.273
11/15/2014  04:05:00     -108.813      106.100      -20.517       35.891       49.700       28.201     1288.176     2470.054      795.299        1.404        0.228      151.979       23.685        0.024      334.200        4.015      862.255
11/15/2014  04:06:00      -88.750       98.949      -24.159       26.364       21.463       14.400      695.042      460.647      207.364        0.981        0.068      132.919       10.978        0.007      334.592        4.665      862.267
11/15/2014  04:07:00      -27.321      110.196      -14.800       59.141       50.099       24.844     3497.667     2509.944      617.200        0.987        0.331      113.532       21.380        0.035      334.729        4.892      862.301
11/15/2014  04:08:00       19.997       50.478       -5.384       50.884       37.992       24.664     2589.143     1443.415      608.336        0.381        0.232       54.294        9.755        0.032      334.768        4.958      862.327
11/15/2014  04:09:00       74.775       70.937       45.573       51.311       43.342       37.978     2632.780     1878.551     1442.339        0.933        0.298      103.070       32.296        0.098      334.534        4.569      862.302
11/15/2014  04:10:00       53.099       80.002       62.004       54.796       31.703       28.778     3002.631     1005.076      828.194        0.895        0.242       96.020       32.968        0.118      334.634        4.737      862.276
11/15/2014  04:11:00       -0.876       42.387       61.303       14.049       29.621       17.547      197.370      877.413      307.901        0.347        0.069       42.396       18.195        0.184      334.424        4.387      862.257
11/15/2014  04:12:00      -20.085      -12.115       15.816       20.526       32.272       21.244      421.308     1041.506      451.288        0.136        0.096       23.456       24.806        1.118      334.345        4.258      862.262
11/15/2014  04:13:00        0.470      -33.506       14.911       45.765       24.321       25.575     2094.461      591.504      654.082        0.234        0.167       33.509       29.388        0.769      334.285        4.158      862.271
11/15/2014  04:14:00      -95.752      -20.791      -13.661       32.109       20.605       15.401     1030.974      424.571      237.181        0.574        0.085       97.983       12.418        0.016      334.027        3.728      862.293
11/15/2014  04:15:00     -104.031      -35.875       -8.418       40.974       36.705       23.147     1678.890     1347.292      535.782        0.787        0.178      110.043       23.040        0.044      334.021        3.719      862.334
11/15/2014  04:16:00      -71.664      -24.829       -7.104       32.352       32.705       23.433     1046.623     1069.592      549.092        0.423        0.133       75.843       18.087        0.057      333.980        3.652      862.365
11/15/2014  04:17:00      -72.241      -36.807       -5.264       27.768       17.473       14.472      771.073      305.302      209.434        0.394        0.064       81.077       11.574        0.020      334.174        3.972      862.372
11/15/2014  04:18:00      -47.131      -33.140       -2.253       15.629       13.237       12.280      244.279      175.218      150.794        0.195        0.029       57.616        9.230        0.026      334.769        4.961      862.368
11/15/2014  04:19:00       33.175       -4.743        9.778       44.177       24.868       14.916     1951.629      618.425      222.490        0.201        0.140       33.512       16.758        0.250      334.685        4.821      862.364
11/15/2014  04:20:00       28.071       29.493       47.811       32.974       31.905       21.661     1087.273     1017.916      469.218        0.326        0.129       40.716       25.553        0.394      334.755        4.936      862.360
11/15/2014  04:21:00        7.929      -42.828       16.236       27.626       39.375       24.396      763.213     1550.429      595.154        0.253        0.145       43.556       24.113        0.306      334.743        4.918      862.385
11/15/2014  04:22:00      -11.427      -67.817       -4.457       47.979       43.133       24.278     2301.980     1860.475      589.417        0.475        0.238       68.773       17.484        0.065      334.611        4.699      862.418
11/15/2014  04:23:00      -42.596      -19.886        1.281       30.195       25.365       17.277      911.712      643.389      298.479        0.203        0.093       47.009       17.796        0.143      334.096        3.844      862.437
11/15/2014  04:24:00        2.603       17.583       11.008       22.838       17.578       15.897      521.590      308.972      252.713        0.076        0.054       17.774       11.448        0.415      333.939        3.583      862.431
11/15/2014  04:25:00       41.893       53.555       -7.494       16.603       23.491       17.194      275.646      551.846      295.625        0.290        0.056       67.994       15.302        0.051      334.104        3.857      862.414
11/15/2014  04:26:00       39.317       50.148      -14.953       15.182       27.016       17.806      230.481      729.883      317.066        0.278        0.064       63.723       15.405        0.058      334.106        3.860      862.428
11/15/2014  04:27:00       24.533        4.827        1.988       26.010       23.646       19.870      676.543      559.121      394.824        0.113        0.082       25.003       12.083        0.234      334.125        3.890      862.431
11/15/2014  04:28:00       12.264       30.156       -2.074       17.430       38.194       13.674      303.793     1458.758      186.976        0.151        0.097       32.555       17.515        0.289      334.075        3.807      862.430
11/15/2014  04:29:00      -25.582       32.457      -14.449       31.394       16.201        7.825      985.584      262.476       61.237        0.161        0.065       41.326        5.282        0.016      334.107        3.861      862.419
11/15/2014  04:30:00      -50.553       19.335       -3.800       17.301       13.626       10.021      299.332      185.679      100.420        0.176        0.029       54.124        4.439        0.007      334.091        3.834      862.411
11/15/2014  04:31:00       -8.991       19.442       -6.941       15.175       11.207        7.250      230.280      125.590       52.568        0.046        0.020       21.420        4.783        0.050      334.244        4.089      862.399
11/15/2014  04:32:00       27.619       12.511       -1.621        7.586        7.022        6.147       57.554       49.304       37.786        0.053        0.007       30.320        5.159        0.029      334.376        4.309      862.373
11/15/2014  04:33:00        0.153        0.481        9.759       30.883       22.973       12.794      953.743      527.772      163.683        0.087        0.082        0.504       12.242      589.006      334.370        4.299      862.357
11/15/2014  04:34:00      -14.687      -33.331        1.078       29.356       21.603       13.675      861.764      466.689      186.998        0.142        0.076       36.423        7.767        0.045      334.405        4.358      862.388
11/15/2014  04:35:00      -40.715       23.452       -2.651       33.440       13.982        9.480     1118.253      195.485       89.874        0.181        0.070       46.986       11.085        0.056      334.154        3.940      862.401
11/15/2014  04:36:00       47.643       52.239       13.014       21.490       16.729       20.756      461.822      279.871      430.804        0.317        0.059       70.702       10.292        0.021      334.181        3.984      862.388
11/15/2014  04:37:00       40.105       43.689        5.989       16.906        7.977       10.550      285.827       63.626      111.302        0.201        0.023       59.306       10.582        0.032      334.122        3.885      862.377
11/15/2014  04:38:00        6.049       47.706       -7.571       11.029        8.447        4.955      121.639       71.353       24.554        0.129        0.011       48.088        3.941        0.007      334.159        3.949      862.400
11/15/2014  04:39:00       -4.444       34.413       -4.561        5.549        6.122        4.255       30.796       37.478       18.106        0.066        0.004       34.699        2.895        0.007      334.287        4.161      862.421
11/15/2014  04:40:00        9.886       24.098        1.397        7.453       12.217       10.401       55.544      149.245      108.172        0.050        0.016       26.047        8.516        0.107      334.212        4.038      862.415
11/15/2014  04:41:00       19.457       24.214        2.125       13.132        9.914        7.613      172.445       98.295       57.955        0.065        0.016       31.062        6.515        0.044      334.162        3.953      862.410
11/15/2014  04:42:00       17.171       28.718        1.270       13.365       15.283        7.527      178.616      233.557       56.658        0.079        0.023       33.459        3.201        0.009      334.224        4.058      862.421
11/15/2014  04:43:00       20.121       14.192        7.363       17.082       10.549       12.022      291.795      111.290      144.539        0.060        0.027       24.622        6.552        0.071      334.211        4.034      862.418
11/15/2014  04:44:00        7.991       -1.098        7.517       18.717       28.573       20.930      350.330      816.409      438.082        0.086        0.080        8.066       20.899        6.713      334.065        3.793      862.394
11/15/2014  04:45:00       35.836        0.680       25.347       23.388       29.921       30.614      547.009      895.256      937.217        0.215        0.119       35.843       27.891        0.606      334.039        3.749      862.360
11/15/2014  04:46:00       -5.316       49.836       80.677       22.678       41.332       22.694      514.272     1708.306      515.010        0.588        0.137       50.119       23.836        0.226      334.146        3.926      862.330
11/15/2014  04:47:00       29.378      -21.039       24.866       40.925       41.755       34.197     1674.848     1743.488     1169.433        0.325        0.229       36.135       21.611        0.358      334.091        3.834      862.337
11/15/2014  04:48:00       62.131      -40.185       18.220       44.992       50.702       30.945     2024.315     2570.738      957.564        0.568        0.278       73.994       30.021        0.165      334.031        3.735      862.358
11/15/2014  04:49:00       71.417      -39.983        1.121       43.830       31.828       25.021     1921.105     1013.019      626.031        0.513        0.178       81.848       26.843        0.108      334.078        3.815      862.390
11/15/2014  04:50:00       37.890       65.567       15.187       35.582       38.196       37.350     1266.061     1458.930     1395.050        0.504        0.206       75.728       32.349        0.182      333.934        3.575      862.405
11/15/2014  04:51:00        1.275      113.843      -23.797       31.102       24.439       13.846      967.310      597.276      191.722        0.764        0.088      113.850       12.037        0.011      333.923        3.556      862.463
11/15/2014  04:52:00      -79.501       14.789      -15.918       29.808       25.120       17.405      888.544      630.997      302.929        0.431        0.091       80.865       14.445        0.032      333.812        3.373      862.533
11/15/2014  04:53:00      -24.931       19.865       -2.151       23.643       15.280       12.278      559.005      233.488      150.743        0.098        0.047       31.878       12.830        0.162      333.885        3.496      862.525
11/15/2014  04:54:00       43.400       35.393        8.326       17.747       16.349       14.360      314.954      267.281      206.216        0.200        0.039       56.003        5.374        0.009      334.053        3.772      862.504
11/15/2014  04:55:00        1.501       26.674       32.082       15.121       16.301       13.336      228.630      265.736      177.849        0.121        0.034       26.716        9.021        0.114      333.934        3.576      862.493
11/15/2014  04:56:00       -7.157       15.815       37.897        8.053       19.231       14.216       64.846      369.816      202.107        0.119        0.032       17.359       13.145        0.573      333.924        3.560      862.469
11/15/2014  04:57:00       -3.685       35.859       55.794       11.533       21.312       11.798      133.000      454.186      139.199        0.257        0.036       36.048       10.760        0.089      333.829        3.400      862.430
11/15/2014  04:58:00        2.105       64.939       91.276       28.467       49.790       30.037      810.387     2479.048      902.206        0.837        0.210       64.974       34.477        0.282      333.893        3.506      862.377
11/15/2014  04:59:00       -2.095       44.021       94.527       28.161       63.299       36.220      793.026     4006.755     1311.870        0.849        0.306       44.070       42.160        0.915      333.927        3.563      862.324
11/15/2014  05:00:00       46.727      -93.345       12.738       54.510       81.730       45.907     2971.329     6679.773     2107.408        1.141        0.588      104.387       57.582        0.304      334.132        3.903      862.349
11/15/2014  05:01:00       34.532      -16.162       19.384       45.497       80.173       42.978     2069.965     6427.657     1847.149        0.609        0.517       38.127       51.245        1.806      334.033        3.739      862.377
11/15/2014  05:02:00       -8.925       42.878        6.105       43.133       23.230       23.275     1860.472      539.637      541.715        0.245        0.147       43.797       22.220        0.257      333.898        3.517      862.393
11/15/2014  05:03:00      -89.091       71.381      -18.413       23.985       29.610       17.655      575.274      876.776      311.694        0.757        0.088      114.159       16.234        0.020      333.575        2.979      862.464
11/15/2014  05:04:00      -51.765       33.965       -4.203       31.695       21.860       17.568     1004.584      477.849      308.643        0.282        0.090       61.913       18.227        0.087      333.637        3.083      862.490
11/15/2014  05:05:00       13.217       11.002        0.291       23.202       24.577       15.267      538.334      604.053      233.067        0.084        0.069       17.197       10.676        0.385      333.729        3.233      862.464
11/15/2014  05:06:00        9.211        1.020       -6.440       12.136       14.650        9.966      147.270      214.632       99.312        0.029        0.023        9.267        8.160        0.775      333.608        3.035      862.476
11/15/2014  05:07:00       28.854        5.643       -2.008       23.361       14.519       11.128      545.757      210.813      123.842        0.087        0.044       29.400       10.704        0.133      333.641        3.089      862.500
11/15/2014  05:08:00       15.094       34.393       -5.812       36.915       16.079       10.804     1362.721      258.526      116.729        0.159        0.087       37.559        8.705        0.054      333.604        3.029      862.480
11/15/2014  05:09:00        8.014       97.164      -18.284       14.262       14.094        7.103      203.404      198.648       50.449        0.515        0.023       97.494        6.161        0.004      333.603        3.027      862.472
11/15/2014  05:10:00        0.371      102.345      -18.451       13.539       14.327       10.988      183.299      205.256      120.742        0.566        0.025      102.345        6.985        0.005      333.667        3.132      862.452
11/15/2014  05:11:00       45.103       75.854      -10.950       26.899       37.361       16.678      723.575     1395.880      278.147        0.515        0.120       88.250       19.778        0.050      333.510        2.871      862.405
11/15/2014  05:12:00      171.200       89.589        8.747       43.876       23.367       22.798     1925.077      546.014      519.735        2.020        0.150      193.225       13.903        0.005      333.501        2.855      862.313
11/15/2014  05:13:00      166.439       87.965       17.037       45.724       40.043       37.599     2090.657     1603.469     1413.707        2.042        0.255      188.255       21.490        0.013      333.414        2.710      862.273
11/15/2014  05:14:00       80.469       54.187        4.100       40.574       29.117       22.820     1646.247      847.820      520.762        0.622        0.151       97.013       14.603        0.023      333.309        2.540      862.304
11/15/2014  05:15:00       17.790       23.354        7.376       32.807       27.114       21.444     1076.315      735.176      459.836        0.159        0.114       29.359       17.018        0.336      333.347        2.601      862.339
11/15/2014  05:16:00       -2.224       33.841        0.408       27.590       19.071       15.890      761.183      363.719      252.480        0.126        0.069       33.914       13.848        0.167      333.403        2.694      862.352
11/15/2014  05:17:00       19.677       40.183        4.807       14.831       22.976       15.216      219.944      527.883      231.519        0.150        0.049       44.742       13.816        0.095      333.515        2.881      862.351
11/15/2014  05:18:00      -25.891       16.784       -4.842       11.413       13.108        7.931      130.249      171.822       62.907        0.067        0.018       30.856        5.144        0.028      333.479        2.819      862.343
11/15/2014  05:19:00      -11.026       38.319       -2.360       20.822       15.953       14.437      433.559      254.503      208.441        0.125        0.045       39.874       11.930        0.090      333.472        2.810      862.336
11/15/2014  05:20:00       56.812       51.263        7.252       28.173       21.899       21.978      793.693      479.557      483.040        0.383        0.088       76.521       16.125        0.044      333.625        3.062      862.295
11/15/2014  05:21:00       91.468       43.139       10.278       25.445       21.512       24.813      647.438      462.784      615.663        0.603        0.086      101.130       14.971        0.022      333.569        2.969      862.253
11/15/2014  05:22:00      112.375       72.492       29.298       32.636       28.941       31.086     1065.093      837.607      966.359        1.080        0.143      133.729       20.064        0.023      333.510        2.872      862.205
11/15/2014  05:23:00      106.338       47.990       20.766       42.624       28.351       24.248     1816.816      803.771      587.949        0.862        0.160      116.666       11.528        0.010      333.450        2.773      862.185
11/15/2014  05:24:00      -65.609      -20.118       -7.966       92.622       35.449       26.152     8578.823     1256.643      683.921        0.764        0.526       68.625       31.518        0.211      333.456        2.781      862.248
11/15/2014  05:25:00     -274.528      -98.845      -10.119      112.331      109.166       53.826    12618.252    11917.222     2897.223        5.633        1.372      291.781       43.916        0.023      333.523        2.889      862.291
11/15/2014  05:26:00     -236.255      -62.848      -25.143       92.411       61.713       37.933     8539.817     3808.515     1438.929        3.709        0.689      244.471       42.245        0.030      333.546        2.927      862.264
11/15/2014  05:27:00      -39.829       39.471        6.227       73.493       28.221       21.065     5401.150      796.430      443.741        0.491        0.332       56.074       30.163        0.289      333.616        3.048      862.182
11/15/2014  05:28:00      130.868       79.338       14.679       47.634       30.587       29.422     2269.030      935.544      865.647        1.385        0.204      153.039       25.242        0.027      333.815        3.378      862.079
11/15/2014  05:29:00      132.150       64.840        9.063       50.632       37.525       32.583     2563.552     1408.144     1061.667        1.339        0.252      147.200       21.011        0.020      333.975        3.642      862.039
11/15/2014  05:30:00       79.835       38.200       16.423       34.155       24.315       25.981     1166.535      591.236      675.016        0.527        0.122       88.504       10.998        0.015      333.949        3.599      862.049
11/15/2014  05:31:00      -12.118      -17.435        7.208       19.106       13.311       10.265      365.049      177.194      105.366        0.058        0.032       21.233        9.751        0.211      334.004        3.690      862.092
11/15/2014  05:32:00      -40.740      -18.316        0.815       35.277       23.879       15.406     1244.478      570.202      237.349        0.202        0.103       44.668       17.285        0.150      333.808        3.367      862.120
11/15/2014  05:33:00      -17.353      -24.208        4.682       30.180       27.480       15.947      910.812      755.146      254.297        0.141        0.096       29.785        9.993        0.113      333.814        3.375      862.100
11/15/2014  05:34:00       28.513       46.921       30.111       28.836       26.370       20.760      831.532      695.390      430.998        0.294        0.098       54.905       14.667        0.071      333.896        3.512      862.065
11/15/2014  05:35:00       38.666       45.952       37.755       24.119       22.424       16.865      581.737      502.834      284.425        0.320        0.068       60.056       17.014        0.080      333.836        3.413      862.049
11/15/2014  05:36:00       -5.844      -17.037        4.260       17.671       19.160       12.337      312.271      367.115      152.204        0.059        0.042       18.012        6.180        0.118      333.891        3.505      862.056
11/15/2014  05:37:00      -61.750        7.504       -7.645       27.103       19.502       13.690      734.554      380.332      187.423        0.261        0.065       62.204       13.092        0.044      333.710        3.204      862.091
11/15/2014  05:38:00     -138.762       26.601      -11.580       55.076       34.771       27.731     3033.405     1209.052      769.021        1.255        0.251      141.288       31.022        0.048      333.490        2.839      862.126
11/15/2014  05:39:00      -94.968      -15.003       -8.954       39.594       35.236       21.525     1567.696     1241.574      463.337        0.630        0.164       96.146       22.587        0.055      333.417        2.717      862.154
11/15/2014  05:40:00      -79.847       26.106       -7.937       30.543       16.338       14.551      932.874      266.934      211.729        0.427        0.071       84.006        5.052        0.004      333.512        2.875      862.167
11/15/2014  05:41:00      -19.819       24.104       -5.566       33.125       20.614       11.645     1097.264      424.956      135.608        0.133        0.083       31.205       15.072        0.233      333.651        3.106      862.171
11/15/2014  05:42:00       57.015       33.344        0.383       15.573       19.013       16.408      242.529      361.489      269.211        0.262        0.044       66.050        9.404        0.020      333.886        3.495      862.183
11/15/2014  05:43:00       44.178       35.926        3.931       12.999        8.527        9.926      168.963       72.703       98.527        0.180        0.017       56.942        3.693        0.004      333.703        3.191      862.205
11/15/2014  05:44:00        5.506       44.115       -4.373       13.949        6.587        4.661      194.577       43.384       21.729        0.113        0.013       44.458        5.582        0.016      333.710        3.204      862.227
11/15/2014  05:45:00      -40.071       20.784       -8.189       16.143       15.532        5.857      260.592      241.237       34.304        0.132        0.027       45.141        6.350        0.020      333.851        3.436      862.243
11/15/2014  05:46:00      -76.424      -17.295      -10.044       30.150       17.808       10.756      909.013      317.136      115.690        0.379        0.067       78.356       10.151        0.017      333.514        2.878      862.268
11/15/2014  05:47:00      -86.982      -26.308       -5.002       18.071       20.977       13.489      326.576      440.032      181.947        0.462        0.047       90.874       11.223        0.015      333.514        2.876      862.292
11/15/2014  05:48:00      -84.695      -18.762      -11.862       24.246       19.383       18.816      587.852      375.717      354.029        0.449        0.066       86.748       12.837        0.022      333.350        2.607      862.288
11/15/2014  05:49:00      -22.425      -10.146       -0.595       23.494       14.079       12.535      551.965      198.232      157.117        0.076        0.045       24.614        8.214        0.111      333.222        2.395      862.270
11/15/2014  05:50:00      -20.675      -18.914       -9.953       21.397       11.468        9.361      457.839      131.515       87.620        0.078        0.034       28.021        4.700        0.028      333.246        2.433      862.246
11/15/2014  05:51:00      -10.894      -11.866        0.062       11.358        8.834       11.902      128.996       78.040      141.649        0.030        0.017       16.109       10.363        0.414      333.276        2.485      862.226
11/15/2014  05:52:00        4.153       13.372       -1.142        9.107        8.311        3.953       82.938       69.076       15.624        0.018        0.008       14.002        2.219        0.025      333.428        2.738      862.217
11/15/2014  05:53:00        3.041       35.847       -6.095       10.338        7.532        4.704      106.874       56.730       22.131        0.076        0.009       35.976        2.537        0.005      333.860        3.453      862.219
11/15/2014  05:54:00       11.730       15.543        2.682        6.279       10.388        5.199       39.423      107.911       27.031        0.028        0.009       19.472        3.798        0.038      333.759        3.285      862.223
11/15/2014  05:55:00      -42.103      -14.234       -2.632       24.577       12.643        8.712      604.014      159.846       75.892        0.141        0.042       44.444       11.908        0.072      333.580        2.989      862.229
11/15/2014  05:56:00     -116.578      -38.569       -9.817       40.126       22.561       18.262     1610.085      509.003      333.491        0.881        0.123      122.793       18.410        0.022      333.151        2.278      862.228
11/15/2014  05:57:00      -65.680       16.660       -9.279       34.806       29.173       23.400     1211.453      851.089      547.567        0.364        0.131       67.760       19.771        0.085      333.027        2.074      862.228
11/15/2014  05:58:00      -57.196      -22.848      -10.721       17.149       11.521       12.795      294.079      132.737      163.713        0.225        0.030       61.590        9.743        0.025      333.060        2.128      862.218
11/15/2014  05:59:00      -53.299      -28.807      -12.214       15.832       14.838       11.932      250.655      220.158      142.381        0.222        0.031       60.586        6.659        0.012      333.130        2.243      862.194
11/15/2014  06:00:00      -86.903      -16.352       -9.655       15.491       19.434       12.680      239.966      377.693      160.788        0.435        0.039       88.428        8.980        0.010      333.133        2.248      862.158
11/15/2014  06:01:00      -60.816      -25.997       -6.912       17.591       20.113       13.266      309.431      404.539      175.985        0.266        0.044       66.140       11.181        0.029      333.147        2.271      862.127
11/15/2014  06:02:00      -81.288      -32.882      -12.036       18.847       15.012       10.197      355.223      225.353      103.980        0.426        0.034       87.686        7.617        0.008      333.117        2.220      862.100
11/15/2014  06:03:00     -109.848      -26.871      -14.560       24.530       15.843       12.283      601.709      251.014      150.864        0.700        0.050      113.087       13.368        0.014      333.102        2.198      862.082
11/15/2014  06:04:00      -58.015       -8.377       -1.596       29.290       16.683       14.868      857.884      278.336      221.056        0.240        0.068       58.617        9.592        0.027      333.060        2.126      862.068
11/15/2014  06:05:00      -38.795      -26.375       -7.349       13.291       17.523       10.023      176.664      307.055      100.456        0.142        0.029       46.912        7.144        0.023      333.117        2.223      862.064
11/15/2014  06:06:00      -30.274       -7.579       -8.254       12.511       13.694        8.608      156.520      187.533       74.097        0.073        0.021       31.209        5.192        0.028      333.496        2.850      862.046
11/15/2014  06:07:00      -18.549       -4.475       -0.522       10.321        5.679        5.006      106.523       32.254       25.062        0.026        0.008       19.081        6.382        0.112      333.803        3.357      862.033
11/15/2014  06:08:00       -6.383      -10.920        1.284       14.069       10.561        7.903      197.935      111.538       62.455        0.027        0.019       12.649        8.358        0.437      333.513        2.876      862.028
11/15/2014  06:09:00      -75.338      -38.647       -9.586       25.404       19.678       14.643      645.358      387.206      214.413        0.425        0.062       84.672        6.726        0.006      333.237        2.420      862.034
11/15/2014  06:10:00     -111.861      -22.224      -17.472       31.762       21.765       20.788     1008.842      473.716      432.157        0.761        0.096      114.048       17.792        0.024      332.970        1.980      862.052
11/15/2014  06:11:00      -41.862       -2.590      -11.710       30.790       24.042       13.920      948.037      578.007      193.771        0.181        0.086       41.942       14.973        0.127      332.962        1.965      862.059
11/15/2014  06:12:00      -43.489       -4.211      -17.340       20.081       18.290       10.542      403.234      334.526      111.144        0.153        0.042       43.692       11.959        0.075      333.091        2.179      862.063
11/15/2014  06:13:00      -52.362       -3.128      -12.099       14.766       13.080       10.363      218.034      171.078      107.389        0.170        0.025       52.455        6.201        0.014      333.113        2.215      862.071
11/15/2014  06:14:00      -79.679      -16.123      -12.510       21.829       21.313       15.153      476.500      454.226      229.603        0.396        0.058       81.294        7.529        0.009      333.004        2.036      862.082
11/15/2014  06:15:00     -110.255      -22.581      -16.548       31.422       17.553       11.941      987.330      308.105      142.591        0.719        0.072      112.543        8.407        0.006      332.821        1.734      862.100
11/15/2014  06:16:00     -150.492      -27.187      -16.008       38.830       37.251       21.258     1507.733     1387.628      451.904        1.349        0.167      152.928       18.179        0.014      332.682        1.503      862.108
11/15/2014  06:17:00     -125.604      -39.104      -16.769       40.600       40.250       21.971     1648.346     1620.059      482.731        1.067        0.188      131.550       21.416        0.027      332.655        1.458      862.122
11/15/2014  06:18:00     -106.230        2.613       -7.577       52.931       37.696       23.458     2801.719     1420.959      550.291        0.806        0.239      106.262       21.816        0.042      332.856        1.791      862.138
11/15/2014  06:19:00     -130.226       31.109       -7.525       51.783       37.627       27.921     2681.443     1415.771      779.607        1.143        0.244      133.890       23.216        0.030      333.001        2.031      862.144
11/15/2014  06:20:00     -134.531       42.761      -18.284       31.907       29.389       21.790     1018.075      863.690      474.813        1.131        0.118      141.164       17.863        0.016      333.029        2.077      862.136
11/15/2014  06:21:00     -103.541       28.627       -5.054       35.220       23.363       15.744     1240.467      545.820      247.885        0.680        0.102      107.426       13.466        0.016      333.137        2.254      862.126
11/15/2014  06:22:00      -40.436      -13.090       -0.974       23.271       16.464       12.680      541.533      271.075      160.770        0.139        0.049       42.502        9.792        0.053      333.095        2.186      862.124
11/15/2014  06:23:00      -40.200      -26.919       -5.527       15.955       14.888       10.316      254.573      221.659      106.410        0.148        0.029       48.380        9.530        0.039      333.211        2.377      862.117
11/15/2014  06:24:00      -33.280      -15.408       -7.489       10.594       11.181       10.921      112.234      125.011      119.269        0.088        0.018       36.674        5.321        0.021      333.284        2.498      862.124
11/15/2014  06:25:00      -45.169      -16.403       -9.647       14.577       14.145       10.512      212.503      200.082      110.507        0.146        0.026       48.055        5.865        0.015      333.295        2.516      862.144
11/15/2014  06:26:00      -62.128      -18.089      -11.409       13.099       12.225        9.350      171.579      149.439       87.429        0.236        0.020       64.708        4.388        0.005      333.192        2.346      862.167
11/15/2014  06:27:00      -49.068      -27.602       -2.712       30.253       13.835       14.186      915.222      191.413      201.246        0.224        0.065       56.298        7.954        0.020      333.127        2.237      862.184
11/15/2014  06:28:00     -108.443      -53.963      -18.585       29.732       21.359       17.583      883.969      456.186      309.159        0.833        0.082      121.128       13.490        0.012      332.988        2.009      862.193
11/15/2014  06:29:00     -106.632      -55.047      -14.939       23.242       32.599       17.774      540.186     1062.722      315.932        0.827        0.096      120.002       13.460        0.013      332.841        1.767      862.205
11/15/2014  06:30:00      -83.303        5.195       -8.858       32.612       34.426       20.462     1063.536     1185.143      418.707        0.486        0.133       83.465       14.556        0.030      332.751        1.617      862.216
11/15/2014  06:31:00      -64.094      -28.601       -3.318       32.073       37.710       23.416     1028.665     1422.020      548.329        0.397        0.150       70.186       19.570        0.078      332.748        1.613      862.225
11/15/2014  06:32:00      -37.965       -3.878       -8.029       27.532       29.899       15.500      757.993      893.972      240.254        0.171        0.095       38.162        8.278        0.047      333.009        2.044      862.235
11/15/2014  06:33:00      -31.123       -8.589       -9.567       33.428       30.944       21.081     1117.452      957.533      444.405        0.183        0.126       32.286       12.827        0.158      332.994        2.019      862.258
11/15/2014  06:34:00      -72.008       -5.346      -12.073       42.545       28.330       20.831     1810.071      802.589      433.928        0.420        0.152       72.206        9.867        0.019      332.848        1.779      862.296
11/15/2014  06:35:00     -107.707      -13.751      -12.734       47.830       38.095       26.144     2287.734     1451.212      683.520        0.819        0.221      108.581       16.295        0.023      333.100        2.194      862.329
11/15/2014  06:36:00     -134.748        0.379      -17.216       47.037       34.982       26.347     2212.450     1223.759      694.174        1.129        0.207      134.749       22.732        0.028      332.987        2.006      862.348
11/15/2014  06:37:00     -159.925       42.310      -16.847       41.857       32.195       20.127     1752.017     1036.513      405.097        1.542        0.160      165.427       17.930        0.012      333.041        2.096      862.358
11/15/2014  06:38:00     -149.470       46.490      -13.965       30.847       25.220       16.074      951.538      636.033      258.388        1.327        0.092      156.533        6.750        0.002      333.033        2.083      862.352
11/15/2014  06:39:00      -85.025       46.446      -17.655       24.571       28.144       16.772      603.746      792.070      281.308        0.569        0.084       96.884       11.303        0.014      333.350        2.606      862.334
11/15/2014  06:40:00      -76.933       24.039      -13.350       22.862       20.905       15.493      522.653      437.020      240.036        0.394        0.060       80.601       10.700        0.018      333.306        2.533      862.320
11/15/2014  06:41:00      -75.609      -22.528      -10.676       20.811       25.020       12.347      433.107      625.998      152.446        0.377        0.061       78.894        6.787        0.007      333.129        2.242      862.323
11/15/2014  06:42:00      -75.204      -15.948      -14.171       15.828       15.846       13.034      250.511      251.093      169.891        0.339        0.034       76.877        7.725        0.010      333.080        2.161      862.338
11/15/2014  06:43:00      -87.925      -27.464      -16.884       13.380       13.485       14.252      179.023      181.854      203.124        0.467        0.028       92.114        4.938        0.003      332.942        1.933      862.354
11/15/2014  06:44:00      -79.725      -21.427      -13.470       22.660       19.016       11.543      513.455      361.620      133.233        0.400        0.050       82.554        6.959        0.007      332.900        1.865      862.364
11/15/2014  06:45:00      -60.823      -22.485       -6.523       28.587       24.954       16.654      817.195      622.698      277.343        0.298        0.086       64.846       12.636        0.038      332.956        1.956      862.358
11/15/2014  06:46:00     -118.538       -8.814      -13.329       48.560       30.560       24.022     2358.030      933.903      577.076        0.909        0.193      118.865       26.340        0.049      333.049        2.110      862.347
11/15/2014  06:47:00     -127.682       17.835      -14.010       39.660       32.138       22.480     1572.886     1032.852      505.348        0.996        0.156      128.922       15.421        0.014      333.061        2.130      862.337
11/15/2014  06:48:00     -123.102       28.012      -18.123       44.957       32.432       23.929     2021.128     1051.845      572.603        0.996        0.182      126.249       24.996        0.039      333.083        2.166      862.328
11/15/2014  06:49:00     -119.167       18.047      -20.365       42.195       29.866       18.340     1780.446      891.953      336.353        0.897        0.150      120.525       16.246        0.018      333.204        2.365      862.349
11/15/2014  06:50:00      -97.076       15.464      -11.777       32.739       21.238       17.903     1071.865      451.043      320.507        0.582        0.092       98.300       13.490        0.019      333.269        2.472      862.364
11/15/2014  06:51:00      -80.309       15.534       -6.811       35.947       24.877       22.177     1292.198      618.873      491.836        0.457        0.120       81.797       19.589        0.057      333.341        2.592      862.369
11/15/2014  06:52:00      -86.342       -8.210       -6.633       27.704       21.889       16.178      767.539      479.122      261.740        0.454        0.075       86.732       15.350        0.031      333.227        2.404      862.372
11/15/2014  06:53:00      -90.067      -31.933       -8.208       23.531       31.286       20.167      553.731      978.840      406.714        0.557        0.097       95.560        8.004        0.007      333.098        2.191      862.403
11/15/2014  06:54:00     -133.041      -31.938       -8.401       43.184       28.803       17.726     1864.896      829.625      314.211        1.090        0.150      136.821       15.895        0.013      332.958        1.958      862.456
11/15/2014  06:55:00     -163.372       -7.432      -18.881       33.816       29.843       24.130     1143.542      890.602      582.236        1.486        0.131      163.541       21.258        0.017      332.961        1.965      862.499
11/15/2014  06:56:00     -147.549        6.842      -14.480       26.989       23.854       21.498      728.414      568.997      462.172        1.189        0.088      147.707       16.798        0.013      333.017        2.057      862.539
11/15/2014  06:57:00     -170.247       26.315      -11.403       27.323       19.751       18.801      746.536      390.115      353.484        1.565        0.075      172.269       15.222        0.008      333.109        2.209      862.571
11/15/2014  06:58:00     -141.746       35.238       -7.453       30.065       21.984       20.928      903.889      483.291      437.980        1.161        0.091      146.060       17.826        0.015      333.184        2.333      862.587
11/15/2014  06:59:00     -155.291       32.918       -9.792       21.108       18.411       15.545      445.564      338.977      241.640        1.316        0.051      158.741        8.935        0.003      333.373        2.644      862.594
11/15/2014  07:00:00     -112.273        9.369       -3.744       35.273       23.094       17.768     1244.164      533.329      315.704        0.740        0.105      112.663       16.972        0.023      333.295        2.516      862.593
11/15/2014  07:01:00      -78.859       -5.813       -3.915       32.261       27.280       17.156     1040.747      744.194      294.333        0.417        0.104       79.073       17.872        0.051      333.264        2.465      862.579
11/15/2014  07:02:00      -83.256        9.509        0.879       36.473       26.539       18.588     1330.308      704.345      345.510        0.470        0.119       83.797       13.447        0.026      333.224        2.396      862.572
11/15/2014  07:03:00      -73.484        2.413      -12.627       26.435       23.982       16.469      698.797      575.148      271.216        0.355        0.077       73.524       11.335        0.024      333.227        2.403      862.563
11/15/2014  07:04:00      -92.725      -20.008       -5.643       17.123       16.981       14.528      293.202      288.369      211.049        0.491        0.040       94.859       11.080        0.014      333.278        2.488      862.543
11/15/2014  07:05:00      -80.074      -44.331       -7.316       27.424       15.190       12.902      752.081      230.744      166.455        0.479        0.057       91.527        9.805        0.011      333.346        2.600      862.539
11/15/2014  07:06:00      -95.305      -32.805      -13.948       31.724       20.801       10.319     1006.422      432.667      106.479        0.595        0.077      100.793       10.972        0.012      333.344        2.599      862.545
11/15/2014  07:07:00      -59.913      -25.668       -1.322       19.328       21.011       12.216      373.560      441.476      149.224        0.261        0.048       65.180        9.626        0.022      333.320        2.557      862.545
11/15/2014  07:08:00      -81.231        0.602      -10.385       15.954       23.625       12.009      254.523      558.132      144.220        0.383        0.048       81.233       10.570        0.017      333.349        2.606      862.540
11/15/2014  07:09:00      -95.467       15.270       -8.684       13.153       14.517        9.023      172.994      210.743       81.412        0.494        0.023       96.681        4.458        0.002      333.466        2.799      862.548
11/15/2014  07:10:00      -71.891        3.667       -8.850       16.534       15.881       11.297      273.364      252.218      127.629        0.296        0.033       71.984        7.883        0.012      333.383        2.661      862.574
11/15/2014  07:11:00      -57.245       -0.904      -11.437       10.787       17.718       12.616      116.367      313.941      159.160        0.200        0.029       57.252        5.942        0.011      333.330        2.575      862.613
11/15/2014  07:12:00      -60.617      -10.343      -13.782       14.287       15.543       13.643      204.115      241.585      186.143        0.230        0.032       61.493        7.193        0.014      333.384        2.662      862.659
11/15/2014  07:13:00      -72.416      -32.739      -13.771       15.390       25.084       10.672      236.840      629.197      113.892        0.374        0.049       79.473        6.420        0.007      333.498        2.851      862.694
11/15/2014  07:14:00      -55.858      -25.672      -10.740       15.513       24.400       12.192      240.646      595.364      148.642        0.244        0.049       61.475        8.037        0.017      333.472        2.808      862.714
11/15/2014  07:15:00      -63.705      -21.135       -2.622       27.191       21.669       20.093      739.343      469.550      403.709        0.306        0.081       67.119       17.600        0.069      333.502        2.857      862.714
11/15/2014  07:16:00      -30.760       -2.528       -2.630       17.104       14.969       13.821      292.548      224.058      191.027        0.083        0.035       30.863       12.798        0.172      333.437        2.750      862.693
11/15/2014  07:17:00      -33.654      -18.430       -4.702       13.024       10.923        9.075      169.615      119.318       82.348        0.093        0.019       38.371        5.783        0.023      333.550        2.939      862.664
11/15/2014  07:18:00      -37.549      -14.565       -8.107       12.399       12.989        8.392      153.738      168.726       70.420        0.104        0.020       40.275        4.795        0.014      333.524        2.895      862.650
11/15/2014  07:19:00      -57.744      -41.285      -11.955       18.101       13.221       10.606      327.648      174.803      112.496        0.290        0.031       70.985        6.933        0.010      333.489        2.836      862.657
11/15/2014  07:20:00      -76.698      -45.879      -10.513       19.505       24.026       13.990      380.446      577.247      195.730        0.463        0.058       89.373        5.538        0.004      333.498        2.852      862.643
11/15/2014  07:21:00      -50.627      -29.681       -5.809       24.759       15.998       12.226      612.992      255.942      149.478        0.225        0.051       58.687       12.831        0.048      333.528        2.899      862.645
11/15/2014  07:22:00      -37.487      -25.000       -3.195       21.271       15.942       13.527      452.435      254.149      182.970        0.146        0.044       45.059       11.326        0.063      333.624        3.061      862.648
11/15/2014  07:23:00      -61.560      -39.802      -12.039       25.675       17.080       12.152      659.190      291.742      147.681        0.331        0.055       73.307       13.227        0.033      333.610        3.038      862.667
11/15/2014  07:24:00      -90.699      -49.076       -6.495       17.191       19.743       12.585      295.541      389.776      158.389        0.576        0.042      103.125        4.412        0.002      333.602        3.024      862.679
11/15/2014  07:25:00      -87.598      -40.421       -2.156       19.215       18.058       12.571      369.229      326.105      158.027        0.508        0.043       96.475        7.803        0.007      333.623        3.060      862.692
11/15/2014  07:26:00      -62.570      -34.538       -1.777       27.638       23.224       15.126      763.843      539.341      228.785        0.332        0.077       71.469       14.175        0.039      333.665        3.129      862.693
11/15/2014  07:27:00      -78.837      -17.897       -3.765       25.302       21.032       15.383      640.173      442.336      236.644        0.393        0.066       80.843       11.849        0.021      333.748        3.267      862.676
11/15/2014  07:28:00      -64.920      -24.082       -5.619       18.483       14.846       12.006      341.617      220.402      144.139        0.277        0.035       69.243        4.641        0.004      333.797        3.347      862.663
11/15/2014  07:29:00      -22.681      -28.898       -3.008       23.052       19.978       13.583      531.383      399.126      184.500        0.124        0.056       36.736       13.747        0.140      333.805        3.360      862.661
11/15/2014  07:30:00      -50.376      -38.670       -4.366       28.855       19.067       17.132      832.630      363.542      293.510        0.277        0.074       63.507       13.947        0.048      333.879        3.484      862.653
11/15/2014  07:31:00      -21.595      -22.635       -2.678       18.778       14.045       11.760      352.616      197.260      138.293        0.084        0.034       31.284        5.891        0.035      333.952        3.605      862.635
11/15/2014  07:32:00      -15.185      -25.966      -10.413        8.178        8.686        5.905       66.878       75.442       34.873        0.060        0.009       30.080        5.822        0.037      334.030        3.735      862.617
11/15/2014  07:33:00      -28.546       -2.833        1.656        5.007        8.495        9.875       25.066       72.161       97.509        0.051        0.010       28.686        7.057        0.061      334.159        3.947      862.599
11/15/2014  07:34:00       -8.843        5.177       20.782       12.998        7.099        6.297      168.946       50.401       39.650        0.040        0.013       10.247        4.269        0.174      334.595        4.671      862.589
11/15/2014  07:35:00       -4.743        5.964        6.298       12.520       10.790       10.372      156.743      116.420      107.574        0.024        0.019        7.620        6.902        0.820      334.421        4.382      862.582
11/15/2014  07:36:00      -21.238      -18.962        0.745       11.210       14.474        6.765      125.662      209.482       45.760        0.060        0.019       28.472        5.283        0.034      334.158        3.946      862.591
11/15/2014  07:37:00      -42.582      -27.433       -8.826       12.417       11.265       12.412      154.194      126.901      154.061        0.154        0.022       50.653        5.429        0.011      334.078        3.814      862.597
11/15/2014  07:38:00      -51.519      -42.703        1.571       27.527       19.816       14.995      757.751      392.667      224.864        0.293        0.069       66.916       13.262        0.039      333.940        3.585      862.605
11/15/2014  07:39:00      -70.628      -48.182       -3.876       32.758       32.291       16.470     1073.114     1042.688      271.252        0.486        0.119       85.498        9.368        0.012      333.941        3.587      862.604
11/15/2014  07:40:00      -63.157      -33.622        0.856       27.904       17.209       15.052      778.620      296.161      226.561        0.321        0.065       71.549       13.801        0.037      333.946        3.594      862.603
11/15/2014  07:41:00      -54.523      -29.399       -0.065       23.671       18.962       14.085      560.333      359.551      198.395        0.248        0.056       61.944       11.601        0.035      333.986        3.663      862.600
11/15/2014  07:42:00      -19.643      -24.340       -2.121       13.701       14.124        9.429      187.727      199.494       88.911        0.073        0.024       31.278        8.822        0.080      334.074        3.807      862.605
11/15/2014  07:43:00      -26.373      -21.345       -5.824       11.229       12.331        8.395      126.095      152.043       70.480        0.077        0.017       33.929        5.760        0.029      334.120        3.884      862.619
11/15/2014  07:44:00      -38.490      -18.547       -7.922       13.150       11.644        8.481      172.919      135.578       71.933        0.113        0.019       42.726        6.859        0.026      334.226        4.059      862.634
11/15/2014  07:45:00      -23.542        1.770        7.776        7.341        6.978        9.624       53.888       48.690       92.624        0.041        0.010       23.608        7.010        0.088      334.299        4.181      862.638
11/15/2014  07:46:00      -19.540       14.520       27.844       12.112       13.763       15.431      146.712      189.430      238.104        0.097        0.029       24.344        8.761        0.129      334.621        4.716      862.646
11/15/2014  07:47:00        1.782       -1.516       38.850       24.153       37.218       23.321      583.364     1385.166      543.874        0.201        0.126        2.340       25.191      115.905      334.730        4.895      862.658
11/15/2014  07:48:00       11.201       72.880       74.140       34.707       36.214       40.913     1204.565     1311.441     1673.874        0.756        0.209       73.735       32.618        0.196      334.498        4.509      862.679
11/15/2014  07:49:00       35.038       65.577       69.853       38.604       31.403       22.115     1490.286      986.158      489.077        0.669        0.148       74.350       18.331        0.061      334.379        4.313      862.688
11/15/2014  07:50:00       28.856       51.622       50.873       36.580       26.272       23.586     1338.072      690.210      556.313        0.433        0.129       59.140       23.062        0.152      334.396        4.340      862.684
11/15/2014  07:51:00       16.632       40.846       56.838       34.562       32.356       24.709     1194.550     1046.911      610.513        0.401        0.143       44.102       15.560        0.124      334.569        4.628      862.665
11/15/2014  07:52:00       82.706       54.720       49.354       41.687       30.218       30.531     1737.780      913.145      932.130        0.793        0.179       99.169       20.436        0.042      334.409        4.362      862.658
11/15/2014  07:53:00      129.164       75.579       11.131       48.278       37.375       35.736     2330.799     1396.892     1277.028        1.376        0.250      149.651       20.316        0.018      334.336        4.240      862.666
11/15/2014  07:54:00      134.201       67.219       14.040       64.790       43.695       46.401     4197.789     1909.236     2153.055        1.549        0.413      150.094       30.048        0.040      334.101        3.851      862.676
11/15/2014  07:55:00       84.063       36.562       11.779       50.235       44.314       41.220     2523.535     1963.724     1699.107        0.736        0.309       91.670       27.101        0.087      334.116        3.877      862.714
11/15/2014  07:56:00       24.169       -4.356       18.498       30.150       43.832       18.947      909.008     1921.286      358.994        0.207        0.159       24.559       20.150        0.673      334.221        4.050      862.752
11/15/2014  07:57:00       -2.045      -42.505        2.426       19.144       20.866       20.729      366.482      435.380      429.692        0.152        0.062       42.554       15.401        0.131      334.356        4.275      862.783
11/15/2014  07:58:00       -6.969       -5.463       -5.987       17.247       15.602       16.236      297.470      243.434      263.605        0.046        0.040        8.855       11.615        1.720      334.582        4.651      862.804
11/15/2014  07:59:00       50.354       44.905       28.096       22.039       14.010       18.629      485.702      196.277      347.022        0.318        0.051       67.468        6.303        0.009      334.347        4.261      862.795
11/15/2014  08:00:00       57.830       43.178       11.962       31.405       25.872       30.086      986.292      669.367      905.139        0.396        0.128       72.171        7.493        0.011      334.448        4.428      862.779
11/15/2014  08:01:00       13.455       36.201       33.721       34.565       26.025       31.446     1194.736      677.300      988.864        0.274        0.143       38.621       15.873        0.169      334.565        4.623      862.784
11/15/2014  08:02:00       -3.390       14.800       17.793       16.583       24.028       17.742      275.009      577.337      314.772        0.086        0.058       15.183       17.591        1.342      334.466        4.458      862.811
11/15/2014  08:03:00      -41.890       19.439       -6.090       31.017       13.535       15.909      962.075      183.185      253.110        0.178        0.070       46.181        7.741        0.028      334.384        4.321      862.839
11/15/2014  08:04:00      -84.697      -24.837      -14.064       23.789       19.455       14.502      565.895      378.512      210.304        0.457        0.058       88.264        7.791        0.008      334.335        4.241      862.865
11/15/2014  08:05:00      -13.273      -34.728        7.348       25.731       20.611       16.144      662.068      424.807      260.631        0.139        0.067       37.178       12.270        0.109      334.421        4.383      862.899
11/15/2014  08:06:00      -39.429      -46.616       -0.805       18.800       17.393       12.551      353.441      302.506      157.525        0.227        0.041       61.055       13.174        0.047      334.432        4.401      862.917
11/15/2014  08:07:00      -35.312      -25.526       -4.236       14.229       14.222        8.418      202.467      202.259       70.861        0.120        0.024       43.572        8.524        0.038      334.467        4.458      862.918
11/15/2014  08:08:00      -41.092      -31.291       -7.781        6.819        9.106        5.466       46.499       82.913       29.874        0.144        0.008       51.649        4.420        0.007      334.487        4.494      862.913
11/15/2014  08:09:00      -25.325      -19.280       -3.034       13.141       14.606        7.083      172.686      213.335       50.166        0.073        0.022       31.829        8.100        0.065      334.521        4.548      862.913
11/15/2014  08:10:00      -59.674      -19.405       -6.791       16.637       12.177       11.139      276.783      148.282      124.087        0.227        0.027       62.750        9.638        0.024      334.569        4.628      862.925
11/15/2014  08:11:00      -22.857      -24.426        9.836       26.262       23.427       16.231      689.674      548.821      263.444        0.136        0.075       33.452       17.013        0.259      334.714        4.869      862.915
11/15/2014  08:12:00      -17.578      -37.908        1.256       19.879       16.886       11.647      395.191      285.148      135.659        0.128        0.041       41.785       10.171        0.059      334.680        4.812      862.894
11/15/2014  08:13:00      -16.311      -13.115       -3.688       13.573       10.022        8.312      184.221      100.433       69.083        0.040        0.018       20.929        6.315        0.091      334.668        4.794      862.855
11/15/2014  08:14:00      -46.852       -8.818       -8.300       11.119       10.888        5.978      123.631      118.559       35.738        0.131        0.014       47.674        6.220        0.017      334.613        4.700      862.840
11/15/2014  08:15:00      -32.303      -16.691        4.500       24.561       27.093       17.355      603.219      734.051      301.208        0.149        0.082       36.360       13.342        0.135      334.743        4.919      862.837
11/15/2014  08:16:00       -7.624      -14.383       12.057       24.764       25.319       19.022      613.240      641.029      361.831        0.101        0.081       16.279       13.443        0.682      334.894        5.168      862.835
11/15/2014  08:17:00      -23.447      -15.579       -4.099       11.276       16.631        8.728      127.157      276.575       76.180        0.064        0.024       28.151        5.750        0.042      334.714        4.869      862.826
11/15/2014  08:18:00      -13.086       -6.931       -3.401        8.175       12.944        4.918       66.825      167.552       24.183        0.024        0.013       14.808        6.789        0.210      334.731        4.897      862.828
11/15/2014  08:19:00       -8.306      -14.289       -8.031        8.704       13.544        9.414       75.755      183.442       88.619        0.034        0.017       16.528        5.800        0.123      334.774        4.970      862.847
11/15/2014  08:20:00       -2.405        0.157        9.150       12.978        8.145       10.960      168.427       66.341      120.118        0.022        0.018        2.410        5.423        5.062      334.986        5.321      862.856
11/15/2014  08:21:00       18.923       45.363       18.349       18.810       28.678       26.625      353.819      822.401      708.868        0.232        0.094       49.152       13.499        0.075      335.022        5.380      862.843
11/15/2014  08:22:00       -3.354        7.877       14.937       16.310       17.921       22.091      266.012      321.152      488.001        0.069        0.054        8.562        8.931        1.088      335.175        5.635      862.842
11/15/2014  08:23:00       14.496        6.084       22.553       19.018       30.376       26.906      361.681      922.676      723.946        0.138        0.100       15.721       22.380        2.027      335.121        5.544      862.851
11/15/2014  08:24:00       60.880       73.335       66.541       35.732       34.792       26.017     1276.759     1210.470      676.868        0.834        0.158       95.312       20.594        0.047      334.834        5.068      862.857
11/15/2014  08:25:00       49.823       97.074       90.898       43.129       44.471       37.842     1860.147     1977.669     1432.024        1.272        0.263      109.113       33.910        0.097      334.808        5.023      862.846
11/15/2014  08:26:00       59.133      111.555       86.302       46.001       54.155       45.459     2116.099     2932.767     2066.517        1.525        0.356      126.259       37.979        0.090      334.745        4.920      862.847
11/15/2014  08:27:00       59.767       74.238       68.684       42.708       44.391       35.637     1823.993     1970.529     1269.968        0.943        0.253       95.307       27.587        0.084      334.886        5.155      862.870
11/15/2014  08:28:00       69.864       52.601       44.299       39.448       38.072       23.927     1556.141     1449.513      572.479        0.659        0.179       87.452       18.216        0.043      334.709        4.862      862.905
11/15/2014  08:29:00       64.235       51.176        7.003       47.591       39.878       26.247     2264.879     1590.225      688.905        0.567        0.227       82.129       13.193        0.026      334.738        4.907      862.920
11/15/2014  08:30:00      131.471      103.227       26.398       41.852       33.698       35.077     1751.598     1135.569     1230.427        1.638        0.206      167.154       23.265        0.019      334.691        4.829      862.932
11/15/2014  08:31:00      102.019       53.464       39.208       56.213       34.494       32.263     3159.941     1189.813     1040.894        1.010        0.270      115.180       28.883        0.063      334.800        5.011      862.933
11/15/2014  08:32:00       98.983       30.361       38.734       37.704       37.028       33.488     1421.577     1371.064     1121.476        0.807        0.196      103.534       22.045        0.045      334.853        5.099      862.956
11/15/2014  08:33:00       14.614        3.629       15.056       34.067       29.761       21.998     1160.528      885.718      483.917        0.149        0.127       15.058       22.476        2.228      334.978        5.308      862.989
11/15/2014  08:34:00       37.336       21.055       38.350       26.428       26.268       23.553      698.434      689.991      554.749        0.263        0.097       42.863       23.698        0.306      334.930        5.227      863.012
11/15/2014  08:35:00       50.753       52.170       53.732       23.017       21.547       12.056      529.800      464.289      145.350        0.466        0.057       72.784       10.933        0.023      334.866        5.122      863.017
11/15/2014  08:36:00       17.340        4.586       35.733       26.633       47.065       19.515      709.303     2215.069      380.849        0.245        0.165       17.936       23.772        1.757      335.056        5.437      862.994
11/15/2014  08:37:00       -0.903       32.209       45.325       24.629       26.283       16.648      606.576      690.787      277.167        0.233        0.079       32.222        8.853        0.075      335.168        5.622      862.984
11/15/2014  08:38:00       -1.049        9.398       28.800       10.264       25.385       15.380      105.357      644.409      236.530        0.095        0.049        9.456        9.041        0.914      335.229        5.724      862.983
11/15/2014  08:39:00        7.513       14.719       15.558       14.969       17.240       16.935      224.068      297.208      286.792        0.066        0.040       16.525       10.129        0.376      335.205        5.683      862.985
11/15/2014  08:40:00      -11.889      -31.345        4.012       24.695       41.316       25.544      609.834     1706.996      652.477        0.205        0.148       33.524       26.885        0.643      335.210        5.693      862.979
11/15/2014  08:41:00      -28.728       -3.003       19.530       16.435       25.491       12.843      270.102      649.780      164.934        0.115        0.054       28.884        9.288        0.103      335.208        5.690      862.954
11/15/2014  08:42:00      -38.198       -7.431       -3.033       36.638       19.464       15.269     1342.326      378.852      233.133        0.174        0.098       38.914       14.130        0.132      335.219        5.707      862.930
11/15/2014  08:43:00      -54.271        2.446        4.670       30.223       36.133       16.939      913.429     1305.588      286.925        0.274        0.125       54.326       16.019        0.087      335.298        5.838      862.929
11/15/2014  08:44:00      -62.883      -33.752        5.043       39.614       26.604       19.822     1569.307      707.779      392.898        0.389        0.133       71.368       20.560        0.083      335.193        5.665      862.930
11/15/2014  08:45:00      -50.915      -76.947       -9.147       35.030       24.547       17.036     1227.104      602.563      290.208        0.536        0.106       92.267       14.025        0.023      335.055        5.434      862.911
11/15/2014  08:46:00      -46.720      -25.418        9.073       21.926       27.705       15.717      480.732      767.589      247.014        0.220        0.075       53.187       18.209        0.117      335.190        5.659      862.892
11/15/2014  08:47:00      -79.225      -54.816       -1.704       37.951       21.546       17.937     1440.282      464.219      321.742        0.575        0.111       96.340       13.351        0.019      335.194        5.663      862.897
11/15/2014  08:48:00      -79.751      -67.981        0.882       57.205       38.573       20.038     3272.384     1487.870      401.534        0.807        0.258      104.793       22.810        0.047      335.223        5.715      862.892
11/15/2014  08:49:00      -69.782      -44.952       -3.357       33.374       25.479       19.578     1113.848      649.174      383.280        0.452        0.107       83.008        9.673        0.014      335.195        5.667      862.874
11/15/2014  08:50:00      -27.547      -17.390       -3.942       19.014       16.504       14.250      361.546      272.371      203.071        0.096        0.042       32.577        4.440        0.019      335.224        5.715      862.842
11/15/2014  08:51:00      -54.635      -15.124       -0.953       25.117       25.956       13.766      630.864      673.711      189.497        0.235        0.075       56.690       12.700        0.050      335.278        5.805      862.836
11/15/2014  08:52:00      -60.206       -9.260        2.062       30.233       27.697       23.412      914.035      767.111      548.108        0.297        0.111       60.914       19.846        0.106      335.351        5.925      862.887
11/15/2014  08:53:00      -51.559      -24.589        3.350       32.987       40.789       19.259     1088.124     1663.779      370.903        0.320        0.156       57.122       17.376        0.093      335.345        5.916      862.888
11/15/2014  08:54:00      -41.341        4.153        7.976       41.434       29.049       24.487     1716.743      843.827      599.625        0.247        0.158       41.549       30.157        0.527      335.497        6.170      862.850
11/15/2014  08:55:00        8.297       22.975       34.214       23.617       24.705       27.469      557.763      610.348      754.563        0.184        0.096       24.427       22.638        0.859      335.645        6.416      862.797
11/15/2014  08:56:00       45.635       83.259       78.861       51.548       44.683       42.829     2657.160     1996.584     1834.363        1.086        0.324       94.946       42.891        0.204      335.300        5.843      862.771
11/15/2014  08:57:00       55.229       56.941       23.143       23.632       19.117       26.273      558.477      365.462      690.283        0.422        0.081       79.326       15.807        0.040      335.228        5.721      862.786
11/15/2014  08:58:00       51.214       34.621       17.424       21.272       16.678       15.292      452.494      278.143      233.837        0.254        0.048       61.818        8.602        0.019      335.261        5.776      862.811
11/15/2014  08:59:00       -6.543       -2.763       21.834        9.955       33.329       18.349       99.093     1110.795      336.682        0.104        0.077        7.103       21.969        9.567      335.602        6.345      862.839
11/15/2014  09:00:00      -10.169       27.325       49.389       12.481       21.234       15.819      155.778      450.875      250.244        0.207        0.043       29.156       12.052        0.171      335.898        6.838      862.852
11/15/2014  09:01:00       17.413       11.840       45.074       19.321       30.530       22.523      373.300      932.099      507.299        0.214        0.091       21.057       14.492        0.474      335.757        6.604      862.870
11/15/2014  09:02:00       40.611       -3.547       36.081       29.585       34.333       21.726      875.246     1178.788      472.010        0.274        0.126       40.765       18.912        0.215      335.660        6.443      862.893
11/15/2014  09:03:00       51.889       34.703       18.802       27.784       21.057       33.492      771.946      443.383     1121.697        0.329        0.117       62.424       22.793        0.133      335.413        6.030      862.928
11/15/2014  09:04:00       14.997       15.229       22.745       14.331       16.930       13.489      205.388      286.610      181.964        0.082        0.034       21.374       11.269        0.278      335.667        6.453      862.942
11/15/2014  09:05:00      -12.185       37.286       29.614       23.227       23.693       16.321      539.485      561.347      266.375        0.189        0.068       39.226       12.663        0.104      335.755        6.600      862.950
11/15/2014  09:06:00       -5.106       21.676       42.646       12.098       21.290       11.635      146.369      453.256      135.368        0.152        0.037       22.269        9.107        0.167      336.003        7.014      862.945
11/15/2014  09:07:00       13.732       47.826       66.393       26.352       37.449       25.694      694.441     1402.395      660.157        0.482        0.138       49.758       27.698        0.310      335.927        6.886      862.931
11/15/2014  09:08:00       27.348        9.564       54.278       52.033       68.175       44.732     2707.388     4647.896     2000.937        0.657        0.468       28.972       53.206        3.373      335.878        6.805      862.890
11/15/2014  09:09:00       52.905      -52.208       -7.688       44.392       55.631       43.383     1970.650     3094.855     1882.118        0.626        0.347       74.327       38.030        0.262      335.797        6.670      862.874
11/15/2014  09:10:00       38.441      -36.983       17.886       53.778       43.896       40.891     2892.123     1926.851     1672.047        0.483        0.325       53.343       42.238        0.627      336.095        7.168      862.860
11/15/2014  09:11:00       22.193      -81.619       11.249       39.105       46.636       33.190     1529.200     2174.938     1101.567        0.604        0.240       84.582       23.274        0.076      335.989        6.990      862.861
11/15/2014  09:12:00       66.744      -93.273        0.537       49.000       43.139       31.748     2401.046     1861.010     1007.964        0.921        0.264      114.694       27.905        0.059      335.906        6.851      862.863
11/15/2014  09:13:00       35.312      -62.371        3.595       54.116       73.253       35.213     2928.514     5366.019     1239.934        0.734        0.477       71.673       39.911        0.310      335.969        6.957      862.858
11/15/2014  09:14:00       20.955      -66.538       14.336       28.277       53.347       38.256      799.588     2845.878     1463.545        0.509        0.255       69.760       33.015        0.224      336.216        7.370      862.820
11/15/2014  09:15:00      -26.468      -14.875       25.717       46.236       47.913       36.124     2137.727     2295.695     1304.936        0.366        0.287       30.362       37.466        1.523      336.271        7.462      862.772
11/15/2014  09:16:00      -15.476      -10.526       18.796       52.522       54.024       33.440     2758.555     2918.645     1118.250        0.375        0.340       18.716       30.670        2.685      336.280        7.474      862.729
11/15/2014  09:17:00       38.087       47.693       52.749       35.681       39.322       32.112     1273.111     1546.221     1031.210        0.518        0.193       61.034       27.140        0.198      335.986        6.984      862.723
11/15/2014  09:18:00       26.448       26.942       31.946       31.091       22.561       19.628      966.642      509.013      385.272        0.215        0.093       37.754       13.033        0.119      336.265        7.451      862.721
11/15/2014  09:19:00        4.387       23.087       52.249       37.472       50.681       54.563     1404.174     2568.569     2977.087        0.511        0.347       23.500       42.074        3.205      336.406        7.687      862.716
11/15/2014  09:20:00       73.262      -42.451       29.914       41.973       60.828       48.009     1761.693     3699.985     2304.847        0.791        0.388       84.672       41.673        0.242      335.936        6.903      862.721
11/15/2014  09:21:00       47.898       25.174       51.138       51.938       28.493       32.242     2697.528      811.871     1039.548        0.505        0.227       54.111       19.613        0.131      336.245        7.418      862.719
11/15/2014  09:22:00       19.493       50.529       61.787       35.385       42.365       34.190     1252.097     1794.819     1168.975        0.548        0.211       54.159       23.853        0.194      336.330        7.559      862.711
11/15/2014  09:23:00       90.631       98.956       88.710       55.818       31.219       40.685     3115.682      974.649     1655.246        1.581        0.287      134.188       17.046        0.016      335.808        6.689      862.697
11/15/2014  09:24:00       95.838      111.076       71.203       57.173       48.838       51.706     3268.706     2385.128     2673.497        1.746        0.416      146.707       38.183        0.068      335.735        6.567      862.681
11/15/2014  09:25:00      150.016      103.315       46.913       41.657       29.780       37.626     1735.328      886.852     1415.693        1.971        0.202      182.150       17.183        0.009      335.603        6.346      862.676
11/15/2014  09:26:00       54.304       51.140       53.416       67.437       47.613       29.413     4547.814     2266.989      865.149        0.805        0.384       74.594       21.998        0.087      336.045        7.082      862.706
11/15/2014  09:27:00       15.577       -1.830       22.907       32.236       33.435       20.414     1039.128     1117.874      416.731        0.167        0.129       15.684       13.464        0.737      336.248        7.423      862.744
11/15/2014  09:28:00       16.572        4.164       62.919       48.472       91.128       62.435     2349.513     8304.386     3898.167        0.940        0.728       17.087       74.232       18.873      336.124        7.215      862.775
11/15/2014  09:29:00       31.593       30.203       42.844       43.890       32.581       26.383     1926.367     1061.525      696.055        0.371        0.184       43.708       27.844        0.406      336.056        7.102      862.789
11/15/2014  09:30:00       78.027       77.198       62.927       53.584       68.393       54.042     2871.208     4677.612     2920.524        1.324        0.523      109.763       52.898        0.232      336.067        7.120      862.759
11/15/2014  09:31:00       32.493      -54.527       39.736       52.041       78.695       55.744     2708.217     6192.863     3107.365        0.881        0.600       63.474       53.314        0.705      336.153        7.264      862.732
11/15/2014  09:32:00       54.216      -37.598       18.569       38.860       36.054       43.434     1510.066     1299.909     1886.479        0.470        0.235       65.977       28.840        0.191      335.959        6.941      862.722
11/15/2014  09:33:00       26.346       -9.901       25.814       28.147       36.908       28.622      792.254     1362.197      819.215        0.222        0.149       28.145       26.815        0.908      336.256        7.435      862.685
11/15/2014  09:34:00       42.903      -15.310       19.729       34.530       37.420       25.990     1192.326     1400.233      675.473        0.287        0.163       45.553       12.394        0.074      336.148        7.255      862.670
11/15/2014  09:35:00       -9.471        1.043       36.973       11.894       24.228       15.808      141.459      586.982      249.878        0.122        0.049        9.528       14.373        2.276      336.783        8.317      862.660
11/15/2014  09:36:00       28.768       31.399       49.357       41.405       32.502       31.676     1714.360     1056.368     1003.379        0.401        0.189       42.586       29.888        0.493      336.408        7.689      862.639
11/15/2014  09:37:00       18.111       41.993       99.926       51.224       66.847       47.317     2623.935     4468.538     2238.938        1.070        0.467       45.732       30.445        0.443      336.510        7.860      862.581
11/15/2014  09:38:00      112.705      -89.133       12.287       57.093       48.793       45.058     3259.572     2380.789     2030.220        1.423        0.384      143.691       34.638        0.058      336.142        7.245      862.535
11/15/2014  09:39:00       56.682      -65.426        6.261       59.895       58.187       45.308     3587.469     3385.752     2052.858        0.828        0.451       86.565       44.944        0.270      336.223        7.379      862.523
11/15/2014  09:40:00       92.699     -160.765      -16.014       53.345       54.885       30.628     2845.692     3012.314      938.062        2.074        0.340      185.576       17.479        0.009      336.049        7.089      862.519
11/15/2014  09:41:00       62.321      -95.397        9.869       48.947       53.503       44.137     2395.791     2862.602     1948.051        1.014        0.360      113.949       32.086        0.079      336.231        7.392      862.520
11/15/2014  09:42:00       91.950      -77.851      -12.559       55.111       70.345       43.360     3037.188     4948.451     1880.106        1.227        0.493      120.481       47.325        0.154      336.233        7.397      862.526
11/15/2014  09:43:00      108.237     -121.462      -37.608       51.091       58.026       33.716     2610.315     3366.982     1136.736        1.750        0.356      162.691       32.777        0.041      336.109        7.188      862.520
11/15/2014  09:44:00       28.710       11.082       54.504       38.579       49.724       42.482     1488.327     2472.478     1804.679        0.484        0.288       30.775       25.891        0.708      336.515        7.870      862.541
11/15/2014  09:45:00       70.003      -87.048      -10.257       45.519       47.250       37.442     2071.995     2232.572     1401.904        0.914        0.285      111.704       34.426        0.095      336.132        7.229      862.548
11/15/2014  09:46:00       36.989       47.691       73.987       48.370       73.085       43.230     2339.630     5341.368     1868.876        0.933        0.477       60.354       45.325        0.564      336.431        7.729      862.525
11/15/2014  09:47:00       71.133       24.316       51.490       56.153      100.180       47.006     3153.107    10036.014     2209.577        1.185        0.770       75.174       61.908        0.678      336.128        7.220      862.494
11/15/2014  09:48:00       60.481     -102.252      -22.815       45.549       39.997       24.029     2074.690     1599.732      577.395        0.944        0.213      118.800       10.679        0.008      336.192        7.329      862.512
11/15/2014  09:49:00      -51.289       -2.205       -2.844       35.803       32.888       27.802     1281.851     1081.613      772.978        0.289        0.157       51.336       23.695        0.213      336.176        7.302      862.525
11/15/2014  09:50:00        2.961       12.132       48.856       31.186       44.784       25.235      972.588     2005.617      636.828        0.308        0.181       12.489       22.128        3.139      336.837        8.407      862.512
11/15/2014  09:51:00       15.658      -41.082        8.350       50.741       62.249       47.036     2574.675     3874.896     2212.356        0.533        0.433       43.965       37.796        0.739      336.646        8.088      862.496
11/15/2014  09:52:00       86.284      -54.134       -5.282       60.972       80.865       50.212     3717.554     6539.146     2521.278        1.159        0.639      101.860       50.012        0.241      336.363        7.614      862.463
11/15/2014  09:53:00        6.391       20.926       50.993       24.186       64.723       37.088      584.962     4189.027     1375.539        0.461        0.307       21.880       44.171        4.075      336.541        7.912      862.448
11/15/2014  09:54:00       58.734      -84.705      -18.793       67.775       67.629       34.431     4593.393     4573.615     1185.518        1.066        0.518      103.076       32.751        0.101      336.464        7.783      862.446
11/15/2014  09:55:00       26.405       13.115       64.063       44.481       65.330       44.769     1978.584     4267.984     2004.230        0.661        0.413       29.483       38.395        1.696      336.751        8.263      862.439
11/15/2014  09:56:00      -48.250        9.962       42.507       46.124       50.077       43.919     2127.390     2507.704     1928.843        0.540        0.328       49.267       44.583        0.819      336.725        8.219      862.448
11/15/2014  09:57:00      -25.405      -67.453       -0.729       49.828       53.722       36.064     2482.841     2886.080     1300.622        0.593        0.333       72.078       32.386        0.202      336.815        8.370      862.453
11/15/2014  09:58:00       -7.507        7.211       19.817       29.804       33.739       30.655      888.299     1138.294      939.746        0.173        0.148       10.409       19.335        3.450      337.058        8.776      862.453
11/15/2014  09:59:00      -13.197        2.952       45.322       21.911       42.775       30.808      480.091     1829.694      949.135        0.275        0.163       13.523       27.275        4.068      337.182        8.984      862.436
11/15/2014  10:00:00        5.221       27.819       65.827       33.752       85.957       64.902     1139.209     7388.605     4212.219        0.893        0.637       28.305       67.656        5.713      336.842        8.415      862.413
11/15/2014  10:01:00       -8.809       -3.477       55.490       41.669       46.493       29.887     1736.286     2161.636      893.257        0.398        0.240        9.470       27.381        8.359      336.977        8.641      862.395
11/15/2014  10:02:00       -6.188      -51.268       16.376       55.393       60.346       40.812     3068.330     3641.633     1665.658        0.565        0.419       51.640       39.345        0.581      336.758        8.275      862.397
11/15/2014  10:03:00        8.435       15.958       43.040       32.244       41.274       20.546     1039.661     1703.560      422.124        0.267        0.158       18.050       18.483        1.048      336.939        8.576      862.398
11/15/2014  10:04:00       -9.571       -2.905       21.878       24.382       37.982       40.124      594.465     1442.650     1609.907        0.211        0.182       10.002       33.611       11.293      336.993        8.668      862.379
11/15/2014  10:05:00       -6.398       -6.735       41.040       22.454       38.496       24.926      504.166     1481.935      621.287        0.219        0.130        9.290       26.950        8.416      337.240        9.082      862.362
11/15/2014  10:06:00       28.273      -40.208       11.237       38.945       50.509       32.992     1516.688     2551.206     1088.493        0.385        0.258       49.153       32.118        0.427      337.123        8.884      862.365
11/15/2014  10:07:00       29.643     -112.807      -24.145      116.475       95.624       43.901    13566.401     9143.927     1927.294        1.941        1.232      116.637       46.958        0.162      336.660        8.110      862.377
11/15/2014  10:08:00      100.261      -73.609       13.654       73.514      118.756       59.183     5404.298    14102.939     3502.647        1.933        1.150      124.381       74.471        0.358      336.808        8.356      862.366
11/15/2014  10:09:00      112.647     -152.543      -44.443       79.233       57.207       53.935     6277.828     3272.667     2909.029        2.519        0.623      189.628       35.332        0.035      336.568        7.954      862.359
11/15/2014  10:10:00       54.010      -22.646       32.297       74.960       99.770       72.834     5619.016     9953.992     5304.831        1.267        1.044       58.565       71.751        1.501      336.795        8.336      862.356
11/15/2014  10:11:00      140.612     -140.846      -32.506       51.947       81.321       44.030     2698.530     6613.082     1938.616        2.596        0.563      199.021       26.434        0.018      336.381        7.643      862.374
11/15/2014  10:12:00       28.079       32.948       58.394       55.199       62.952       42.526     3046.892     3963.012     1808.472        0.705        0.441       43.289       47.115        1.185      336.860        8.445      862.399
11/15/2014  10:13:00       64.913      -11.806        5.318       33.465       46.991       34.475     1119.890     2208.153     1188.534        0.445        0.226       65.978       32.305        0.240      336.462        7.781      862.390
11/15/2014  10:14:00       40.143      -25.904       34.878       46.750       44.562       35.592     2185.570     1985.794     1266.767        0.447        0.272       47.776       28.884        0.366      337.122        8.884      862.371
11/15/2014  10:15:00       27.661       47.120       40.500       43.406       51.186       33.604     1884.047     2620.039     1129.215        0.513        0.282       54.638       34.614        0.401      337.114        8.870      862.341
11/15/2014  10:16:00       30.344        3.118       34.702       24.857       14.602       23.145      617.892      213.210      535.709        0.175        0.068       30.504       14.663        0.231      337.191        8.997      862.324
11/15/2014  10:17:00       -4.758       -5.471       16.176       22.798       24.404       17.063      519.743      595.542      291.142        0.086        0.070        7.251        6.648        0.841      337.233        9.068      862.329
11/15/2014  10:18:00        6.312      -41.093       19.747       38.405       43.757       26.738     1474.950     1914.658      714.923        0.311        0.205       41.575       14.791        0.127      337.344        9.255      862.355
11/15/2014  10:19:00       71.889       -2.090       70.869       45.069       39.964       40.330     2031.221     1597.123     1626.495        0.772        0.263       71.919       27.331        0.144      336.988        8.660      862.367
11/15/2014  10:20:00       28.292      106.382        5.904       36.524       55.896       35.627     1334.019     3124.374     1269.255        0.894        0.286      110.080       32.618        0.088      336.765        8.286      862.353
11/15/2014  10:21:00       38.818       77.042       20.838       43.572       60.317       38.179     1898.546     3638.122     1457.647        0.743        0.350       86.269       32.580        0.143      336.994        8.670      862.338
11/15/2014  10:22:00      149.863      114.136       60.116       46.269       35.440       48.422     2140.801     1255.991     2344.711        2.242        0.287      188.377       28.992        0.024      336.749        8.258      862.330
11/15/2014  10:23:00      120.262      129.077       54.686       63.206       37.972       51.516     3995.059     1441.850     2653.914        2.110        0.405      176.420       47.066        0.071      336.619        8.041      862.338
11/15/2014  10:24:00      120.887       84.553       79.712       42.536       51.229       47.364     1809.333     2624.370     2243.349        1.740        0.334      147.522       21.743        0.022      336.718        8.206      862.334
11/15/2014  10:25:00       56.675       56.010       65.962       63.671       55.717       42.577     4053.969     3104.347     1812.839        0.983        0.449       79.681       39.874        0.250      337.137        8.908      862.291
11/15/2014  10:26:00       49.407       88.607       91.380       71.067       80.250       57.011     5050.512     6440.108     3250.275        1.669        0.737      101.451       66.238        0.426      337.166        8.955      862.287
11/15/2014  10:27:00       22.096      -10.922       57.558       42.276       73.801       48.638     1787.235     5446.620     2365.669        0.676        0.480       24.648       50.973        4.277      337.389        9.330      862.307
11/15/2014  10:28:00       95.144      -24.177       11.429       43.717       51.789       40.322     1911.178     2682.073     1625.898        0.799        0.311       98.168       37.948        0.149      336.946        8.589      862.348
11/15/2014  10:29:00       85.284       65.460       84.631       45.085       47.118       35.658     2032.653     2220.144     1271.493        1.212        0.276      107.510       31.786        0.087      337.141        8.915      862.335
11/15/2014  10:30:00       63.199      165.640      163.031       82.147       65.465       63.767     6748.136     4285.714     4066.280        3.655        0.755      177.287       44.521        0.063      337.230        9.062      862.273
11/15/2014  10:31:00       83.955     -100.931       47.088       93.597      135.576       93.500     8760.346    18380.876     8742.314        2.766        1.794      131.284       86.707        0.436      337.281        9.148      862.261
11/15/2014  10:32:00      117.121     -151.527       -4.584      103.263      123.185       77.705    10663.312    15174.446     6038.074        3.428        1.594      191.515       90.352        0.223      337.123        8.883      862.293
11/15/2014  10:33:00       64.144       12.894       53.388       77.790      115.926       54.826     6051.257    13438.924     3005.842        1.481        1.125       65.427       55.569        0.721      337.347        9.260      862.319
11/15/2014  10:34:00        1.893      -70.277       -1.592       39.218       76.068       55.250     1538.075     5786.389     3052.554        0.766        0.519       70.302       54.918        0.610      337.584        9.657      862.359
11/15/2014  10:35:00        8.807      -23.770       36.500       52.087       73.240       37.918     2713.075     5364.059     1437.770        0.574        0.476       25.349       38.584        2.317      337.467        9.460      862.379
11/15/2014  10:36:00       31.997       54.172       77.505       47.178       60.750       37.709     2225.808     3690.602     1421.995        0.865        0.367       62.916       26.073        0.172      337.569        9.632      862.400
11/15/2014  10:37:00      -19.778      -34.118       -2.037       35.788       25.102       17.567     1280.762      630.122      308.599        0.189        0.111       39.436        5.383        0.019      337.503        9.521      862.390
11/15/2014  10:38:00      -14.437       36.751       49.097       31.415       48.805       49.124      986.916     2381.889     2413.212        0.487        0.289       39.485       41.408        1.100      337.912       10.207      862.388
11/15/2014  10:39:00       79.091       80.269       45.461       64.153       55.203       51.291     4115.545     3047.322     2630.803        1.228        0.490      112.688       34.747        0.095      337.237        9.075      862.367
11/15/2014  10:40:00       30.112       57.734       53.603       75.275       57.954       42.538     5666.305     3358.679     1809.485        0.897        0.542       65.115       17.374        0.071      337.510        9.532      862.358
11/15/2014  10:41:00      119.577      103.423       73.421      109.405       59.714       72.503    11969.470     3565.706     5256.728        2.558        1.040      158.098       73.494        0.216      337.355        9.272      862.339
11/15/2014  10:42:00       88.758      162.729      139.758       86.693       81.081       56.951     7515.748     6574.125     3243.460        3.561        0.867      185.361       50.892        0.075      337.296        9.171      862.297
11/15/2014  10:43:00       75.933       88.577       92.779      104.204       73.241       61.876    10858.552     5364.317     3828.683        2.113        1.003      116.669       58.148        0.248      337.339        9.244      862.283
11/15/2014  10:44:00       56.144       47.711       72.652       68.277       48.352       45.112     4661.754     2337.915     2035.084        0.987        0.452       73.678       42.896        0.339      337.408        9.363      862.274
11/15/2014  10:45:00      118.717       74.792       25.098       64.244       48.908       45.103     4127.229     2392.009     2034.285        1.443        0.428      140.313       19.407        0.019      337.351        9.266      862.254
11/15/2014  10:46:00       46.366       76.856       76.523       39.992       47.608       31.692     1599.374     2266.545     1004.373        0.939        0.244       89.759       26.216        0.085      337.698        9.849      862.250
11/15/2014  10:47:00       11.413      -12.774       51.634       36.715       55.399       31.627     1347.993     3069.080     1000.240        0.419        0.271       17.130       19.993        1.362      337.979       10.319      862.242
11/15/2014  10:48:00       44.431       57.340      104.396       60.543       75.251       42.059     3665.491     5662.755     1768.950        1.363        0.555       72.540       46.303        0.407      337.471        9.467      862.251
11/15/2014  10:49:00       81.042     -100.766       17.567       45.327       79.854       52.481     2054.522     6376.673     2754.306        1.411        0.559      129.312       55.792        0.186      337.551        9.600      862.255
11/15/2014  10:50:00       48.442        1.504       55.720       36.514       35.513       41.929     1333.282     1261.142     1758.041        0.490        0.218       48.466       27.358        0.319      337.648        9.765      862.233
11/15/2014  10:51:00       32.386       61.634       84.502       44.271       57.234       40.971     1959.934     3275.755     1678.645        0.945        0.346       69.625       42.405        0.371      337.577        9.645      862.197
11/15/2014  10:52:00       59.668       59.422       48.360       53.795       45.355       40.653     2893.946     2057.095     1652.646        0.802        0.330       84.209       27.881        0.110      337.445        9.424      862.156
11/15/2014  10:53:00       30.806       74.984       73.621       64.927       57.264       58.359     4215.575     3279.169     3405.716        1.144        0.545       81.065       48.866        0.363      337.671        9.803      862.101
11/15/2014  10:54:00        0.301       12.668       38.495       35.339       55.922       37.832     1248.880     3127.292     1431.229        0.372        0.290       12.672       30.305        5.720      338.041       10.423      862.089
11/15/2014  10:55:00        8.757       57.927       72.386       26.415       46.342       27.236      697.730     2147.590      741.813        0.613        0.179       58.585       25.975        0.197      338.195       10.681      862.089
11/15/2014  10:56:00       34.572      -25.713       14.994       40.040       47.806       37.964     1603.192     2285.404     1441.303        0.370        0.266       43.086       29.185        0.459      337.917       10.215      862.088
11/15/2014  10:57:00       84.186      -94.990      -17.872       33.422       59.388       27.810     1117.002     3526.917      773.381        1.092        0.271      126.926       33.048        0.068      337.641        9.752      862.094
11/15/2014  10:58:00       45.768      -33.896       18.064       30.243       74.131       30.245      914.624     5495.368      914.766        0.545        0.366       56.953       29.377        0.266      337.985       10.328      862.099
11/15/2014  10:59:00       23.159       -3.713       40.210       41.610       54.460       35.900     1731.368     2965.877     1288.784        0.408        0.299       23.454       33.912        2.091      338.287       10.835      862.099
11/15/2014  11:00:00       25.620       40.469       55.987       57.161       44.297       41.138     3267.424     1962.209     1692.307        0.617        0.346       47.897       28.734        0.360      338.337       10.920      862.083
11/15/2014  11:01:00       97.205       58.939       30.613       62.454       41.109       44.062     3900.533     1689.964     1941.495        1.069        0.377      113.678       23.959        0.044      337.879       10.152      862.078
11/15/2014  11:02:00       20.410       28.130      -12.252       51.165       49.338       27.698     2617.906     2434.277      767.153        0.359        0.291       34.754       27.800        0.640      337.554        9.607      862.075
11/15/2014  11:03:00        9.381      -22.465        4.981       23.212       34.325       25.732      538.777     1178.211      662.116        0.150        0.119       24.345       17.503        0.517      338.103       10.527      862.064
11/15/2014  11:04:00       84.973      -83.141       -2.889       56.429       60.794       34.651     3184.246     3695.879     1200.669        1.111        0.404      118.882       40.546        0.116      337.804       10.025      862.071
11/15/2014  11:05:00       42.596       18.737       47.534       48.798       75.421       52.368     2381.253     5688.286     2742.390        0.762        0.541       46.535       52.691        1.282      338.030       10.405      862.085
11/15/2014  11:06:00       18.876       39.782       81.807       82.697       77.558       63.850     6838.845     6015.223     4076.821        1.278        0.847       44.033       65.385        2.205      338.144       10.594      862.069
11/15/2014  11:07:00       48.610      -84.015       16.986       58.757       85.025       51.716     3452.384     7229.303     2674.497        1.153        0.668       97.064       45.639        0.221      338.092       10.509      862.059
11/15/2014  11:08:00       48.832       26.991       71.612       70.927      111.779       65.952     5030.653    12494.631     4349.615        1.505        1.094       55.795       68.593        1.511      338.136       10.582      862.056
11/15/2014  11:09:00       52.807       31.690       34.911       42.461       48.826       32.017     1802.918     2383.989     1025.111        0.511        0.261       61.586       31.495        0.262      337.996       10.348      862.048
11/15/2014  11:10:00       46.038      -62.083       -6.876       72.690       76.176       51.349     5283.819     5802.739     2636.673        0.987        0.686       77.290       53.603        0.481      337.995       10.345      862.037
11/15/2014  11:11:00       72.129      -73.561       -7.228       59.869       79.681       50.389     3584.260     6349.073     2539.043        1.157        0.624      103.023       53.283        0.267      337.893       10.176      861.997
11/15/2014  11:12:00       35.286       18.310       79.316       56.780       95.016       55.818     3223.972     9028.094     3115.685        1.162        0.768       39.754       55.647        1.959      338.253       10.778      861.948
11/15/2014  11:13:00       -6.629       80.624      119.158       41.060       53.807       38.101     1685.895     2895.190     1451.710        1.339        0.302       80.896       32.235        0.159      338.348       10.937      861.933
11/15/2014  11:14:00       62.769       71.720       45.584       74.974       46.704       38.892     5621.155     2181.262     1512.564        1.024        0.466       95.308       34.296        0.129      338.321       10.892      861.933
11/15/2014  11:15:00       85.475       69.944       30.719       63.619       39.604       48.497     4047.392     1568.456     2351.967        1.055        0.398      110.445       42.806        0.150      337.905       10.194      861.944
11/15/2014  11:16:00       83.711      113.452      130.200       67.748       75.026       50.647     4589.729     5628.968     2565.159        2.480        0.639      140.992       53.000        0.141      337.776        9.976      861.928
11/15/2014  11:17:00      106.353       63.913      101.892       81.214       63.697       46.440     6595.717     4057.356     2156.656        1.929        0.640      124.079       43.998        0.126      337.753        9.938      861.910
11/15/2014  11:18:00       90.727       67.926       91.555      105.283       71.874       67.827    11084.456     5165.811     4600.563        2.104        1.043      113.337       65.526        0.334      337.899       10.182      861.893
11/15/2014  11:19:00      148.002       97.630        1.695       74.226       63.632       45.580     5509.520     4049.073     2077.518        2.154        0.582      177.303       38.949        0.048      337.828       10.064      861.881
11/15/2014  11:20:00       55.779       75.044       63.499       48.127       58.499       50.599     2316.256     3422.077     2560.288        1.054        0.415       93.504       43.996        0.221      338.012       10.374      861.872
11/15/2014  11:21:00       74.630      105.159       95.829       83.578       55.688       47.348     6985.235     3101.207     2241.866        1.907        0.616      128.950       38.679        0.090      338.017       10.381      861.842
11/15/2014  11:22:00       52.729       62.250       60.168       79.450       47.964       51.157     6312.234     2300.511     2617.049        1.075        0.561       81.580       47.828        0.344      338.026       10.399      861.797
11/15/2014  11:23:00       75.631       80.020       79.106       59.139       41.540       42.150     3497.365     1725.608     1776.610        1.269        0.350      110.106       37.151        0.114      338.092       10.509      861.762
11/15/2014  11:24:00       76.417       71.562       45.816       60.220       45.131       35.035     3626.471     2036.810     1227.420        0.997        0.345      104.693       25.748        0.060      337.896       10.179      861.742
11/15/2014  11:25:00       72.320       51.449       35.798       56.229       38.339       41.374     3161.652     1469.909     1711.795        0.775        0.317       88.753       35.966        0.164      337.943       10.259      861.743
11/15/2014  11:26:00       65.379       53.331       32.454       60.667       40.796       40.479     3680.532     1664.289     1638.572        0.758        0.349       84.372       25.877        0.094      337.983       10.325      861.751
11/15/2014  11:27:00      -22.640      -22.864       10.301       49.193       50.695       32.509     2419.993     2569.939     1056.855        0.359        0.302       32.176       36.065        1.256      338.043       10.426      861.760
11/15/2014  11:28:00       23.393        7.575       49.220       48.778       77.939       42.179     2379.245     6074.483     1779.027        0.663        0.512       24.589       51.227        4.340      338.347       10.938      861.756
11/15/2014  11:29:00       34.724      -43.517        5.926       35.210       53.149       34.998     1239.778     2824.853     1224.881        0.421        0.264       55.673       34.029        0.374      338.033       10.410      861.745
11/15/2014  11:30:00       34.002      -39.499        5.204       22.182       50.494       27.188      492.027     2549.622      739.193        0.326        0.189       52.119       31.009        0.354      337.959       10.286      861.710
11/15/2014  11:31:00       41.726       37.818       37.065       25.894       20.758       19.004      670.524      430.875      361.137        0.300        0.073       56.314        8.891        0.025      338.242       10.760      861.683
11/15/2014  11:32:00       20.561       35.620       74.705       41.373       82.252       62.300     1711.752     6765.367     3881.313        0.981        0.618       41.129       63.225        2.363      338.565       11.302      861.681
11/15/2014  11:33:00       24.137      110.494      124.459       36.821       45.185       24.396     1355.770     2041.680      595.164        1.614        0.200      113.099       24.572        0.047      338.270       10.806      861.677
11/15/2014  11:34:00       73.318       99.022       81.180       48.476       53.908       52.848     2349.889     2906.103     2792.910        1.491        0.402      123.211       45.873        0.139      338.234       10.747      861.666
11/15/2014  11:35:00       26.766       68.237       73.782       44.924       33.026       36.701     2018.191     1090.738     1346.941        0.764        0.223       73.299       33.553        0.210      338.417       11.054      861.646
11/15/2014  11:36:00       27.994      -24.385       19.115       23.745       37.053       26.388      563.805     1372.896      696.303        0.219        0.132       37.125       23.930        0.415      338.151       10.606      861.622
11/15/2014  11:37:00        8.542       53.785       17.976       33.440       27.106       36.863     1118.240      734.742     1358.905        0.325        0.161       54.459       19.256        0.125      338.542       11.264      861.607
11/15/2014  11:38:00      -21.580       28.094      -11.647       19.472       29.529       22.713      379.176      871.987      515.869        0.158        0.088       35.425       10.697        0.091      338.685       11.505      861.610
11/15/2014  11:39:00      -49.479       16.574       -6.785       29.105       25.695       16.697      847.105      660.225      278.774        0.228        0.089       52.181       10.113        0.038      338.790       11.681      861.597
11/15/2014  11:40:00      -54.289      -48.014        3.921       40.912       35.077       23.903     1673.790     1230.427      571.358        0.437        0.174       72.475       20.536        0.080      338.791       11.682      861.581
11/15/2014  11:41:00      -26.030      -53.293       12.868       44.843       42.887       26.154     2010.865     1839.311      684.030        0.411        0.227       59.310       26.992        0.207      338.732       11.584      861.582
11/15/2014  11:42:00      -55.569      -24.232       -0.021       23.663       20.817       12.642      559.938      433.362      159.809        0.241        0.058       60.623       10.654        0.031      338.623       11.401      861.572
11/15/2014  11:43:00      -19.264        8.194       13.605       32.336       30.809       22.339     1045.587      949.174      499.043        0.156        0.125       20.934       17.056        0.664      338.869       11.814      861.561
11/15/2014  11:44:00      -15.576       -6.392       13.072       58.097       36.147       32.728     3375.304     1306.571     1071.132        0.310        0.288       16.836       24.456        2.110      339.022       12.071      861.538
11/15/2014  11:45:00     -102.922        1.567      -13.978       34.734       65.563       22.620     1206.470     4298.547      511.658        0.840        0.301      102.934       28.618        0.077      338.570       11.311      861.536
11/15/2014  11:46:00      -21.977       75.859       -7.636       72.319       47.894       39.034     5229.969     2293.861     1523.684        0.767        0.452       78.979       45.213        0.328      338.657       11.457      861.522
11/15/2014  11:47:00       21.584      120.466      -17.111       50.770      100.689       35.976     2577.642    10138.254     1294.248        1.464        0.701      122.385       47.445        0.150      338.525       11.234      861.526
11/15/2014  11:48:00      130.973       68.322       25.948       53.234       48.035       35.969     2833.864     2307.396     1293.744        1.446        0.322      147.722       19.232        0.017      338.365       10.966      861.512
11/15/2014  11:49:00       31.844      -48.134       26.485       67.051       53.335       30.641     4495.873     2844.674      938.898        0.615        0.414       57.714       23.892        0.171      338.618       11.392      861.512
11/15/2014  11:50:00       -9.333       48.039        4.119       34.512       65.956       25.626     1191.048     4350.214      656.688        0.430        0.310       48.937       30.831        0.397      338.830       11.748      861.545
11/15/2014  11:51:00      -29.839      121.982      -20.462       35.743      146.384       30.746     1277.578    21428.344      945.287        1.992        1.183      125.578       48.078        0.147      338.543       11.263      861.576
11/15/2014  11:52:00      -31.631       81.236        5.412      127.093      104.038       69.338    16152.515    10823.975     4807.745        1.970        1.589       87.177       45.012        0.267      338.794       11.686      861.524
11/15/2014  11:53:00       69.281       63.252       16.307       41.059       57.253       35.303     1685.808     3277.900     1246.333        0.764        0.311       93.812       31.291        0.111      338.642       11.431      861.532
11/15/2014  11:54:00     -103.430      257.370      -43.136       79.784       84.540       41.755     6365.545     7147.059     1743.516        4.702        0.763      277.375       37.598        0.018      338.462       11.126      861.510
11/15/2014  11:55:00       55.404      156.615       11.721       89.930      112.277       56.894     8087.469    12606.206     3236.928        2.583        1.197      166.126       62.562        0.142      338.635       11.417      861.467
11/15/2014  11:56:00      -12.593      198.595      -27.219      101.358      150.637       55.509    10273.350    22691.494     3081.299        3.819        1.802      198.994       61.163        0.094      338.720       11.560      861.438
11/15/2014  11:57:00     -158.331      190.708      -37.940       90.306      114.859       47.086     8155.214    13192.499     2217.072        4.322        1.178      247.867       45.743        0.034      338.644       11.433      861.440
11/15/2014  11:58:00     -125.717      161.794      -30.177       88.581       83.023       47.554     7846.622     6892.738     2261.346        2.994        0.850      204.895       51.743        0.064      338.705       11.535      861.464
11/15/2014  11:59:00     -110.925      233.131      -39.602       65.755       75.520       48.352     4323.742     5703.339     2337.917        4.029        0.618      258.175       34.574        0.018      338.659       11.457      861.459
11/15/2014  12:00:00     -138.873      179.809      -38.271       57.616       77.451       45.019     3319.655     5998.710     2026.711        3.221        0.567      227.193       34.761        0.023      338.625       11.401      861.470
11/15/2014  12:01:00     -233.126      170.482      -44.833      133.452      140.511       69.767    17809.400    19743.226     4867.414        6.391        2.121      288.811       66.318        0.053      338.537       11.253      861.472
11/15/2014  12:02:00      -14.471      247.143      -20.301       74.696      154.009       68.836     5579.525    23718.831     4738.333        4.786        1.702      247.566       88.670        0.128      338.551       11.277      861.446
11/15/2014  12:03:00      -28.928      257.364      -31.134       56.069      121.799       50.186     3143.719    14834.878     2518.655        4.427        1.025      258.984       61.206        0.056      338.586       11.336      861.419
11/15/2014  12:04:00      -55.280      142.894      -19.702       80.563       99.280       35.745     6490.394     9856.597     1277.680        2.074        0.881      153.215       32.335        0.045      338.654       11.452      861.409
11/15/2014  12:05:00     -224.550      190.561      -37.544      102.575      205.163       61.464    10521.627    42091.887     3777.874        7.226        2.820      294.510       77.219        0.069      338.641       11.428      861.392
11/15/2014  12:06:00     -142.402      252.122      -29.212       92.375      112.744       63.740     8533.096    12711.247     4062.769        5.500        1.265      289.558       60.245        0.043      338.506       11.200      861.431
11/15/2014  12:07:00     -187.545      257.776      -51.679       99.077       84.850       61.118     9816.264     7199.535     3735.429        6.252        1.038      318.781       61.477        0.037      338.482       11.159      861.430
11/15/2014  12:08:00     -203.554      304.660      -44.378      114.571      135.586       68.240    13126.526    18383.430     4656.751        8.619        1.808      366.404       72.245        0.039      338.405       11.030      861.440
11/15/2014  12:09:00     -184.073      217.213      -31.996      104.789      120.544       71.144    10980.639    14530.884     5061.398        5.632        1.529      284.718       71.465        0.063      338.526       11.234      861.433
11/15/2014  12:10:00      -97.349      199.834      -26.116       62.702       86.758       46.325     3931.489     7526.933     2145.970        3.185        0.680      222.284       48.180        0.047      338.441       11.090      861.413
11/15/2014  12:11:00      -45.419      216.002      -19.490       57.873      137.482       46.950     3349.261    18901.214     2204.275        3.677        1.223      220.726       59.182        0.072      338.650       11.444      861.405
11/15/2014  12:12:00      -79.646      255.212      -29.239       80.613      119.548       62.005     6498.418    14291.650     3844.629        4.848        1.232      267.352       66.473        0.062      338.606       11.370      861.408
11/15/2014  12:13:00      -56.328      239.443      -40.808       75.912      101.358       49.284     5762.625    10273.488     2428.932        4.031        0.923      245.979       45.405        0.034      338.509       11.205      861.409
11/15/2014  12:14:00      -65.705      336.579      -29.589       98.045      124.186       60.929     9612.808    15422.087     3712.328        7.361        1.437      342.932       65.609        0.037      338.520       11.223      861.404
11/15/2014  12:15:00      -41.089      271.517      -36.836       84.392       92.780       52.434     7122.057     8608.190     2749.336        4.762        0.924      274.609       51.398        0.035      338.525       11.231      861.409
11/15/2014  12:16:00     -118.875      296.444      -51.009      104.306       77.386       40.773    10879.750     5988.534     1662.469        6.157        0.927      319.390       48.441        0.023      338.349       10.938      861.436
11/15/2014  12:17:00      -39.044      351.568      -48.238       73.414       95.076       56.239     5389.657     9039.508     3162.872        7.252        0.880      353.730       50.709        0.021      338.384       10.996      861.418
11/15/2014  12:18:00     -134.719      346.193      -34.730      136.515      211.658       63.768    18636.429    44799.271     4066.317       10.334        3.375      371.482       74.480        0.040      338.428       11.069      861.380
11/15/2014  12:19:00      -85.669       26.668       24.963      100.018       83.685       60.235    10003.554     7003.130     3628.253        1.465        1.032       89.723       49.260        0.301      338.768       11.643      861.337
11/15/2014  12:20:00     -173.629      160.154      -43.076       70.714       91.143       54.025     5000.509     8307.121     2918.660        3.694        0.811      236.212       45.430        0.037      338.613       11.380      861.330
11/15/2014  12:21:00     -133.521      230.932      -38.129       99.033      136.073       47.563     9807.484    18515.940     2262.242        5.159        1.529      266.754       47.338        0.031      338.518       11.221      861.325
11/15/2014  12:22:00      -77.308      171.291      -15.288       62.860       74.344       51.087     3951.354     5527.056     2609.902        2.382        0.604      187.928       35.821        0.036      338.701       11.529      861.293
11/15/2014  12:23:00     -169.888      174.063      -40.775      110.849      132.101       59.284    12287.405    17450.601     3514.569        4.703        1.663      243.228       60.757        0.062      338.742       11.596      861.271
11/15/2014  12:24:00     -122.655      225.259      -46.317      123.827      112.154       54.229    15333.056    12578.561     2940.803        4.939        1.543      256.488       43.503        0.029      338.656       11.453      861.249
11/15/2014  12:25:00      -35.628      348.210      -49.870       77.031      101.310       47.535     5933.711    10263.632     2259.606        7.173        0.923      350.028       38.879        0.012      338.569       11.306      861.229
11/15/2014  12:26:00     -109.443      259.913      -33.749       69.260       85.059       56.019     4796.886     7235.052     3138.182        4.792        0.759      282.015       45.138        0.026      338.688       11.506      861.242
11/15/2014  12:27:00     -111.272      290.875      -36.516      115.194       98.729       54.416    13269.677     9747.513     2961.128        6.215        1.299      311.432       56.592        0.033      338.549       11.272      861.213
11/15/2014  12:28:00      -59.583      306.592      -33.746      123.634      105.205       66.891    15285.353    11068.102     4474.369        6.475        1.541      312.328       58.961        0.036      338.621       11.392      861.170
11/15/2014  12:29:00      -51.648      378.707      -50.753       92.159      106.649       55.823     8493.207    11374.052     3116.255        8.582        1.149      382.213       50.316        0.017      338.571       11.309      861.130
11/15/2014  12:30:00      -54.002      290.163      -31.021       54.947       88.103       54.813     3019.206     7762.162     3004.475        5.093        0.689      295.145       49.484        0.028      338.693       11.515      861.129
11/15/2014  12:31:00      -37.053      300.306      -38.022       87.765       73.348       42.684     7702.608     5379.923     1821.895        5.395        0.745      302.583       27.377        0.008      338.757       11.623      861.074
11/15/2014  12:32:00     -137.854      206.088      -21.053      119.397      109.472       60.069    14255.721    11984.203     3608.233        4.588        1.492      247.943       66.374        0.072      338.911       11.883      861.053
11/15/2014  12:33:00     -115.666      140.215      -12.632       82.341       94.412       67.646     6780.093     8913.592     4575.970        2.673        1.013      181.766       62.895        0.120      338.916       11.890      861.041
11/15/2014  12:34:00     -145.974      220.060      -28.990      134.684      133.451       67.467    18139.707    17809.245     4551.842        5.553        2.025      264.073       71.888        0.074      338.862       11.801      861.045
11/15/2014  12:35:00     -203.865      340.540      -56.268      157.438      162.328       73.231    24786.672    26350.299     5362.844       10.859        2.825      396.898       74.280        0.035      338.780       11.659      861.006
11/15/2014  12:36:00      -93.222      329.122      -30.706       89.982      142.841       73.312     8096.715    20403.604     5374.604        7.591        1.694      342.070       76.190        0.050      338.854       11.785      861.008
11/15/2014  12:37:00     -125.416      321.209      -30.073       99.509      144.648       75.727     9902.104    20923.011     5734.530        7.818        1.828      344.825       66.810        0.038      338.806       11.703      861.002
11/15/2014  12:38:00      -63.606      365.433      -35.543       95.986      145.155       59.572     9213.399    21070.028     3548.801        8.633        1.692      370.927       68.389        0.034      338.782       11.665      860.977
11/15/2014  12:39:00     -106.361      324.859      -33.465       91.190      149.251       65.368     8315.662    22275.982     4272.988        7.641        1.743      341.827       80.221        0.055      338.783       11.665      860.983
11/15/2014  12:40:00      -55.933      379.465      -51.606       86.986      116.369       50.574     7566.482    13541.851     2557.774        8.672        1.183      383.565       55.413        0.021      338.765       11.636      860.974
11/15/2014  12:41:00      -89.387      481.157      -54.654      110.027      123.471       60.890    12105.887    15245.141     3707.541       13.677        1.553      489.389       55.187        0.013      338.775       11.654      860.962
11/15/2014  12:42:00      -92.775      455.229      -57.987      103.996      117.486       54.881    10815.135    13803.034     3011.969       12.341        1.382      464.586       50.239        0.012      338.768       11.641      860.978
11/15/2014  12:43:00      -85.180      211.267      -16.044       82.962      186.573       66.294     6882.638    34809.312     4394.840        4.911        2.304      227.793       76.570        0.113      338.928       11.909      860.992
11/15/2014  12:44:00      -86.127      407.252      -55.621       99.526      126.618       50.225     9905.408    16032.239     2522.509       10.241        1.423      416.259       56.141        0.018      338.731       11.577      861.002
11/15/2014  12:45:00     -101.266      269.062      -50.817      117.118       83.905       46.185    13716.661     7039.991     2133.068        5.406        1.144      287.488       50.482        0.031      338.703       11.531      861.002
11/15/2014  12:46:00      -75.880      229.730      -24.467       66.242       96.576       48.780     4387.946     9326.854     2379.505        3.761        0.805      241.937       49.946        0.043      338.890       11.845      860.976
11/15/2014  12:47:00      -74.762      215.468      -17.871       87.912      142.668       68.235     7728.475    20354.172     4656.074        4.253        1.637      228.070       77.673        0.116      338.936       11.925      860.973
11/15/2014  12:48:00      -62.738      101.946      -12.488       94.051       63.139       46.583     8845.522     3986.504     2169.996        1.474        0.750      119.704       58.090        0.235      338.886       11.842      860.961
11/15/2014  12:49:00      -24.936      168.434      -14.977       68.151       95.333       41.447     4644.515     9088.432     1717.826        2.233        0.773      170.270       43.512        0.065      338.965       11.972      860.938
11/15/2014  12:50:00     -110.096      211.204      -21.550       95.160      115.837       63.646     9055.474    13418.282     4050.868        4.185        1.326      238.177       66.913        0.079      339.007       12.042      860.906
11/15/2014  12:51:00       -4.189      253.287      -38.559       75.937      101.237       52.531     5766.500    10249.001     2759.521        4.221        0.939      253.322       50.088        0.039      339.028       12.077      860.862
11/15/2014  12:52:00     -130.763      242.599        1.927      238.434      264.807      118.050    56850.950    70122.967    13935.784       10.840        7.045      275.596       95.284        0.120      339.262       12.471      860.793
11/15/2014  12:53:00     -501.172     -101.926      -26.173      196.415      150.884       73.576    38578.892    22765.873     5413.422       16.449        3.338      511.432       63.042        0.015      339.190       12.348      860.824
11/15/2014  12:54:00     -445.252     -162.291      -22.446      223.718      132.908       77.394    50049.952    17664.450     5989.848       14.938        3.685      473.907       76.147        0.026      339.133       12.255      860.874
11/15/2014  12:55:00     -328.159     -139.167      -10.928      165.387       98.572       63.934    27352.798     9716.487     4087.591        8.416        2.058      356.449       74.649        0.044      339.198       12.365      860.884
11/15/2014  12:56:00     -396.360     -132.135      -10.845      202.199      141.244       81.931    40884.586    19949.924     6712.713       12.110        3.377      417.804       92.331        0.049      339.223       12.406      860.880
11/15/2014  12:57:00     -265.419       -9.725       -6.947      162.004      120.101       62.147    26245.225    14424.137     3862.292        5.755        2.227      265.598       69.314        0.068      339.544       12.946      860.889
11/15/2014  12:58:00      -66.019      -53.481       12.160      152.075       82.463       55.961    23126.782     6800.087     3131.578        2.021        1.653       84.963       72.443        0.727      339.518       12.905      860.870
11/15/2014  12:59:00     -366.412     -118.087      -22.943      186.159      128.607       61.773    34655.341    16539.778     3815.924       10.186        2.751      384.971       75.566        0.039      339.410       12.721      860.894
11/15/2014  13:00:00     -222.461      -62.546      -13.985      159.545      136.211       64.923    25454.540    18553.463     4214.940        5.090        2.411      231.087       72.368        0.098      339.428       12.754      860.860
11/15/2014  13:01:00     -292.896      110.667      -45.970      137.386      162.050       80.161    18875.008    26260.294     6425.837        7.584        2.578      313.106       73.057        0.054      339.330       12.587      860.890
11/15/2014  13:02:00     -326.017      248.388      -51.932      213.544      159.547       98.932    45601.116    25455.171     9787.557       12.575        4.042      409.858      113.889        0.077      339.175       12.324      860.901
11/15/2014  13:03:00     -362.375      -84.767      -44.084      148.783      209.623       96.443    22136.233    43941.987     9301.261       10.790        3.769      372.157       78.872        0.045      339.233       12.423      860.902
11/15/2014  13:04:00     -135.050       13.346      -41.287      143.709      199.696       87.483    20652.248    39878.315     7653.258        4.414        3.409      135.708       57.476        0.179      339.319       12.567      860.899
11/15/2014  13:05:00     -282.716       58.895      -37.506      204.241      194.426      122.375    41714.553    37801.468    14975.673        8.963        4.725      288.785      128.941        0.199      339.344       12.611      860.915
11/15/2014  13:06:00     -119.331      -35.036       10.318      121.186       71.029       77.917    14685.938     5045.109     6071.025        2.068        1.290      124.368       74.745        0.361      339.513       12.898      860.871
11/15/2014  13:07:00     -254.029      -79.544      -29.844      152.758      135.950       61.120    23334.922    18482.463     3735.621        5.864        2.278      266.192       44.639        0.028      339.443       12.776      860.859
11/15/2014  13:08:00     -226.964      -85.599      -18.078      147.583      145.190       68.788    21780.774    21080.266     4731.786        5.337        2.380      242.570       48.577        0.040      339.463       12.810      860.845
11/15/2014  13:09:00     -174.312       -6.291       -9.961      134.926      143.608       66.943    18205.149    20623.189     4481.374        3.691        2.165      174.425       70.704        0.164      339.651       13.128      860.859
11/15/2014  13:10:00     -149.940      106.911      -12.545       97.703      141.987       72.615     9545.779    20160.231     5273.006        3.452        1.749      184.152       58.094        0.100      339.683       13.184      860.905
11/15/2014  13:11:00     -156.947      255.038      -21.174       89.140       97.244       62.262     7945.937     9456.382     3876.512        5.570        1.064      299.461       54.330        0.033      339.566       12.983      860.902
11/15/2014  13:12:00     -124.336      149.158      -10.184      122.841      117.154       51.501    15089.875    13725.075     2652.398        3.463        1.573      194.184       46.880        0.058      339.551       12.957      860.921
11/15/2014  13:13:00     -196.185      166.057      -36.845      107.963      155.513       60.603    11656.030    24184.201     3672.675        5.346        1.976      257.028       50.762        0.039      339.505       12.880      860.918
11/15/2014  13:14:00     -151.870      132.746      -14.242      134.046      120.692       63.990    17968.431    14566.613     4094.767        3.875        1.831      201.708       63.562        0.099      339.487       12.851      860.922
11/15/2014  13:15:00     -124.930      112.402      -12.102       92.496      155.412       55.813     8555.438    24153.028     3115.112        3.210        1.791      168.053       43.295        0.066      339.573       12.997      860.921
11/15/2014  13:16:00     -131.880       14.252        6.152       82.762       82.685       44.223     6849.598     6836.844     1955.663        1.663        0.782      132.648       45.982        0.120      340.021       13.754      860.900
11/15/2014  13:17:00     -259.692      -33.493        5.610      225.138      169.570       60.066    50687.025    28753.822     3607.977        7.580        4.152      261.843       69.846        0.071      339.480       12.840      860.908
11/15/2014  13:18:00     -116.734      103.018      -12.239      108.628      152.482       67.380    11800.034    23250.681     4540.112        3.198        1.980      155.690       54.885        0.124      339.607       13.054      860.927
11/15/2014  13:19:00     -253.140      107.688      -23.786      163.399      124.245       81.217    26699.275    15436.876     6596.224        6.248        2.437      275.094       84.314        0.094      339.447       12.785      860.945
11/15/2014  13:20:00     -217.176      153.467      -30.999      173.932      144.967       71.483    30252.421    21015.560     5109.808        6.402        2.819      265.928       71.292        0.072      339.428       12.752      860.956
11/15/2014  13:21:00     -270.266       63.183      -33.432      139.314      186.025       82.228    19408.482    34605.199     6761.508        6.945        3.039      277.553       78.477        0.080      339.306       12.546      860.988
11/15/2014  13:22:00     -162.033       15.004      -13.480      155.566      122.568       70.814    24200.906    15022.965     5014.556        3.544        2.212      162.726       81.735        0.252      339.482       12.844      860.988
11/15/2014  13:23:00     -244.468      104.022      -46.229      134.414       93.828       73.559    18067.118     8803.716     5410.994        5.250        1.614      265.678       60.661        0.052      339.230       12.419      860.998
11/15/2014  13:24:00      -55.985      163.688      -13.905       92.988      129.237       69.035     8646.839    16702.092     4765.829        3.011        1.506      172.997       59.835        0.120      339.293       12.526      860.956
11/15/2014  13:25:00     -193.058      262.700      -42.561      110.721      208.259       83.606    12259.205    43371.915     6989.975        8.534        3.131      326.011       91.847        0.079      339.317       12.565      860.908
11/15/2014  13:26:00     -168.144      259.931      -41.923       98.346       88.096       59.950     9671.881     7760.886     3593.961        5.931        1.051      309.575       46.282        0.022      339.234       12.424      860.888
11/15/2014  13:27:00     -183.378      229.745      -41.752      129.466      187.039       74.311    16761.457    34983.637     5522.162        7.270        2.863      293.956       68.880        0.055      339.324       12.577      860.845
11/15/2014  13:28:00     -194.345       66.357      -18.582      127.725      152.540       79.601    16313.616    23268.484     6336.285        4.421        2.296      205.361       74.664        0.132      339.356       12.631      860.846
11/15/2014  13:29:00     -305.628      -83.078      -17.160      148.576      139.759       80.364    22074.843    19532.518     6458.424        7.433        2.403      316.718       63.233        0.040      339.484       12.846      860.828
11/15/2014  13:30:00     -323.982      -79.858      -22.291      144.645      137.171       73.822    20922.300    18815.951     5449.736        7.850        2.259      333.679       71.267        0.046      339.177       12.329      860.813
11/15/2014  13:31:00     -192.540     -103.835      -22.371      149.968       85.805       61.604    22490.362     7362.413     3795.098        4.099        1.682      218.754       64.815        0.088      339.435       12.764      860.799
11/15/2014  13:32:00      -65.924     -107.780       17.274      110.644       88.562       47.057    12242.067     7843.181     2214.363        1.928        1.115      126.343       49.034        0.151      339.667       13.157      860.797
11/15/2014  13:33:00     -178.309      -19.957      -26.295      139.909       82.927       53.950    19574.642     6876.958     2910.600        3.112        1.468      179.423       74.562        0.173      339.562       12.980      860.802
11/15/2014  13:34:00     -105.446       67.249        4.891      112.812       82.042       71.939    12726.478     6730.831     5175.161        2.014        1.232      125.065       63.766        0.260      339.598       13.040      860.799
11/15/2014  13:35:00     -225.236       61.671      -37.088      132.623      173.128       92.639    17588.918    29973.471     8582.061        5.602        2.807      233.527       88.701        0.144      339.635       13.100      860.803
11/15/2014  13:36:00     -272.232      -16.564      -32.843      122.039      108.947       73.453    14893.480    11869.360     5395.281        5.380        1.608      272.736       54.988        0.041      339.476       12.832      860.778
11/15/2014  13:37:00     -199.780       78.271      -17.488      123.245      148.488       71.212    15189.393    22048.594     5071.207        4.432        2.115      214.566       72.039        0.113      339.510       12.890      860.779
11/15/2014  13:38:00     -171.313       -4.971       -1.607      164.621      103.996       61.940    27099.924    10815.264     3836.619        3.556        2.088      171.385       77.735        0.206      339.706       13.221      860.767
11/15/2014  13:39:00     -340.545      -49.222      -29.282      153.468      140.857       67.894    23552.422    19840.585     4609.530        8.362        2.400      344.084       59.844        0.030      339.543       12.945      860.786
11/15/2014  13:40:00     -229.208      -65.651       -6.874      162.396      113.329       69.482    26372.335    12843.390     4827.812        5.046        2.202      238.425       70.191        0.087      339.611       13.060      860.755
11/15/2014  13:41:00     -172.488       86.340      -16.142      125.065       90.607       59.094    15641.357     8209.664     3492.124        3.240        1.367      192.891       62.313        0.104      339.565       12.983      860.745
11/15/2014  13:42:00      -61.839       59.552       45.157      140.064      223.420      104.516    19617.866    49916.344    10923.586        4.492        4.023       85.852       71.954        0.702      339.668       13.155      860.621
11/15/2014  13:43:00     -201.848     -192.754        8.268      166.005      123.837       77.613    27557.717    15335.669     6023.747        6.343        2.446      279.100       68.738        0.061      339.771       13.330      860.723
11/15/2014  13:44:00     -434.627     -317.907       -0.098      203.024      134.250       89.763    41218.640    18023.030     8057.424       17.862        3.365      538.485       93.179        0.030      339.561       12.976      860.735
11/15/2014  13:45:00     -444.269      -92.524      -27.475      187.963      138.706       76.248    35330.260    19239.454     5813.741       13.352        3.019      453.801       89.296        0.039      339.522       12.910      860.793
11/15/2014  13:46:00     -385.185     -159.289      -16.989      187.249      183.760       91.755    35062.267    33767.790     8418.966       12.562        3.862      416.822       99.657        0.057      339.622       13.078      860.808
11/15/2014  13:47:00     -537.244        0.346      -50.275      216.444      182.823       90.832    46848.028    33424.134     8250.495       18.982        4.426      537.244       86.037        0.026      339.430       12.753      860.881
11/15/2014  13:48:00     -204.812       58.901      -21.529      132.942      131.110       67.978    17673.597    17189.740     4621.070        4.267        1.974      213.114       62.843        0.087      339.719       13.242      860.856
11/15/2014  13:49:00     -254.433      115.147      -42.892      204.042      131.465       91.554    41633.313    17283.134     8382.142        7.355        3.365      279.276       96.697        0.120      339.691       13.195      860.845
11/15/2014  13:50:00     -302.882       19.682       -1.435      188.118      158.032       96.713    35388.420    24974.201     9353.392        8.091        3.486      303.520       92.777        0.093      339.657       13.137      860.811
11/15/2014  13:51:00     -319.466     -115.164        4.145      208.748      134.575       78.347    43575.829    18110.548     6138.265        9.157        3.391      339.590       95.448        0.079      339.549       12.956      860.817
11/15/2014  13:52:00      -76.444      -41.870       13.720      102.180       70.092       49.120    10440.722     4912.957     2412.762        1.277        0.888       87.160       51.795        0.353      339.943       13.621      860.863
11/15/2014  13:53:00     -104.822       57.180        1.377      120.330      156.981       76.867    14479.339    24643.110     5908.604        2.964        2.252      119.404       67.177        0.317      339.935       13.606      860.886
11/15/2014  13:54:00      -51.384       30.144       13.171      131.582       88.815       59.679    17313.769     7888.089     3561.631        1.624        1.438       59.573       78.306        1.728      340.133       13.943      860.875
11/15/2014  13:55:00     -254.880      172.235      -37.337      203.707      147.680       99.291    41496.691    21809.470     9858.777        8.458        3.658      307.618      114.437        0.138      339.754       13.301      860.867
11/15/2014  13:56:00     -305.248       37.702      -33.229      167.127      220.175      101.104    27931.463    48477.175    10222.112        9.115        4.332      307.568       92.727        0.091      339.797       13.373      860.890
11/15/2014  13:57:00     -286.608        2.722      -30.697      204.391      161.138      105.615    41775.655    25965.590    11154.501        8.098        3.945      286.621      101.117        0.124      339.612       13.062      860.861
11/15/2014  13:58:00     -362.162       -8.562      -47.539      230.219      255.999      101.750    53000.929    65535.519    10352.978       13.117        6.444      362.263       90.238        0.062      339.504       12.879      860.886
11/15/2014  13:59:00     -300.495      208.801      -47.385      218.734      190.656       91.243    47844.719    36349.597     8325.323       11.431        4.626      365.917       73.999        0.041      339.370       12.656      860.962
11/15/2014  14:00:00     -280.051       77.238      -33.214      204.006      141.384       76.333    41618.607    19989.562     5826.711        7.645        3.372      290.507       64.516        0.049      339.399       12.704      860.946
11/15/2014  14:01:00     -344.036       95.971      -37.888      242.567      186.767      115.969    58838.967    34881.740    13448.907       11.807        5.358      357.171      132.959        0.139      339.402       12.708      861.011
11/15/2014  14:02:00     -243.362       92.451      -16.943      174.841      177.217       89.827    30569.473    31405.913     8068.924        6.904        3.502      260.331       92.458        0.126      339.463       12.811      861.050
11/15/2014  14:03:00     -365.858     -106.821      -27.718      207.419      194.364       97.557    43022.690    37777.492     9517.449       11.816        4.516      381.134       99.719        0.068      339.382       12.674      861.062
11/15/2014  14:04:00     -115.600        9.496       -8.942      115.806      106.912       62.955    13411.080    11430.213     3963.389        2.116        1.440      115.989       55.859        0.232      339.569       12.992      861.061
11/15/2014  14:05:00     -304.059      149.066      -54.560      194.061      126.662       74.600    37659.568    16043.316     5565.188        8.845        2.963      338.633       73.502        0.047      339.318       12.566      861.041
11/15/2014  14:06:00     -270.345      192.639      -56.315      144.504      147.820       74.810    20881.322    21850.798     5596.533        8.084        2.416      331.959       73.639        0.049      339.376       12.665      861.021
11/15/2014  14:07:00     -222.127        4.078       -9.634      166.126      138.703       89.387    27597.890    19238.531     7989.995        5.213        2.741      222.164       90.777        0.167      339.785       13.352      861.032
11/15/2014  14:08:00     -211.442      -49.387      -31.679       97.829       93.685       57.868     9570.538     8776.788     3348.758        3.492        1.085      217.133       39.236        0.033      339.379       12.670      861.069
11/15/2014  14:09:00     -108.789       21.928       21.281      100.878      112.240       78.777    10176.395    12597.905     6205.849        2.087        1.449      110.977       67.132        0.366      339.688       13.191      861.020
11/15/2014  14:10:00     -239.040       88.733      -21.459      142.931      126.394       75.609    20429.141    15975.335     5716.718        5.379        2.106      254.978       77.732        0.093      339.565       12.981      861.031
11/15/2014  14:11:00     -307.645       11.095      -34.344      125.537      112.524       65.724    15759.577    12661.692     4319.580        6.434        1.637      307.845       58.012        0.036      339.544       12.947      861.016
11/15/2014  14:12:00     -177.327      -63.008       20.452      174.532      112.633       67.218    30461.305    12686.092     4518.196        4.174        2.383      188.188       69.198        0.135      339.692       13.197      860.995
11/15/2014  14:13:00     -196.089     -135.883       11.051      171.620      100.283       66.664    29453.296    10056.737     4444.147        5.049        2.198      238.569       76.608        0.103      339.417       12.734      860.954
11/15/2014  14:14:00     -188.049       21.482      -11.683      105.681      119.365       59.334    11168.410    14248.025     3520.479        3.244        1.447      189.272       41.287        0.048      339.770       13.329      860.975
11/15/2014  14:15:00     -359.708       19.772      -43.048      152.344      148.364       65.588    23208.649    22011.953     4301.768        9.057        2.476      360.251       55.498        0.024      339.561       12.977      860.976
11/15/2014  14:16:00     -206.304      -27.092       -3.267      103.705      122.947       65.006    10754.815    15115.936     4225.735        3.670        1.505      208.075       51.433        0.061      339.603       13.046      860.949
11/15/2014  14:17:00     -226.026       44.836      -50.338      170.192      100.957       47.394    28965.270    10192.381     2246.232        4.851        2.070      230.430       43.884        0.036      339.644       13.115      860.983
11/15/2014  14:18:00      -46.235       25.914       37.442       87.505       88.634       55.149     7657.062     7856.023     3041.460        1.138        0.928       53.002       58.006        1.198      339.839       13.446      860.965
11/15/2014  14:19:00     -334.137       52.325      -31.749      186.425      136.161       72.783    34754.123    18539.897     5297.431        8.698        2.930      338.209       88.799        0.069      339.782       13.348      861.006
11/15/2014  14:20:00     -288.490       23.757      -25.787      136.722      119.232       62.320    18692.795    14216.184     3883.799        6.062        1.840      289.466       72.728        0.063      339.742       13.280      861.014
11/15/2014  14:21:00     -237.993     -137.964      -14.796      124.266      107.277       58.525    15442.081    11508.393     3425.125        5.313        1.519      275.090       60.138        0.048      339.627       13.086      861.007
11/15/2014  14:22:00     -236.482        3.757      -13.299      171.581      113.080       62.972    29440.047    12787.006     3965.431        5.114        2.310      236.512       72.108        0.093      339.469       12.821      861.008
11/15/2014  14:23:00     -260.514      105.454      -41.846      152.401      191.612       73.817    23226.090    36715.208     5449.021        7.305        3.270      281.048       61.510        0.048      339.498       12.868      861.005
11/15/2014  14:24:00     -142.893      151.926      -15.341       99.234      126.535       76.881     9847.329    16011.090     5910.692        3.775        1.588      208.567       71.622        0.118      339.740       13.279      861.009
11/15/2014  14:25:00     -303.339      -23.512      -47.084      194.135      136.041       68.429    37688.400    18507.158     4682.461        7.782        3.044      304.249       71.200        0.055      339.699       13.209      861.007
11/15/2014  14:26:00     -209.094      -21.527      -23.320      126.676       99.763       52.585    16046.702     9952.622     2765.142        3.674        1.438      210.199       36.990        0.031      339.520       12.908      861.026
11/15/2014  14:27:00     -116.744      -13.314      -11.805      171.717      136.874       81.420    29486.586    18734.562     6629.213        3.439        2.743      117.501       99.039        0.710      339.668       13.158      861.053
11/15/2014  14:28:00     -350.639       82.379      -34.931      199.853      155.015       91.362    39941.123    24029.633     8346.961       10.162        3.616      360.186       89.007        0.061      339.393       12.693      861.056
11/15/2014  14:29:00     -224.504      163.481      -38.353      153.306      140.513       84.878    23502.698    19743.953     7204.196        6.451        2.523      277.719       83.082        0.089      339.515       12.898      861.042
11/15/2014  14:30:00     -208.028      259.552      -46.850      120.495      154.721       83.122    14518.941    23938.469     6909.213        7.909        2.268      332.631       88.114        0.070      339.283       12.507      861.053
11/15/2014  14:31:00     -203.964      261.040      -46.094      104.942      131.881       59.388    11012.798    17392.573     3526.959        7.189        1.597      331.275       57.857        0.031      339.353       12.626      861.046
11/15/2014  14:32:00     -258.157      108.058      -32.998      133.271      129.065       78.676    17761.178    16657.807     6189.945        6.000        2.030      279.860       68.370        0.060      339.483       12.844      861.044
11/15/2014  14:33:00     -220.616      245.850      -55.706      141.738      137.357       63.355    20089.782    18866.817     4013.879        7.759        2.149      330.324       42.028        0.016      339.342       12.606      861.048
11/15/2014  14:34:00     -204.600       83.371      -10.220      155.235      211.676       82.467    24097.790    44806.840     6800.825        6.230        3.785      220.934       75.195        0.116      339.383       12.677      861.027
11/15/2014  14:35:00     -206.039       74.755      -18.421      127.382      154.628       59.962    16226.100    23909.785     3595.487        4.605        2.187      219.181       51.145        0.054      339.492       12.859      861.040
11/15/2014  14:36:00     -235.719       37.056      -24.944      142.795      134.184       72.562    20390.417    18005.415     5265.273        5.060        2.183      238.614       74.988        0.099      339.566       12.984      861.046
11/15/2014  14:37:00     -123.242      184.924      -21.369       86.420      158.936       62.022     7468.467    25260.741     3846.758        4.320        1.829      222.229       64.066        0.083      339.468       12.820      861.072
11/15/2014  14:38:00      -87.569       96.519       16.667       79.226      175.275       56.944     6276.836    30721.426     3242.631        2.874        2.012      130.323       65.644        0.254      339.586       13.018      861.059
11/15/2014  14:39:00     -354.647       75.918      -59.652      186.869      174.115       82.135    34920.067    30315.865     6746.092       10.352        3.599      362.681       89.774        0.061      339.344       12.609      861.050
11/15/2014  14:40:00     -368.655       -3.913      -48.478      140.793      150.608       59.830    19822.751    22682.862     3579.571        9.217        2.304      368.675       53.652        0.021      339.432       12.758      861.026
11/15/2014  14:41:00     -307.596      -10.629      -50.861      122.258      119.555       65.630    14947.045    14293.335     4307.323        6.542        1.677      307.780       57.183        0.035      339.272       12.489      861.044
11/15/2014  14:42:00     -257.338       11.033      -23.558      147.142      133.712       69.161    21650.638    17878.891     4783.223        5.560        2.216      257.574       71.826        0.078      339.453       12.793      861.041
11/15/2014  14:43:00     -149.249      168.322      -31.933      129.589      171.154       82.988    16793.318    29293.756     6887.036        5.229        2.649      224.961       82.419        0.134      339.430       12.756      861.032
11/15/2014  14:44:00     -184.156      109.260      -35.781      105.146       85.606       62.635    11055.733     7328.345     3923.195        3.471        1.115      214.129       59.117        0.076      339.591       13.028      861.053
11/15/2014  14:45:00     -209.851       32.852      -20.753      128.858      126.932       65.721    16604.475    16111.799     4319.208        4.128        1.852      212.407       36.475        0.029      339.712       13.232      861.068
11/15/2014  14:46:00     -319.977      -96.010       -9.808      199.153      106.442       80.441    39661.873    11329.915     6470.746        8.457        2.873      334.071       72.295        0.047      339.569       12.989      861.078
11/15/2014  14:47:00     -207.760       23.645      -15.996      172.091      119.522       61.940    29615.225    14285.430     3836.546        4.585        2.387      209.101       54.793        0.069      339.623       13.082      861.112
11/15/2014  14:48:00     -177.125        2.348      -26.589      145.445      152.730       78.459    21154.364    23326.320     6155.852        4.135        2.532      177.140       74.082        0.175      339.556       12.969      861.138
11/15/2014  14:49:00     -130.197      237.021      -37.582       87.721      126.113       53.881     7694.985    15904.426     2903.179        5.052        1.325      270.426       63.108        0.054      339.334       12.594      861.140
11/15/2014  14:50:00     -247.929      113.402      -41.831      132.604       87.282       50.705    17583.804     7618.165     2571.045        5.192        1.389      272.633       50.407        0.034      339.579       13.006      861.118
11/15/2014  14:51:00     -202.681      164.133      -15.273       98.055       92.213       68.721     9614.718     8503.196     4722.560        4.554        1.142      260.805       58.847        0.051      339.701       13.211      861.098
11/15/2014  14:52:00     -124.017       98.077        2.703      122.783      134.148       68.151    15075.549    17995.673     4644.619        3.135        1.886      158.112       60.083        0.144      339.573       12.996      861.104
11/15/2014  14:53:00     -200.851       -6.149       -9.415      152.049      159.340       75.074    23118.857    25389.107     5636.159        4.729        2.707      200.945       77.300        0.148      339.742       13.282      861.104
11/15/2014  14:54:00     -385.065      -79.573      -47.095      178.252      121.819       67.832    31773.636    14839.767     4601.216       10.401        2.561      393.201       86.487        0.048      339.120       12.234      861.096
11/15/2014  14:55:00     -272.194     -104.234      -10.735      161.908       99.321       55.116    26214.160     9864.562     3037.807        6.209        1.956      291.469       53.346        0.033      339.236       12.429      861.017
11/15/2014  14:56:00     -174.067       20.876      -23.681       89.160       99.378       53.661     7949.479     9875.931     2879.552        2.600        1.035      175.314       26.422        0.023      339.590       13.026      861.038
11/15/2014  14:57:00     -164.708      138.131      -16.971       96.730      152.199       66.589     9356.698    23164.476     4434.062        4.172        1.848      214.963       21.800        0.010      339.505       12.882      861.021
11/15/2014  14:58:00     -189.495      107.467      -30.170      116.320       98.189       54.999    13530.366     9641.099     3024.842        3.728        1.310      217.847       44.941        0.043      339.502       12.876      861.035
11/15/2014  14:59:00     -293.463      185.075      -63.878      124.195      111.562       66.020    15424.499    12446.075     4358.653        7.834        1.611      346.949       46.327        0.018      339.279       12.501      861.073
11/15/2014  15:00:00      -91.036       86.403       -6.914      104.900      141.335       59.892    11003.907    19975.545     3586.999        2.518        1.728      125.512       53.673        0.183      339.322       12.575      861.061
11/15/2014  15:01:00     -140.845       30.324       -3.776      122.468      130.636       62.235    14998.513    17065.690     3873.150        2.835        1.797      144.072       64.379        0.200      339.420       12.740      861.061
11/15/2014  15:02:00     -164.630      158.799      -27.442      105.192      166.389       72.617    11065.429    27685.406     5273.179        4.854        2.201      228.736       76.001        0.110      339.265       12.475      861.083
11/15/2014  15:03:00     -178.280      135.468      -24.493       71.495      111.615       47.103     5111.535    12457.982     2218.658        3.526        0.989      223.909       27.428        0.015      339.405       12.714      861.123
11/15/2014  15:04:00     -198.366      -26.770      -27.862      150.541       90.572       68.607    22662.707     8203.313     4706.949        3.820        1.779      200.165       62.169        0.096      339.490       12.855      861.167
11/15/2014  15:05:00     -143.577       67.125      -24.726      117.604      102.253       62.749    13830.728    10455.713     3937.465        2.697        1.411      158.494       62.996        0.158      339.390       12.689      861.186
11/15/2014  15:06:00     -278.440      -37.147      -50.936       93.390      115.821       57.337     8721.702    13414.458     3287.566        5.346        1.271      280.907       41.632        0.022      339.344       12.610      861.191
11/15/2014  15:07:00     -218.092       -0.928      -47.543       92.526      125.362       53.581     8561.009    15715.599     2870.912        3.848        1.357      218.094       61.904        0.081      339.437       12.766      861.209
11/15/2014  15:08:00     -161.028       57.990      -23.685      121.247      168.182       65.283    14700.781    28285.196     4261.866        3.854        2.362      171.152       53.956        0.099      339.528       12.921      861.208
11/15/2014  15:09:00     -165.703       15.070        6.449      154.889       92.485       71.044    23990.715     8553.462     5047.224        3.265        1.880      166.386       80.475        0.234      339.497       12.869      861.217
11/15/2014  15:10:00     -188.304       81.121      -22.070      136.512      159.745       78.427    18635.474    25518.482     6150.868        4.641        2.515      205.034       63.528        0.096      339.474       12.831      861.205
11/15/2014  15:11:00     -333.074      103.740      -47.544      224.502      168.344      104.514    50400.924    28339.835    10923.216       10.679        4.483      348.856      114.215        0.107      339.278       12.500      861.167
11/15/2014  15:12:00     -184.273      185.743       -4.886      171.193      234.816      114.234    29306.929    55138.368    13049.308        8.297        4.875      261.643       87.653        0.112      339.306       12.545      861.156
11/15/2014  15:13:00     -276.364       27.581      -49.948      120.421      147.974       78.920    14501.261    21896.386     6228.301        6.112        2.131      277.737       30.913        0.012      339.334       12.593      861.231
11/15/2014  15:14:00     -324.875      -55.823      -32.714      142.388      160.492       82.586    20274.237    25757.776     6820.499        8.128        2.643      329.636       83.832        0.065      339.554       12.964      861.247
11/15/2014  15:15:00     -426.571      -24.974      -50.206      144.712      161.108       77.789    20941.631    25955.764     6051.137       11.902        2.647      427.302       73.665        0.030      339.098       12.195      861.321
11/15/2014  15:16:00     -161.947      -49.287        1.163      141.750      123.406       63.463    20093.025    15228.982     4027.563        3.400        1.967      169.281       65.132        0.148      339.373       12.661      861.301
11/15/2014  15:17:00     -418.648     -127.578      -54.405      240.444      149.457       84.611    57813.448    22337.286     7158.937       14.089        4.365      437.655       98.697        0.051      339.050       12.114      861.293
11/15/2014  15:18:00     -185.192      -23.501      -22.337      101.172      144.886       67.616    10235.750    20991.966     4571.926        3.557        1.790      186.678       48.939        0.069      339.335       12.596      861.345
11/15/2014  15:19:00     -323.188     -129.113      -16.242      154.052      125.298       75.269    23731.891    15699.701     5665.358        8.323        2.255      348.024       78.516        0.051      339.282       12.504      861.366
11/15/2014  15:20:00     -286.108      -63.087      -18.360      194.787      140.957       65.519    37942.169    19868.947     4292.775        7.413        3.105      292.981       82.360        0.079      339.223       12.405      861.372
11/15/2014  15:21:00     -449.637        2.359      -31.673      158.770      131.630       76.271    25207.952    17326.463     5817.273       12.576        2.418      449.643       73.938        0.027      339.152       12.287      861.382
11/15/2014  15:22:00     -289.273      -38.867      -26.427      187.817      135.965       76.500    35275.151    18486.434     5852.254        7.274        2.981      291.873       93.135        0.102      339.269       12.485      861.404
11/15/2014  15:23:00     -332.953      -81.600      -24.403      130.681      118.780       68.244    17077.488    14108.709     4657.219        7.697        1.792      342.806       65.231        0.036      339.116       12.226      861.435
11/15/2014  15:24:00     -389.576      -95.629      -11.358      199.464      174.742       83.278    39785.885    30534.641     6935.268       11.913        3.863      401.142       89.095        0.049      339.112       12.221      861.431
11/15/2014  15:25:00     -501.160     -165.242       -8.027      229.207      149.817       83.485    52535.952    22445.104     6969.809       18.022        4.098      527.699      102.235        0.038      338.913       11.885      861.424
11/15/2014  15:26:00     -476.880      -35.805      -20.784      200.015      186.835       82.678    40006.025    34907.139     6835.694       15.542        4.087      478.222       84.742        0.031      339.050       12.116      861.451
11/15/2014  15:27:00     -271.009      -26.774        8.513      165.471      116.012       77.858    27380.578    13458.731     6061.907        6.056        2.345      272.328       85.066        0.098      339.184       12.339      861.432
11/15/2014  15:28:00     -233.360      -57.053        1.377      133.295      110.921       67.692    17767.432    12303.455     4582.214        4.618        1.733      240.234       63.625        0.070      339.250       12.452      861.439
11/15/2014  15:29:00     -428.759      -72.578      -24.174      185.844      124.027       69.150    34537.809    15382.763     4781.710       12.218        2.735      434.859       71.872        0.027      339.001       12.032      861.453
11/15/2014  15:30:00     -188.196      -42.789        7.754      110.815      119.088       80.631    12279.910    14181.865     6501.403        3.513        1.648      192.999       77.459        0.161      339.226       12.412      861.421
11/15/2014  15:31:00     -284.597       17.600      -16.846      123.752      144.324       58.876    15314.524    20829.549     3466.420        6.059        1.981      285.141       53.855        0.036      339.228       12.414      861.430
11/15/2014  15:32:00     -268.278      -27.689        9.086      217.493       88.226       70.361    47303.272     7783.750     4950.675        6.642        3.002      269.703       80.271        0.089      339.212       12.390      861.433
11/15/2014  15:33:00     -379.535      -91.858      -24.403      184.062      143.599       79.399    33878.719    20620.613     6304.269       10.693        3.040      390.493       78.408        0.040      339.038       12.095      861.433
11/15/2014  15:34:00     -471.535      -31.745      -19.697      153.076       95.826       72.206    23432.399     9182.588     5213.764       13.078        1.891      472.602       78.186        0.027      339.040       12.098      861.435
11/15/2014  15:35:00     -305.484      -86.710       -1.336      238.238      126.233       78.356    56757.149    15934.827     6139.593        8.982        3.942      317.552       99.775        0.099      339.094       12.188      861.472
11/15/2014  15:36:00     -353.964       15.469      -39.032      150.994      117.412       62.498    22799.193    13785.592     3905.957        8.376        2.025      354.301       58.023        0.027      339.117       12.229      861.521
11/15/2014  15:37:00     -191.749      -28.900       -7.682      112.384      106.695       57.985    12630.227    11383.780     3362.206        3.251        1.369      193.915       51.012        0.069      339.288       12.517      861.535
11/15/2014  15:38:00     -262.808       -6.779       -9.120      171.441      139.213       70.231    29392.065    19380.221     4932.440        6.144        2.685      262.895       85.972        0.107      339.284       12.510      861.533
11/15/2014  15:39:00     -392.973        0.111      -24.690      314.369      148.523       90.106    98828.036    22059.223     8119.127       14.200        6.450      392.973      125.309        0.102      339.008       12.045      861.531
11/15/2014  15:40:00     -389.202      -38.085      -18.618      210.408      116.598       80.962    44271.441    13595.043     6554.920       10.884        3.221      391.061       88.985        0.052      339.023       12.070      861.529
11/15/2014  15:41:00     -413.477     -114.486      -37.928      141.903      125.242       65.864    20136.370    15685.543     4338.109       11.283        2.008      429.034       50.080        0.014      338.916       11.890      861.530
11/15/2014  15:42:00     -111.094      -11.783       30.865      158.419      119.982       92.770    25096.658    14395.576     8606.296        3.076        2.405      111.718       76.519        0.469      339.012       12.052      861.510
11/15/2014  15:43:00     -326.882      -59.002      -39.685      148.121      133.741       66.529    21939.955    17886.566     4426.106        7.807        2.213      332.165       62.725        0.036      339.000       12.031      861.530
11/15/2014  15:44:00     -428.814      -97.304      -27.469      240.613      165.635       81.564    57894.643    27434.999     6652.625       14.302        4.599      439.715       97.935        0.050      338.905       11.872      861.562
11/15/2014  15:45:00     -357.381     -163.187       -3.377      212.322      129.710       89.262    45080.516    16824.694     7967.635       11.210        3.494      392.875       95.207        0.059      338.883       11.833      861.531
11/15/2014  15:46:00     -400.625     -138.263      -16.562      206.155      169.751       91.795    42499.925    28815.355     8426.233       12.980        3.987      423.813      110.621        0.068      338.828       11.743      861.537
11/15/2014  15:47:00     -463.624      -52.100      -25.184      150.250      171.182       90.402    22575.033    29303.187     8172.592       13.916        3.003      466.542       76.101        0.027      338.823       11.733      861.538
11/15/2014  15:48:00     -474.353     -142.280      -31.924      176.623      131.732       83.114    31195.597    17353.361     6907.891       15.085        2.773      495.232       81.701        0.027      338.766       11.636      861.516
11/15/2014  15:49:00     -352.258     -105.690      -19.294      156.715      129.149       72.171    24559.681    16679.555     5208.699        9.103        2.322      367.772       82.521        0.050      338.769       11.643      861.527
11/15/2014  15:50:00     -249.866      -63.814       -0.941      175.723      108.908       75.652    30878.433    11860.940     5723.205        5.747        2.423      257.886       86.513        0.113      338.864       11.803      861.528
11/15/2014  15:51:00     -320.519       -2.344      -18.952      117.685      100.872       54.123    13849.665    10175.113     2929.335        6.502        1.348      320.528       47.621        0.022      338.903       11.868      861.544
11/15/2014  15:52:00     -188.716      -76.590       -0.391       94.068       90.025       52.178     8848.820     8104.565     2722.556        3.057        0.984      203.666       47.586        0.055      338.873       11.819      861.560
11/15/2014  15:53:00     -175.418      -44.488       -4.204      116.304       82.738       55.679    13526.616     6845.631     3100.119        2.812        1.174      180.972       60.330        0.111      338.907       11.876      861.568
11/15/2014  15:54:00     -303.268      -74.762      -17.873      116.091       99.608       62.511    13477.217     9921.797     3907.637        6.259        1.365      312.347       61.586        0.039      338.762       11.630      861.569
11/15/2014  15:55:00     -235.147      -92.261       -0.132      100.515      111.088       54.529    10103.199    12340.454     2973.424        4.461        1.271      252.599       49.304        0.038      338.769       11.643      861.552
11/15/2014  15:56:00     -291.685      -75.394      -19.336      108.384       94.604       59.699    11747.031     8949.878     3563.978        5.769        1.213      301.271       57.045        0.036      338.776       11.655      861.537
11/15/2014  15:57:00     -311.966       17.187      -51.730       93.555      104.739       49.595     8752.534    10970.231     2459.686        6.123        1.109      312.439       29.943        0.009      338.866       11.807      861.553
11/15/2014  15:58:00     -171.184       48.271      -19.167      167.747       70.100       53.082    28138.917     4913.950     2817.677        3.393        1.794      177.859       75.780        0.182      338.919       11.896      861.568
11/15/2014  15:59:00     -249.071       -9.134      -19.069      176.309       97.066       72.811    31084.718     9421.875     5301.371        5.414        2.290      249.239       82.413        0.109      338.912       11.884      861.569
11/15/2014  16:00:00     -390.762      -74.458       -8.377      175.126      199.677       79.960    30669.270    39871.062     6393.540       11.761        3.847      397.793       79.394        0.040      338.759       11.627      861.580
11/15/2014  16:01:00     -353.101      -53.455      -13.454      191.792      179.808       83.792    36784.320    32330.950     7021.117       10.191        3.807      357.124       92.030        0.066      338.843       11.767      861.616
11/15/2014  16:02:00     -142.870       -6.901       13.171      144.099      101.576       62.163    20764.485    10317.715     3864.293        2.778        1.747      143.036       70.826        0.245      338.921       11.899      861.627
11/15/2014  16:03:00     -298.866      -78.003      -15.689      136.256      115.943       58.801    18565.786    13442.790     3457.551        6.555        1.773      308.878       64.584        0.044      338.752       11.613      861.647
11/15/2014  16:04:00     -399.615      -69.260      -21.198      122.936      148.269       75.176    15113.277    21983.811     5651.395       10.384        2.137      405.573       64.614        0.025      338.718       11.556      861.663
11/15/2014  16:05:00     -260.829     -114.589       -4.905      133.653      128.229       66.351    17863.128    16442.792     4402.455        5.994        1.935      284.890       70.271        0.061      338.669       11.473      861.699
11/15/2014  16:06:00     -175.128      -25.046        4.995      140.687       93.434       64.137    19792.728     8729.902     4113.558        3.197        1.632      176.909       70.128        0.157      338.741       11.596      861.720
11/15/2014  16:07:00     -154.543       -7.241      -19.443       81.235       89.902       50.095     6599.127     8082.340     2509.532        2.075        0.860      154.712       45.793        0.088      338.913       11.886      861.740
11/15/2014  16:08:00     -391.496       44.258      -33.306      219.307      132.043       65.607    48095.743    17435.338     4304.325       11.307        3.492      393.990       85.503        0.047      338.850       11.780      861.754
11/15/2014  16:09:00     -309.724      -56.068      -13.787      136.285      120.334       62.201    18573.606    14480.155     3869.006        6.809        1.846      314.758       69.345        0.049      338.721       11.561      861.744
11/15/2014  16:10:00     -212.826      -87.614        2.660      152.072      118.475       66.708    23125.962    14036.247     4449.901        4.729        2.081      230.155       58.003        0.064      338.733       11.583      861.755
11/15/2014  16:11:00     -197.525      -74.600        1.277      141.291      103.127       69.597    19963.096    10635.141     4843.681        4.001        1.772      211.143       65.757        0.097      338.716       11.555      861.770
11/15/2014  16:12:00     -289.926      -95.112      -41.207      127.575       97.471       53.166    16275.298     9500.677     2826.671        6.170        1.430      305.128       32.134        0.011      338.760       11.626      861.785
11/15/2014  16:13:00     -338.824     -124.859      -21.468      182.830      126.054       67.915    33426.938    15889.714     4612.495        9.238        2.696      361.098       70.540        0.038      338.713       11.548      861.785
11/15/2014  16:14:00     -380.024     -126.642       -5.199      183.418      135.315       80.503    33642.067    18310.187     6480.790       10.945        2.922      400.570       77.663        0.038      338.683       11.497      861.782
11/15/2014  16:15:00     -348.856      -55.565      -22.821      110.916       94.059       62.198    12302.465     8847.189     3868.623        7.516        1.251      353.254       49.531        0.020      338.791       11.679      861.839
11/15/2014  16:16:00     -251.323      -36.285      -32.443      101.417       85.012       49.031    10285.504     7226.962     2404.085        4.272        0.996      253.929       44.073        0.030      338.778       11.656      861.887
11/15/2014  16:17:00     -170.023      -57.150       -7.753       94.853       68.012       39.321     8997.090     4625.577     1546.135        2.370        0.758      179.371       42.554        0.056      338.767       11.640      861.919
11/15/2014  16:18:00     -153.251      -30.390      -10.835       89.476       67.408       41.413     8005.874     4543.861     1715.049        1.939        0.713      156.235       24.176        0.024      338.863       11.802      861.943
11/15/2014  16:19:00     -198.839      -76.133       -7.258       80.261       63.985       47.745     6441.849     4094.058     2279.566        2.910        0.641      212.916       49.920        0.055      338.734       11.584      861.956
11/15/2014  16:20:00     -153.560       -7.589      -18.755       50.943       60.290       24.426     2595.141     3634.850      596.612        1.541        0.341      153.748       19.782        0.017      338.930       11.915      861.984
11/15/2014  16:21:00     -146.615      -26.031      -14.352       76.221       76.738       45.143     5809.594     5888.748     2037.931        1.806        0.687      148.908       41.929        0.079      338.952       11.953      862.037
11/15/2014  16:22:00     -124.972      -53.950        4.365      104.736       70.654       52.118    10969.564     4992.008     2716.258        1.861        0.934      136.120       58.562        0.185      338.905       11.873      862.076
11/15/2014  16:23:00      -89.173      -39.229       15.629       85.256       69.293       41.269     7268.654     4801.515     1703.171        1.175        0.689       97.420       46.606        0.229      338.851       11.782      862.127
11/15/2014  16:24:00     -108.432        7.192        3.299       67.835       55.800       34.281     4601.581     3113.619     1175.202        1.035        0.445      108.670       33.653        0.096      338.790       11.680      862.151
11/15/2014  16:25:00      -22.150       18.278       12.038       61.419       46.787       30.606     3772.253     2189.030      936.748        0.393        0.345       28.718       35.586        1.536      338.934       11.923      862.178
11/15/2014  16:26:00     -299.978      -53.698       -6.146      147.317       95.739       61.816    21702.301     9165.967     3821.272        6.379        1.734      304.746       67.927        0.050      338.830       11.746      862.212
11/15/2014  16:27:00     -270.960     -125.197       -9.148      108.915      102.316       56.728    11862.389    10468.633     3218.056        5.736        1.277      298.486       48.469        0.026      338.864       11.803      862.235
11/15/2014  16:28:00     -120.144      -46.032       14.339      116.331       75.287       54.659    13532.974     5668.094     2987.632        1.947        1.109      128.661       64.109        0.248      338.735       11.586      862.260
11/15/2014  16:29:00     -185.371      -60.361       -3.239      105.150       78.075       48.002    11056.527     6095.752     2304.194        2.873        0.973      194.951       52.756        0.073      338.695       11.519      862.250
11/15/2014  16:30:00     -237.521      -65.339       -2.782      163.217       99.978       86.391    26639.676     9995.542     7463.380        5.239        2.205      246.344       85.720        0.121      338.658       11.456      862.246
11/15/2014  16:31:00     -248.302      -15.817      -21.464       90.183       78.146       33.188     8133.003     6106.840     1101.476        3.885        0.767      248.805       40.401        0.026      338.793       11.685      862.250
11/15/2014  16:32:00     -176.216       16.266      -16.854      134.594       95.771       46.315    18115.649     9172.067     2145.079        3.051        1.472      176.965       60.496        0.117      338.738       11.591      862.263
11/15/2014  16:33:00     -185.066       43.269      -35.159      115.398      128.975       47.760    13316.780    16634.580     2281.045        3.479        1.612      190.057       41.210        0.047      338.677       11.488      862.279
11/15/2014  16:34:00     -114.099      207.653      -17.996      101.528      106.311       66.371    10307.951    11301.958     4405.175        4.123        1.301      236.936       69.056        0.085      338.675       11.486      862.329
11/15/2014  16:35:00     -177.391      122.571      -14.605      128.617      112.636       62.502    16542.249    12686.953     3906.459        3.991        1.657      215.618       75.025        0.121      338.644       11.433      862.372
11/15/2014  16:36:00     -110.692      164.808       -4.464       79.895      121.231       68.610     6383.213    14697.019     4707.302        3.261        1.289      198.531       50.255        0.064      338.692       11.515      862.394
11/15/2014  16:37:00      -97.605      113.854      -11.039       83.159       99.641       45.396     6915.465     9928.326     2060.798        2.075        0.945      149.965       48.975        0.107      338.812       11.716      862.456
11/15/2014  16:38:00       47.161      154.968       -8.894       50.153       78.720       42.846     2515.328     6196.790     1835.779        1.843        0.527      161.985       48.161        0.088      338.695       11.520      862.570
11/15/2014  16:39:00      362.468      244.233       10.981      248.468      168.755      101.589    61736.394    28478.225    10320.381       14.582        5.027      437.073      100.760        0.053      337.478        9.477      862.627
11/15/2014  16:40:00      145.790      160.284        6.937      171.361      131.939       83.725    29364.458    17407.882     7009.874        5.038        2.689      216.670       39.344        0.033      337.052        8.762      862.666
11/15/2014  16:41:00      155.081      441.791      -14.294      170.830      257.398      155.331    29182.968    66253.629    24127.703       16.948        5.978      468.220      156.122        0.111      337.049        8.757      862.718
11/15/2014  16:42:00      -45.825      547.381      -84.715      115.882      167.916       67.720    13428.730    28195.820     4585.959       17.755        2.311      549.295       64.863        0.014      337.714        9.870      862.863
11/15/2014  16:43:00       63.136      270.944      -18.353      103.301      189.220       80.047    10671.126    35804.371     6407.451        6.530        2.644      278.203       89.057        0.102      337.041        8.744      862.885
11/15/2014  16:44:00       90.648      284.583      -27.182      111.846      142.716       88.532    12509.514    20367.724     7837.981        6.532        2.036      298.671       90.451        0.092      337.150        8.926      862.907
11/15/2014  16:45:00       77.271      239.661      -15.297      137.171      170.711       94.372    18815.832    29142.175     8906.091        6.024        2.843      251.810      102.382        0.165      337.002        8.679      862.923
11/15/2014  16:46:00       70.826      310.973       -6.521      141.168      245.405      118.664    19928.527    60223.855    14081.038        9.798        4.712      318.936      142.154        0.199      337.006        8.684      862.960
11/15/2014  16:47:00      108.650      484.627      -65.215      129.679      295.734       98.738    16816.620    87458.305     9749.235       18.245        5.701      496.657      137.969        0.077      336.897        8.504      862.958
11/15/2014  16:48:00      -54.253      482.791      -62.303      156.181      187.568       92.639    24392.415    35181.726     8581.993       15.402        3.408      485.830       98.397        0.041      336.896        8.502      863.002
11/15/2014  16:49:00      -90.764      577.619      -83.299      117.334      143.229       60.383    13767.199    20514.518     3646.136       19.337        1.896      584.707       54.293        0.009      336.876        8.470      863.014
11/15/2014  16:50:00      -16.353      634.056      -80.033      151.052      253.077      100.249    22816.583    64047.869    10049.898       25.279        4.846      634.267      124.531        0.039      336.882        8.477      863.099
11/15/2014  16:51:00      -88.489      575.530      -81.286      144.395      207.627       88.955    20849.901    43108.816     7913.015       20.876        3.594      582.293      102.457        0.031      336.919        8.540      863.171
11/15/2014  16:52:00      -38.882      536.187      -47.720      145.560      213.996       99.410    21187.771    45794.168     9882.357       18.406        3.843      537.595      118.474        0.049      336.897        8.504      863.210
11/15/2014  16:53:00      -42.045      434.889      -41.031      141.580      228.552       88.779    20045.036    52235.799     7881.710       13.636        4.008      436.917      114.054        0.068      336.889        8.490      863.214
11/15/2014  16:54:00      -61.764      453.914      -62.145      104.054      219.090       74.275    10827.156    48000.429     5516.767       13.902        3.217      458.097       91.135        0.040      336.892        8.496      863.243
11/15/2014  16:55:00     -116.913      502.264      -58.084      145.174      151.695       82.429    21075.349    23011.338     6794.478       16.009        2.544      515.692       81.608        0.025      336.864        8.449      863.314
11/15/2014  16:56:00       71.338      396.191      -48.197      158.672      176.737      110.896    25176.715    31235.962    12297.848       11.653        3.436      402.562       89.887        0.050      336.781        8.311      863.356
11/15/2014  16:57:00       19.629      345.150      -23.606      112.508      150.505       82.263    12658.104    22651.841     6767.207        8.107        2.104      345.708       80.375        0.054      336.764        8.283      863.397
11/15/2014  16:58:00      -41.670      405.432      -58.346      125.996      197.490       83.093    15875.115    39002.168     6904.394       11.564        3.089      407.568       97.361        0.057      336.762        8.278      863.435
11/15/2014  16:59:00       -3.353      379.153      -27.255      153.789      186.487       99.409    23651.023    34777.452     9882.136       10.640        3.416      379.168      101.513        0.072      336.755        8.266      863.474
11/15/2014  17:00:00      -62.015      423.076      -50.285      114.014      131.315       63.089    12999.231    17243.708     3980.191       10.979        1.711      427.597       52.025        0.015      336.759        8.272      863.497
11/15/2014  17:01:00      -73.941      524.222      -63.332      124.424      170.986       69.111    15481.315    29236.139     4776.334       16.688        2.475      529.411       80.243        0.023      336.710        8.192      863.511
11/15/2014  17:02:00     -104.979      439.427      -45.369      112.376      175.983       79.805    12628.257    30970.115     6368.872       12.806        2.498      451.792       90.225        0.040      336.694        8.164      863.562
11/15/2014  17:03:00      -84.648      493.158      -60.231       88.872      146.114       63.525     7898.257    21349.395     4035.454       14.363        1.664      500.370       62.019        0.015      336.645        8.083      863.572
11/15/2014  17:04:00      -65.706      329.223      -42.788      121.987      146.952       76.655    14880.895    21595.003     5876.046        7.844        2.118      335.715       83.673        0.062      336.672        8.129      863.594
11/15/2014  17:05:00      -75.417      340.284      -33.245      129.561      139.763       71.019    16786.166    19533.564     5043.759        8.197        2.068      348.541       76.610        0.048      336.665        8.116      863.617
11/15/2014  17:06:00       -1.381      421.421      -40.235      105.830      161.828       78.292    11199.999    26188.431     6129.710       11.136        2.176      421.424       89.606        0.045      336.636        8.069      863.650
11/15/2014  17:07:00      -46.147      192.218        2.530       75.655      129.607       64.756     5723.740    16798.099     4193.360        3.289        1.336      197.679       67.699        0.117      336.680        8.142      863.668
11/15/2014  17:08:00      -73.757      421.676      -43.270       82.664      157.567       55.607     6833.353    24827.208     3092.160       10.993        1.738      428.078       66.800        0.024      336.634        8.066      863.680
11/15/2014  17:09:00     -112.350      417.352      -50.613       98.675      142.021       63.843     9736.755    20170.041     4075.955       11.167        1.699      432.210       67.511        0.024      336.639        8.073      863.732
11/15/2014  17:10:00     -162.140      343.125      -48.842      105.866      209.704       69.307    11207.558    43975.786     4803.502       10.319        2.999      379.505       79.259        0.044      336.588        7.989      863.755
11/15/2014  17:11:00     -131.480      504.777      -60.755      131.219      152.010       79.028    17218.375    23107.067     6245.346       16.117        2.329      521.620       77.866        0.022      336.534        7.898      863.795
11/15/2014  17:12:00     -182.923      264.594      -35.728      109.150      117.815       78.261    11913.668    13880.434     6124.819        6.833        1.596      321.669       74.786        0.054      336.530        7.893      863.820
11/15/2014  17:13:00     -160.527      348.637      -50.056      108.014      137.520       72.917    11667.089    18911.759     5316.954        9.285        1.795      383.819       68.502        0.032      336.473        7.794      863.814
11/15/2014  17:14:00     -211.430      376.645      -59.964      132.295      153.939       75.913    17501.984    23697.325     5762.799       11.855        2.348      431.931       65.756        0.023      336.421        7.708      863.800
11/15/2014  17:15:00     -134.934      447.907      -42.425       95.064      139.495       69.764     9037.189    19458.764     4867.009       12.699        1.668      467.790       59.169        0.016      336.388        7.653      863.769
11/15/2014  17:16:00     -201.673      449.530      -60.656      106.642      182.864       81.591    11372.559    33439.113     6657.158       14.894        2.573      492.696       84.264        0.029      336.387        7.650      863.755
11/15/2014  17:17:00     -197.131      333.218      -43.293      107.651      182.971       76.231    11588.741    33478.478     5811.206       10.131        2.544      387.162       70.385        0.033      336.389        7.653      863.758
11/15/2014  17:18:00     -141.774      373.075      -34.781      122.456      120.634       88.041    14995.593    14552.577     7751.134        9.889        1.865      399.105       80.022        0.040      336.356        7.599      863.801
11/15/2014  17:19:00     -166.168      322.026      -37.803      121.393      142.658       67.859    14736.192    20351.398     4604.807        8.621        1.985      362.371       71.586        0.039      336.390        7.654      863.864
11/15/2014  17:20:00     -130.920      381.037      -51.202      120.327      153.248       65.910    14478.488    23485.100     4344.168       10.362        2.115      402.901       65.803        0.027      336.377        7.633      863.899
11/15/2014  17:21:00     -117.361      357.494      -29.590      115.870      165.032       72.941    13425.850    27235.706     5320.360        9.421        2.299      376.265       83.238        0.049      336.352        7.592      863.935
11/15/2014  17:22:00     -167.162      484.671      -61.232       97.330      140.484       69.030     9473.124    19735.874     4765.175       15.028        1.699      512.688       62.553        0.015      336.283        7.478      863.953
11/15/2014  17:23:00     -137.890      351.357      -35.589       91.213      129.629       68.650     8319.776    16803.677     4712.877        8.678        1.492      377.445       76.310        0.041      336.291        7.492      864.006
11/15/2014  17:24:00     -145.721      512.769      -52.829      123.349      169.613       75.924    15214.983    28768.628     5764.382       16.834        2.487      533.073       70.083        0.017      336.265        7.445      864.016
11/15/2014  17:25:00     -178.729      397.841      -57.513      140.954      117.182       76.239    19868.038    13731.555     5812.441       11.646        1.971      436.144       81.368        0.035      336.210        7.354      864.023
11/15/2014  17:26:00     -126.261      430.872      -39.534       87.399      141.899       70.226     7638.621    20135.276     4931.673       11.792        1.635      448.991       70.792        0.025      336.177        7.301      864.027
11/15/2014  17:27:00     -215.747      346.980      -40.104      112.557      129.973       83.660    12669.053    16892.862     6998.943       10.255        1.828      408.585       83.858        0.042      336.189        7.321      864.066
11/15/2014  17:28:00     -160.419      281.560      -25.606      108.875      144.191       74.789    11853.765    20790.913     5593.353        7.194        1.912      324.053       81.780        0.064      336.197        7.335      864.084
11/15/2014  17:29:00     -132.852      338.568      -44.438      106.195      135.278       57.932    11277.444    18300.215     3356.065        8.359        1.647      363.700       54.183        0.022      336.194        7.328      864.083
11/15/2014  17:30:00     -142.509      327.144      -43.160       93.655      108.463       62.410     8771.257    11764.170     3895.015        7.681        1.222      356.836       61.608        0.030      336.194        7.329      864.098
11/15/2014  17:31:00      -71.319      427.342      -56.918       83.933      164.022       48.539     7044.795    26903.079     2356.009       11.362        1.815      433.253       66.522        0.024      336.204        7.346      864.140
11/15/2014  17:32:00     -134.459      352.590      -39.463       91.381      109.492       62.356     8350.463    11988.490     3888.239        8.409        1.211      377.358       55.954        0.022      336.221        7.374      864.182
11/15/2014  17:33:00     -157.671      360.022      -46.273      111.363      113.707       70.939    12401.815    12929.364     5032.380        9.348        1.518      393.034       74.672        0.036      336.215        7.363      864.211
11/15/2014  17:34:00      -83.459      447.976      -57.513       88.977      138.439       64.470     7916.880    19165.241     4156.352       12.109        1.562      455.684       67.642        0.022      336.224        7.379      864.233
11/15/2014  17:35:00      -70.965      454.495      -54.265       87.468      140.181       51.913     7650.637    19650.598     2694.918       12.227        1.500      460.002       56.049        0.015      336.236        7.398      864.241
11/15/2014  17:36:00      -71.553      439.656      -51.302       96.506      190.640       72.557     9313.377    36343.670     5264.507       12.598        2.546      445.440       93.111        0.044      336.233        7.392      864.253
11/15/2014  17:37:00      -98.640      460.982      -54.096      103.072      176.416       59.950    10623.812    31122.768     3594.039       13.524        2.267      471.418       66.822        0.020      336.224        7.378      864.264
11/15/2014  17:38:00      -96.344      564.910      -48.276      125.887      257.918       94.327    15847.495    66521.507     8897.651       21.098        4.563      573.067      121.348        0.045      336.177        7.301      864.292
11/15/2014  17:39:00      -71.500      455.355      -35.697      135.350      190.062       95.391    18319.564    36123.494     9099.445       13.863        3.177      460.934       97.070        0.044      336.145        7.248      864.311
11/15/2014  17:40:00      -68.662      501.057      -56.299       95.908      158.553       69.425     9198.254    25138.965     4819.876       14.904        1.958      505.740       80.673        0.025      336.136        7.230      864.324
11/15/2014  17:41:00       23.038      412.546      -24.117      123.283      179.783      111.015    15198.652    32321.797    12324.356       11.556        2.992      413.189      113.113        0.075      336.157        7.267      864.363
11/15/2014  17:42:00      -61.169      626.330      -70.168      172.963      247.931      111.347    29916.111    61470.005    12398.205       25.235        5.189      629.309      115.683        0.034      336.088        7.152      864.359
11/15/2014  17:43:00      -94.920      613.777      -67.857      127.880      134.448       77.612    16353.357    18076.150     6023.652       21.539        2.023      621.074       77.919        0.016      336.082        7.142      864.386
11/15/2014  17:44:00      -27.853      659.089      -81.245      142.199      160.228       77.655    20220.596    25673.013     6030.262       24.684        2.596      659.677       71.640        0.012      336.076        7.133      864.409
11/15/2014  17:45:00      -79.856      524.171      -50.127      132.438      181.990       82.546    17539.810    33120.240     6813.798       17.055        2.874      530.219       89.858        0.029      336.074        7.129      864.451
11/15/2014  17:46:00     -117.084      656.784      -77.305      149.194      190.290       87.205    22258.973    36210.207     7604.705       25.855        3.304      667.138       89.617        0.018      336.007        7.016      864.461
11/15/2014  17:47:00     -133.267      618.430      -77.889      135.503      173.963       72.119    18361.139    30263.143     5201.178       23.004        2.691      632.626       63.423        0.010      335.982        6.977      864.474
11/15/2014  17:48:00      -43.174      563.488      -68.401      129.081      186.984       89.465    16662.005    34963.095     8003.926       19.183        2.981      565.139       99.307        0.031      335.977        6.967      864.505
11/15/2014  17:49:00      -77.614      619.172      -65.912      129.714      145.352       81.553    16825.667    21127.182     6650.856       21.916        2.230      624.017       75.855        0.015      335.953        6.926      864.518
11/15/2014  17:50:00      -78.899      492.060      -53.556      109.091      159.613       67.393    11900.752    25476.367     4541.872       14.656        2.096      498.345       68.860        0.019      335.955        6.931      864.538
11/15/2014  17:51:00      -65.682      548.893      -59.314      121.311      205.070       76.569    14716.307    42053.808     5862.831       18.586        3.132      552.809       87.896        0.025      335.961        6.941      864.552
11/15/2014  17:52:00      -39.306      461.084      -53.243      125.765      216.802       89.123    15816.930    47003.249     7942.891       14.386        3.538      462.757      109.965        0.056      335.970        6.956      864.588
11/15/2014  17:53:00      -56.233      473.389      -44.736      123.523      149.927       92.303    15258.023    22478.146     8519.794       13.775        2.313      476.717       93.339        0.038      335.970        6.956      864.622
11/15/2014  17:54:00      -50.612      398.457      -38.061      131.587      276.173       85.247    17315.012    76271.742     7266.986       13.180        5.043      401.659      121.740        0.092      335.954        6.928      864.635
11/15/2014  17:55:00       20.413      561.453      -60.095      133.524      236.985      108.999    17828.788    56161.667    11880.809       20.255        4.294      561.824      132.254        0.055      335.898        6.835      864.652
11/15/2014  17:56:00      -30.347      471.571      -45.938      151.664      204.502       99.918    23002.052    41821.180     9983.633       15.009        3.740      472.546      115.470        0.060      335.921        6.873      864.641
11/15/2014  17:57:00      -24.962      435.784      -50.714      105.088      145.335       66.589    11043.550    21122.365     4434.051       11.484        1.830      436.498       66.654        0.023      335.905        6.845      864.649
11/15/2014  17:58:00       31.247      261.005       -3.555      121.145      185.461      108.501    14675.990    34395.632    11772.461        6.497        3.042      262.869      101.850        0.150      335.886        6.815      864.662
11/15/2014  17:59:00        7.470      418.820      -43.295      104.828      161.272       96.697    10988.891    26008.577     9350.400       11.183        2.317      418.886      100.664        0.058      335.876        6.799      864.692
11/15/2014  18:00:00      -14.998      390.952      -45.221      104.451      128.719       67.429    10909.984    16568.487     4546.667        9.356        1.601      391.240       61.320        0.025      335.897        6.833      864.722
11/15/2014  18:01:00        6.562      476.869      -52.104      142.367      180.577       79.597    20268.465    32607.959     6335.677       14.468        2.961      476.914       81.393        0.029      335.890        6.822      864.746
11/15/2014  18:02:00      -43.736      508.120      -59.725      119.874      157.410       70.352    14369.801    24777.812     4949.387       15.387        2.205      509.999       73.889        0.021      335.900        6.839      864.748
11/15/2014  18:03:00        6.436      467.065      -62.321      113.660      179.077       95.211    12918.532    32068.580     9065.130       13.805        2.703      467.109       96.622        0.043      335.869        6.786      864.733
11/15/2014  18:04:00      -75.075      404.746      -39.898      113.386      138.051       68.854    12856.399    19058.104     4740.814       10.384        1.833      411.650       60.459        0.022      335.898        6.836      864.772
11/15/2014  18:05:00      -21.034      464.527      -46.588      127.053      202.874       95.060    16142.427    41157.838     9036.492       14.235        3.317      465.003      101.080        0.047      335.860        6.770      864.798
11/15/2014  18:06:00     -118.401      467.578      -52.821      111.976      190.578       77.081    12538.732    36320.096     5941.525       14.511        2.740      482.336       78.984        0.027      335.823        6.709      864.817
11/15/2014  18:07:00     -100.650      417.652      -28.065      135.948      163.480       89.168    18481.862    26725.641     7950.939       11.924        2.658      429.608       81.360        0.036      335.824        6.711      864.810
11/15/2014  18:08:00     -108.348      547.366      -59.413      114.366      176.220       74.340    13079.520    31053.628     5526.472       18.226        2.483      557.986       74.276        0.018      335.807        6.684      864.795
11/15/2014  18:09:00      -62.374      443.790      -45.467      104.161      134.560       73.787    10849.468    18106.484     5444.531       11.865        1.720      448.152       50.493        0.013      335.828        6.720      864.789
11/15/2014  18:10:00      -80.710      430.248      -53.927      126.322      179.359       80.233    15957.219    32169.755     6437.409       12.454        2.728      437.753       86.005        0.039      335.812        6.690      864.796
11/15/2014  18:11:00      -91.799      481.242      -51.483       92.539      160.797       70.943     8563.536    25855.572     5032.864       14.105        1.973      489.919       79.624        0.026      335.814        6.695      864.807
11/15/2014  18:12:00     -163.100      323.531      -51.385      115.743      247.646       77.350    13396.403    61328.750     5982.958       10.730        4.035      362.317       93.858        0.067      335.830        6.722      864.856
11/15/2014  18:13:00      -74.458      417.706      -56.802      142.583      178.627       86.962    20329.808    31907.762     7562.463       12.151        2.990      424.290       80.427        0.036      335.802        6.675      864.896
11/15/2014  18:14:00      -77.779      379.925      -40.861      109.909      158.691       94.046    12079.954    25182.933     8844.653        9.908        2.305      387.805       89.540        0.053      335.775        6.629      864.901
11/15/2014  18:15:00      -77.895      443.126      -46.690       89.929      192.746       67.626     8087.274    37150.901     4573.341       12.720        2.491      449.920       83.742        0.035      335.785        6.647      864.911
11/15/2014  18:16:00     -110.662      344.565      -45.296       98.552      187.326       73.974     9712.543    35090.916     5472.105        9.164        2.514      361.900       85.624        0.056      335.780        6.638      864.935
11/15/2014  18:17:00     -115.273      363.781      -32.903      109.837      134.885       70.416    12064.117    18194.036     4958.395        9.095        1.761      381.608       57.240        0.022      335.714        6.529      864.955
11/15/2014  18:18:00      -86.576      372.091      -28.907      118.676      186.588       75.727    14084.013    34815.142     5734.588       10.070        2.732      382.030       95.452        0.062      335.708        6.520      864.965
11/15/2014  18:19:00     -105.186      346.185      -51.742      109.323      178.914       69.069    11951.596    32010.308     4770.499        9.115        2.437      361.812       66.003        0.033      335.678        6.471      864.991
11/15/2014  18:20:00     -174.998      364.331      -46.901      113.794      142.716       71.283    12949.178    20367.755     5081.277       10.197        1.920      404.180       60.837        0.023      335.689        6.486      865.025
11/15/2014  18:21:00     -139.373      266.400      -35.214      123.249      144.301       89.127    15190.209    20822.883     7943.599        6.779        2.198      300.655       75.265        0.063      335.691        6.490      865.038
11/15/2014  18:22:00     -200.223      316.772      -51.861      139.129      169.706       81.029    19356.957    28800.137     6565.671        9.891        2.736      374.744       73.575        0.039      335.682        6.475      865.062
11/15/2014  18:23:00     -202.922      463.505      -58.193      149.482      188.610       82.192    22344.998    35573.622     6755.561       16.202        3.234      505.978       94.321        0.035      335.669        6.454      865.130
11/15/2014  18:24:00     -189.834      384.685      -64.844      116.660      206.747       74.525    13609.491    42744.501     5553.993       12.505        3.095      428.975       82.531        0.037      335.664        6.446      865.169
11/15/2014  18:25:00     -210.225      432.200      -61.663      165.474      134.924       88.983    27381.664    18204.360     7918.028       14.414        2.675      480.615       93.159        0.038      335.626        6.381      865.208
11/15/2014  18:26:00     -121.446      292.216      -19.056       86.438      149.287       67.311     7471.593    22286.599     4530.742        6.739        1.714      316.448       60.178        0.036      335.660        6.440      865.217
11/15/2014  18:27:00     -173.949      308.291      -42.055      129.497      153.973       77.788    16769.391    23707.733     6050.958        8.679        2.326      353.979       85.573        0.058      335.588        6.319      865.254
11/15/2014  18:28:00     -239.965      493.156      -66.240      138.087      179.049       84.757    19067.974    32058.400     7183.709       18.173        2.916      548.439       84.434        0.024      335.542        6.241      865.283
11/15/2014  18:29:00     -190.782      459.756      -59.860      139.419      161.579       81.736    19437.713    26107.623     6680.803       15.178        2.611      497.768       81.110        0.027      335.547        6.251      865.306
11/15/2014  18:30:00     -177.938      369.709      -47.561      119.479      158.557       70.126    14275.350    25140.439     4917.690       10.746        2.217      410.301       61.033        0.022      335.565        6.280      865.306
11/15/2014  18:31:00     -166.956      353.522      -36.219      132.036      174.212       74.936    17433.497    30349.907     5615.403       10.377        2.670      390.963       72.385        0.034      335.547        6.250      865.343
11/15/2014  18:32:00     -168.083      331.691      -43.275      121.496      171.505       82.595    14761.349    29413.966     6821.866        9.556        2.550      371.848       76.431        0.042      335.533        6.227      865.382
11/15/2014  18:33:00     -165.715      343.131      -49.883      102.935      115.736       65.501    10595.636    13394.880     4290.366        8.798        1.414      381.052       70.759        0.034      335.510        6.188      865.421
11/15/2014  18:34:00      -99.220      425.143      -54.473       81.734      132.991       54.009     6680.493    17686.676     2916.981       11.042        1.364      436.568       41.705        0.009      335.503        6.178      865.435
11/15/2014  18:35:00     -126.308      325.983      -48.164      102.333      113.382       67.193    10472.019    12855.591     4514.929        7.618        1.392      349.598       71.095        0.041      335.519        6.203      865.469
11/15/2014  18:36:00      -70.154      318.159      -37.413       90.193      106.079       53.096     8134.732    11252.856     2819.154        6.487        1.110      325.802       43.452        0.018      335.517        6.199      865.523
11/15/2014  18:37:00     -132.988      188.685      -21.335       95.247      117.729       69.973     9072.010    13860.080     4896.248        4.078        1.391      230.842       66.340        0.083      335.532        6.225      865.554
11/15/2014  18:38:00     -184.691      298.901      -44.732      110.939      113.984       63.026    12307.514    12992.440     3972.285        7.736        1.464      351.358       47.587        0.018      335.445        6.081      865.592
11/15/2014  18:39:00     -157.320      295.691      -26.887      110.687      137.634       69.354    12251.528    18943.238     4809.949        7.445        1.800      334.937       70.370        0.044      335.453        6.094      865.626
11/15/2014  18:40:00     -144.632      404.052      -45.293       91.604      137.683       66.024     8391.238    18956.517     4359.195       10.896        1.585      429.157       68.244        0.025      335.451        6.090      865.653
11/15/2014  18:41:00     -150.421      320.009      -44.463       91.629       86.261       47.866     8395.899     7440.993     2291.151        7.257        0.906      353.599       40.388        0.013      335.460        6.105      865.647
11/15/2014  18:42:00      -82.093      248.498      -22.578       69.128      122.656       50.273     4778.629    15044.408     2527.344        4.567        1.118      261.707       59.712        0.052      335.477        6.133      865.647
11/15/2014  18:43:00      -97.628      168.608       -9.556       67.374       93.557       53.805     4539.211     8752.827     2894.963        2.712        0.809      194.832       45.535        0.055      335.511        6.192      865.663
11/15/2014  18:44:00      -60.671      483.301      -55.784       73.093      156.457       60.456     5342.590    24478.769     3654.892       13.692        1.674      487.094       67.323        0.019      335.508        6.185      865.722
11/15/2014  18:45:00     -143.698      296.582      -33.372       89.631      110.985       56.254     8033.759    12317.662     3164.546        6.662        1.176      329.560       60.457        0.034      335.506        6.182      865.778
11/15/2014  18:46:00      -45.964      238.218      -24.145       86.551      137.071       58.327     7491.037    18788.577     3402.041        4.456        1.484      242.611       60.859        0.063      335.535        6.231      865.788
11/15/2014  18:47:00      -71.620      451.441      -59.932       83.269      236.245       64.877     6933.736    55811.496     4209.039       13.972        3.348      457.087       98.877        0.047      335.510        6.187      865.786
11/15/2014  18:48:00      -71.833      582.400      -62.637      105.268      303.297       85.588    11081.414    91988.827     7325.252       22.931        5.520      586.813      132.656        0.051      335.459        6.104      865.817
11/15/2014  18:49:00      -51.263      416.810      -42.587      118.678      185.366       91.961    14084.514    34360.686     8456.797       11.753        2.845      419.951       90.432        0.046      335.456        6.098      865.813
11/15/2014  18:50:00      -59.360      445.134      -64.254      119.319      181.096       62.851    14237.019    32795.647     3950.216       12.838        2.549      449.074       72.092        0.026      335.442        6.075      865.838
11/15/2014  18:51:00      -89.060      458.348      -60.429      115.573      142.875       68.146    13357.224    20413.182     4643.936       13.003        1.921      466.920       70.565        0.023      335.455        6.098      865.886
11/15/2014  18:52:00      -67.467      279.561      -16.942      130.999      146.025       75.784    17160.809    21323.242     5743.143        6.360        2.211      287.586       77.861        0.073      335.471        6.123      865.899
11/15/2014  18:53:00      -84.100      462.160      -43.870      121.509      222.377       77.040    14764.466    49451.536     5935.106       14.636        3.508      469.749      102.815        0.048      335.447        6.084      865.917
11/15/2014  18:54:00      -42.358      540.367      -71.569       99.228      135.798       72.909     9846.178    18441.200     5315.749       16.625        1.680      542.025       49.781        0.008      335.439        6.069      865.948
11/15/2014  18:55:00      -55.019      565.933      -59.821      120.653      176.477       95.402    14557.170    31144.106     9101.599       19.083        2.740      568.601       99.575        0.031      335.378        5.969      865.980
11/15/2014  18:56:00     -148.138      414.383      -65.572      129.991      217.676       79.467    16897.659    47382.789     6315.078       13.426        3.530      440.066       72.854        0.027      335.409        6.021      866.017
11/15/2014  18:57:00     -120.285      470.072      -50.262      125.990      151.377       76.572    15873.452    22914.995     5863.341       14.130        2.233      485.218       85.637        0.031      335.382        5.975      866.040
11/15/2014  18:58:00      -26.327      446.884      -31.913      130.810      191.002       80.728    17111.213    36481.695     6516.991       13.075        3.005      447.659       95.058        0.045      335.339        5.905      866.046
11/15/2014  18:59:00      -41.834      437.158      -57.206      104.007      138.356       73.674    10817.514    19142.292     5427.892       11.575        1.769      439.155       78.857        0.032      335.343        5.910      866.089
11/15/2014  19:00:00     -105.547      254.418      -22.434       87.957       99.863       54.767     7736.457     9972.647     2999.406        4.854        1.035      275.442       49.161        0.032      335.383        5.977      866.106
11/15/2014  19:01:00      -76.292      422.206      -66.232      121.401      190.014       57.913    14738.115    36105.137     3353.919       12.132        2.710      429.043       64.606        0.023      335.344        5.911      866.096
11/15/2014  19:02:00      -38.135      388.046      -49.832      115.638      134.415       74.355    13372.086    18067.474     5528.688        9.574        1.848      389.915       74.059        0.036      335.304        5.845      866.100
11/15/2014  19:03:00      -23.983      336.472      -42.375      116.172      114.188       65.702    13495.848    13038.978     4316.710        7.321        1.543      337.325       65.373        0.038      335.311        5.855      866.117
11/15/2014  19:04:00      -55.418      263.984      -22.800       82.624       91.197       58.276     6826.791     8316.883     3396.101        4.591        0.927      269.738       39.462        0.021      335.323        5.877      866.120
11/15/2014  19:05:00       32.940      277.402      -32.384       89.315      121.506       60.737     7977.186    14763.807     3688.976        5.275        1.321      279.351       60.531        0.047      335.285        5.814      866.130
11/15/2014  19:06:00      -73.205      404.298      -40.625      104.494      146.072       67.617    10918.992    21337.001     4572.016       10.364        1.841      410.872       68.115        0.027      335.298        5.836      866.184
11/15/2014  19:07:00     -119.692      383.764      -57.021      142.074      167.252       82.916    20185.084    27973.078     6875.005       10.993        2.752      401.997       85.881        0.046      335.292        5.824      866.231
11/15/2014  19:08:00       14.239      417.796      -41.296      113.469      178.270       86.892    12875.254    31780.041     7550.143       11.432        2.610      418.038       89.007        0.045      335.262        5.776      866.226
11/15/2014  19:09:00      -79.465      399.464      -56.069      128.903      135.153       64.822    16615.902    18266.342     4201.886       10.405        1.954      407.292       64.184        0.025      335.266        5.781      866.266
11/15/2014  19:10:00      -78.212      414.362      -52.581       72.864      125.121       53.375     5309.228    15655.198     2848.894       10.219        1.191      421.679       47.506        0.013      335.232        5.726      866.308
11/15/2014  19:11:00      -51.940      440.384      -51.506       87.526      182.523       64.496     7660.881    33314.554     4159.768       12.220        2.257      443.436       85.412        0.037      335.227        5.716      866.349
11/15/2014  19:12:00     -121.527      205.580      -21.217      126.783      117.375       71.223    16074.052    13777.005     5072.662        4.620        1.746      238.813       75.883        0.101      335.238        5.737      866.364
11/15/2014  19:13:00       49.463      326.795      -35.887       94.535      171.384       76.451     8936.853    29372.467     5844.762        7.733        2.208      330.517       85.812        0.067      335.169        5.622      866.379
11/15/2014  19:14:00       55.240      285.684      -41.824       70.597      136.892       63.351     4983.868    18739.443     4013.369        5.707        1.387      290.975       76.812        0.070      335.137        5.570      866.367
11/15/2014  19:15:00      -28.143      299.243      -42.653       85.535      104.878       47.702     7316.320    10999.462     2275.461        5.637        1.030      300.564       44.258        0.022      335.138        5.572      866.394
11/15/2014  19:16:00      -12.765      247.066      -31.419       97.012       91.010       43.895     9411.418     8282.837     1926.764        4.090        0.981      247.396       34.591        0.020      335.141        5.576      866.435
11/15/2014  19:17:00      131.149      174.909       -8.954      136.357      129.796       76.944    18593.259    16846.968     5920.424        4.461        2.068      218.616       69.111        0.100      335.100        5.509      866.451
11/15/2014  19:18:00       35.782      270.877      -21.599       82.739      148.668       69.629     6845.747    22102.306     4848.224        5.445        1.690      273.231       76.587        0.079      335.046        5.418      866.506
11/15/2014  19:19:00      155.771      195.547       12.586      112.341      129.153       84.437    12620.525    16680.438     7129.606        4.954        1.822      250.006       70.722        0.080      335.033        5.396      866.533
11/15/2014  19:20:00       22.735      259.401      -33.112       93.837      161.369       66.950     8805.470    26039.796     4482.244        5.411        1.966      260.395       78.776        0.092      335.021        5.378      866.565
11/15/2014  19:21:00      -30.002      269.604      -22.621       66.898      170.581       49.538     4475.286    29097.751     2454.054        5.506        1.801      271.268       76.249        0.079      335.026        5.387      866.590
11/15/2014  19:22:00       28.785      238.767      -25.270       86.329      115.800       63.192     7452.707    13409.553     3993.258        4.166        1.243      240.496       62.559        0.068      334.986        5.318      866.616
11/15/2014  19:23:00       33.216      224.643      -16.548       82.928      104.436       68.315     6877.109    10906.860     4666.912        3.714        1.123      227.085       66.634        0.086      334.980        5.308      866.626
11/15/2014  19:24:00       10.672      146.350      -15.675       45.526       94.698       26.969     2072.621     8967.761      727.312        1.677        0.588      146.739       25.632        0.031      334.965        5.285      866.632
11/15/2014  19:25:00       75.327      118.279        0.330       73.574       54.947       41.027     5413.089     3019.152     1683.207        1.489        0.506      140.229       32.248        0.053      334.946        5.254      866.646
11/15/2014  19:26:00      122.487       76.300       30.884       96.315       72.120       50.130     9276.500     5201.366     2513.038        1.938        0.850      144.308       47.262        0.107      334.943        5.247      866.647
11/15/2014  19:27:00       84.722      174.038        5.216      102.744      115.425       66.591    10556.301    13322.976     4434.420        3.290        1.416      193.564       58.418        0.091      334.908        5.188      866.664
11/15/2014  19:28:00      -34.233      415.764      -51.971       80.375       96.101       48.331     6460.205     9235.401     2335.885        9.738        0.902      417.171       38.811        0.009      334.919        5.205      866.715
11/15/2014  19:29:00       51.884      160.111      -17.540       93.726       99.356       55.171     8784.617     9871.657     3043.798        2.516        1.085      168.307       51.029        0.092      334.892        5.162      866.750
11/15/2014  19:30:00       43.162      126.957        5.966       71.007       72.881       51.180     5042.012     5311.582     2619.343        1.549        0.649      134.094       43.617        0.106      334.908        5.189      866.780
11/15/2014  19:31:00       58.726      127.273      -11.077       49.276      101.414       47.589     2428.114    10284.761     2264.707        1.737        0.749      140.168       54.655        0.152      334.877        5.137      866.799
11/15/2014  19:32:00       94.033       90.756       17.450       72.071       54.275       39.748     5194.235     2945.755     1579.878        1.355        0.486      130.686       23.156        0.031      334.852        5.096      866.837
11/15/2014  19:33:00      131.595      102.088        2.946       71.341       59.604       51.901     5089.551     3552.581     2693.751        1.954        0.567      166.550       32.588        0.038      334.807        5.022      866.871
11/15/2014  19:34:00       56.705      167.385      -21.051       69.132       76.610       53.618     4779.254     5869.064     2874.853        2.260        0.676      176.730       46.171        0.068      334.786        4.985      866.912
11/15/2014  19:35:00      137.313      109.980        5.746       81.974       58.717       51.550     6719.695     3447.648     2657.390        2.190        0.641      175.928       26.310        0.022      334.775        4.967      866.932
11/15/2014  19:36:00      120.152      129.498       -2.473       92.639       75.754       44.246     8582.067     5738.598     1957.728        2.374        0.814      176.653       37.135        0.044      334.785        4.984      866.936
11/15/2014  19:37:00       96.798      125.577       12.383       75.892       81.044       45.619     5759.662     6568.112     2081.057        1.985        0.720      158.554       47.921        0.091      334.761        4.944      866.938
11/15/2014  19:38:00      122.868       92.341       15.765       74.638       46.086       54.046     5570.840     2123.895     2920.987        1.724        0.531      153.699       39.373        0.066      334.752        4.930      866.935
11/15/2014  19:39:00      186.934      116.306       30.750      117.800       96.777       54.183    13876.942     9365.821     2935.755        3.779        1.309      220.162       32.515        0.022      334.714        4.866      866.944
11/15/2014  19:40:00      219.003      157.812       18.886       96.363       76.776       65.477     9285.777     5894.511     4287.248        4.634        0.973      269.939       36.456        0.018      334.680        4.808      866.953
11/15/2014  19:41:00      143.713      242.206      -31.552      119.493      145.978       76.405    14278.476    21309.559     5837.690        6.086        2.071      281.633       87.338        0.096      334.661        4.775      866.979
11/15/2014  19:42:00      181.966      156.180       20.357      131.432       84.239       78.793    17274.325     7096.154     6208.363        4.424        1.529      239.799       53.711        0.050      334.632        4.728      866.978
11/15/2014  19:43:00       84.002      129.212       -2.167       75.513       70.070       50.803     5702.203     4909.868     2580.944        1.847        0.660      154.117       37.049        0.058      334.600        4.678      866.979
11/15/2014  19:44:00      100.551       72.353        6.648       72.263       44.749       38.400     5221.920     2002.464     1474.570        1.204        0.435      123.877       23.475        0.036      334.583        4.650      866.998
11/15/2014  19:45:00       92.465       98.979        4.296       79.971       60.030       46.794     6395.308     3603.600     2189.696        1.527        0.609      135.450       15.732        0.013      334.564        4.618      867.032
11/15/2014  19:46:00       88.845      120.452       -8.514      100.567       80.595       65.516    10113.808     6495.557     4292.361        2.168        1.045      149.673       50.853        0.115      334.555        4.603      867.065
11/15/2014  19:47:00      194.814      153.301       22.683      104.965       75.696       64.393    11017.685     5729.937     4146.430        4.143        1.045      247.899       43.260        0.030      334.543        4.581      867.100
11/15/2014  19:48:00      110.572      172.721       -6.507       89.356       96.575       68.056     7984.409     9326.690     4631.639        3.202        1.097      205.082       63.453        0.096      334.545        4.583      867.097
11/15/2014  19:49:00      196.901      112.910       12.214       95.933       90.838       62.977     9203.150     8251.575     3966.143        3.654        1.071      226.977       42.142        0.034      334.540        4.574      867.056
11/15/2014  19:50:00      126.625      117.744        6.408       64.831       70.868       52.237     4203.069     5022.300     2728.710        2.094        0.598      172.909       40.932        0.056      334.516        4.538      867.039
11/15/2014  19:51:00       31.664      121.451      -13.980       35.636       75.886       34.157     1269.904     5758.638     1166.728        1.207        0.410      125.511       40.288        0.103      334.484        4.487      867.034
11/15/2014  19:52:00       37.736      117.163       -7.247       49.930       80.998       43.812     2493.020     6560.603     1919.504        1.309        0.549      123.090       49.496        0.162      334.482        4.483      867.057
11/15/2014  19:53:00      -10.110      203.379      -31.389       45.934       61.422       31.341     2109.948     3772.617      982.252        2.466        0.343      203.630       33.053        0.026      334.482        4.479      867.114
11/15/2014  19:54:00       34.072      172.470      -14.663       45.970       75.332       37.580     2113.223     5674.839     1412.279        2.016        0.460      175.803       42.654        0.059      334.438        4.409      867.141
11/15/2014  19:55:00       68.577      111.585       -1.516       78.527       56.351       47.005     6166.412     3175.452     2209.460        1.435        0.578      130.973       41.928        0.102      334.420        4.382      867.141
11/15/2014  19:56:00       45.858      131.861        3.838       81.354       88.187       48.056     6618.430     7776.907     2309.374        1.810        0.835      139.608       53.176        0.145      334.412        4.366      867.140
11/15/2014  19:57:00       55.326      117.615        9.801       92.830       59.743       54.537     8617.382     3569.201     2974.318        1.607        0.758      129.978       45.615        0.123      334.387        4.325      867.134
11/15/2014  19:58:00       28.572      182.947      -26.159       38.907       56.266       33.427     1513.778     3165.810     1117.381        2.038        0.290      185.165       31.678        0.029      334.381        4.314      867.144
11/15/2014  19:59:00       12.217      156.229      -13.348       31.776       41.566       28.402     1009.699     1727.694      806.691        1.414        0.177      156.706       21.856        0.019      334.369        4.295      867.147
11/15/2014  20:00:00       62.953      122.388      -16.019       42.974       78.588       43.737     1846.782     6176.108     1912.939        1.457        0.497      137.630       44.494        0.105      334.354        4.272      867.148
11/15/2014  20:01:00       34.895       64.655       -4.832       42.745       40.651       29.401     1827.136     1652.520      864.395        0.488        0.217       73.470       27.469        0.140      334.326        4.227      867.161
11/15/2014  20:02:00       14.864       40.662        1.024       66.328       60.529       18.029     4399.408     3663.786      325.031        0.513        0.419       43.293        6.384        0.022      334.312        4.202      867.186
11/15/2014  20:03:00      -22.415      173.515      -18.370       29.343       50.035       21.902      861.019     2503.490      479.690        1.739        0.192      174.956       19.016        0.012      334.363        4.285      867.216
11/15/2014  20:04:00      -32.489       92.200      -14.019       57.823       54.281       26.885     3343.475     2946.445      722.803        0.838        0.351       97.757       26.527        0.074      334.374        4.304      867.223
11/15/2014  20:05:00      -31.860      142.310      -19.099       35.923       31.142       17.023     1290.481      969.804      289.768        1.209        0.128      145.832        9.277        0.004      334.447        4.425      867.190
11/15/2014  20:06:00      -54.888       95.030      -11.761       43.293       32.568       19.181     1874.313     1060.669      367.899        0.774        0.165      109.743       10.567        0.009      334.382        4.317      867.174
11/15/2014  20:07:00       -1.205      138.325      -23.261       23.356       40.739       15.699      545.513     1659.683      246.448        1.106        0.123      138.331       10.729        0.006      334.355        4.274      867.167
11/15/2014  20:08:00      -27.855      131.408      -16.147       25.727       46.487       22.890      661.882     2161.026      523.938        1.083        0.167      134.328       27.496        0.042      334.413        4.371      867.172
11/15/2014  20:09:00       -6.611      110.624      -14.549       27.412       27.123       13.318      751.425      735.673      177.364        0.708        0.083      110.821       12.016        0.012      334.419        4.379      867.180
11/15/2014  20:10:00       12.165       45.579        4.481       29.862       33.414       20.173      891.762     1116.469      406.966        0.233        0.121       47.174       16.500        0.122      334.388        4.327      867.177
11/15/2014  20:11:00      -31.162       71.272       -2.706       34.703       40.802       20.782     1204.324     1664.771      431.905        0.468        0.165       77.787       21.093        0.074      334.376        4.309      867.187
11/15/2014  20:12:00        1.739       61.012       -5.853       30.050       31.239       22.205      903.005      975.845      493.084        0.307        0.119       61.037       19.246        0.099      334.274        4.138      867.180
11/15/2014  20:13:00      -24.704       40.133       -0.735       24.992       22.505       15.312      624.576      506.467      234.465        0.179        0.068       47.126        1.410        0.001      334.326        4.226      867.180
11/15/2014  20:14:00      -35.235       49.075        2.109       27.265       32.960       20.443      743.401     1086.348      417.922        0.295        0.112       60.414       22.917        0.144      334.377        4.310      867.201
11/15/2014  20:15:00      -60.428      102.403      -14.504       22.778       29.021       18.927      518.848      842.198      358.217        0.803        0.086      118.903       15.494        0.017      334.361        4.282      867.201
11/15/2014  20:16:00        3.507       33.635        6.058       19.794       29.950       14.822      391.800      896.983      219.695        0.134        0.075       33.817       15.391        0.207      334.370        4.298      867.188
11/15/2014  20:17:00       60.741       65.416       -1.252       43.374       29.444       20.459     1881.309      866.973      418.580        0.557        0.158       89.268       10.619        0.014      334.308        4.195      867.201
11/15/2014  20:18:00       87.279       41.873       -6.391       31.159       25.996       24.070      970.869      675.788      579.354        0.582        0.111       96.804       11.971        0.015      334.223        4.053      867.224
11/15/2014  20:19:00      109.709       57.427       10.458       49.003       39.258       36.454     2401.289     1541.229     1328.879        1.036        0.264      123.830       23.801        0.037      334.125        3.891      867.257
11/15/2014  20:20:00      147.880       91.685        4.413       48.002       42.697       31.385     2304.164     1823.055      985.027        1.770        0.256      173.996       20.196        0.013      334.104        3.854      867.280
11/15/2014  20:21:00       93.880       94.630       21.046       55.046       39.793       43.648     3030.065     1583.493     1905.160        1.236        0.326      133.298       24.431        0.034      334.094        3.840      867.315
11/15/2014  20:22:00       46.281      152.404      -16.487       40.804       68.697       38.031     1664.963     4719.259     1446.380        1.673        0.392      159.276       42.238        0.070      334.108        3.861      867.360
11/15/2014  20:23:00       32.887      109.284      -14.830       27.312       40.390       21.379      745.926     1631.390      457.053        0.804        0.142      114.125       22.990        0.041      334.117        3.878      867.390
11/15/2014  20:24:00      -21.587       64.482       -8.071       36.521       40.654       25.183     1333.760     1652.781      634.161        0.415        0.181       67.999       27.273        0.161      334.202        4.019      867.377
11/15/2014  20:25:00       15.882      145.356      -23.333       25.568       44.555       22.212      653.744     1985.126      493.375        1.253        0.157      146.222       25.033        0.029      334.139        3.913      867.354
11/15/2014  20:26:00        1.429      122.801      -17.446       16.626       14.080       10.396      276.432      198.258      108.069        0.798        0.029      122.810        7.847        0.004      334.139        3.914      867.349
11/15/2014  20:27:00       33.450       56.807       -8.689       13.852       32.541       16.544      191.879     1058.937      273.703        0.297        0.076       65.924       13.174        0.040      334.053        3.769      867.358
11/15/2014  20:28:00       76.115       49.608        8.681       46.675       38.681       26.437     2178.568     1496.256      698.932        0.635        0.219       90.854       14.926        0.027      334.065        3.793      867.377
11/15/2014  20:29:00       91.761       69.844       31.734       44.827       37.265       43.908     2009.432     1388.691     1927.941        0.981        0.266      115.318       32.781        0.081      334.040        3.750      867.382
11/15/2014  20:30:00       82.805       57.802       28.282       41.238       33.484       34.985     1700.582     1121.163     1223.951        0.752        0.202      100.984       27.631        0.075      333.961        3.620      867.388
11/15/2014  20:31:00       98.232       79.266       41.160       32.816       29.177       26.555     1076.865      851.285      705.150        1.013        0.132      126.225       18.494        0.021      333.937        3.579      867.390
11/15/2014  20:32:00      129.581       66.950       12.778       36.673       45.244       23.156     1344.925     2047.058      536.209        1.268        0.196      145.854       18.139        0.015      333.969        3.633      867.371
11/15/2014  20:33:00       70.179       51.133       14.496       27.764       21.891       22.747      770.865      479.204      517.443        0.476        0.088       86.831        6.120        0.005      333.965        3.629      867.363
11/15/2014  20:34:00       49.428       35.595       18.516       29.098       25.823       18.979      846.699      666.842      360.213        0.296        0.094       60.911       12.544        0.042      333.959        3.616      867.402
11/15/2014  20:35:00       72.023       28.690       17.385       24.217       20.541       20.882      586.486      421.931      436.040        0.388        0.072       77.527       16.278        0.044      334.001        3.684      867.440
11/15/2014  20:36:00       41.660       36.427       18.934       21.574       16.989       18.943      465.429      288.623      358.820        0.227        0.056       55.340       14.553        0.069      333.942        3.588      867.459
11/15/2014  20:37:00       61.870       42.333       11.136       30.314       23.960       27.674      918.935      574.064      765.861        0.400        0.113       74.966       14.729        0.039      333.966        3.629      867.473
11/15/2014  20:38:00      133.190       68.021       22.200       39.188       31.323       27.609     1535.688      981.123      762.251        1.307        0.164      149.554       15.414        0.011      333.930        3.569      867.495
11/15/2014  20:39:00      104.699       62.901       41.245       29.630       31.982       31.240      877.951     1022.872      975.951        0.975        0.144      122.141       15.853        0.017      333.923        3.556      867.522
11/15/2014  20:40:00       81.801       49.562       10.717       45.092       22.977       27.579     2033.316      527.944      760.603        0.629        0.166       95.645       25.213        0.069      333.951        3.602      867.547
11/15/2014  20:41:00       81.161       36.356        9.030       40.750       42.595       26.291     1660.600     1814.345      691.227        0.608        0.208       88.932       11.829        0.018      333.915        3.542      867.591
11/15/2014  20:42:00       67.244        3.611        9.486       40.720       44.038       23.468     1658.148     1939.371      550.759        0.439        0.207       67.341       24.654        0.134      333.946        3.594      867.637
11/15/2014  20:43:00       53.588       41.288       15.977       21.002       16.783       19.370      441.064      281.669      375.198        0.296        0.055       67.649        6.125        0.008      333.891        3.504      867.680
11/15/2014  20:44:00       69.617       32.015        8.010       30.070       19.282       20.432      904.194      371.793      417.477        0.381        0.085       76.625       10.664        0.019      333.889        3.500      867.721
11/15/2014  20:45:00       48.419       21.340        2.840       21.387       16.074       14.439      457.410      258.378      208.471        0.187        0.046       52.914        9.927        0.035      333.949        3.601      867.751
11/15/2014  20:46:00       75.761       17.965       16.992       28.494       18.348       21.647      811.883      336.640      468.594        0.398        0.081       77.862       12.866        0.027      333.878        3.482      867.757
11/15/2014  20:47:00       84.362       38.748       18.302       43.641       34.329       25.160     1904.525     1178.454      633.030        0.633        0.186       92.835       14.672        0.025      333.815        3.378      867.745
11/15/2014  20:48:00       58.004       34.845       12.936       26.437       19.197       20.264      698.918      368.541      410.634        0.311        0.074       67.666        7.801        0.013      333.751        3.272      867.707
11/15/2014  20:49:00       91.481       52.826       16.283       39.569       29.839       20.415     1565.735      890.373      416.766        0.715        0.144      105.638        6.169        0.003      333.816        3.381      867.682
11/15/2014  20:50:00      125.250       58.871       18.057       46.102       40.365       37.682     2125.401     1629.363     1419.960        1.233        0.259      138.395       23.656        0.029      333.847        3.431      867.675
11/15/2014  20:51:00      118.132       48.726       31.757       57.520       34.904       33.786     3308.576     1218.288     1141.473        1.150        0.283      127.787       30.191        0.056      333.831        3.403      867.670
11/15/2014  20:52:00      102.497       63.109       37.622       48.313       36.981       30.108     2334.099     1367.596      906.513        1.026        0.230      120.368       22.009        0.033      333.772        3.306      867.649
11/15/2014  20:53:00       81.314       31.009       17.833       55.624       38.292       36.759     3094.064     1466.250     1351.245        0.690        0.296       87.026       22.611        0.068      333.799        3.351      867.625
11/15/2014  20:54:00       59.090       31.665       17.414       59.194       42.447       42.255     3503.883     1801.724     1785.456        0.594        0.355       67.040       25.831        0.148      333.752        3.271      867.613
11/15/2014  20:55:00      122.282       63.672        6.607       29.052       30.047       21.936      843.991      902.850      481.209        1.064        0.111      137.866       10.969        0.006      333.766        3.296      867.615
11/15/2014  20:56:00      115.547       80.242       11.764       43.356       32.506       31.918     1879.757     1056.672     1018.773        1.194        0.198      140.677       20.060        0.020      333.722        3.222      867.617
11/15/2014  20:57:00      100.137       57.122       16.979       64.621       39.361       30.886     4175.875     1549.310      953.922        1.013        0.334      115.284       28.313        0.060      333.744        3.258      867.629
11/15/2014  20:58:00       80.815       67.994        4.760       47.901       37.439       35.159     2294.481     1401.698     1236.189        0.805        0.247      105.613       30.035        0.081      333.696        3.181      867.665
11/15/2014  20:59:00      116.056      104.153        7.101       75.770       50.522       46.537     5741.116     2552.460     2165.689        1.741        0.523      155.938       27.725        0.032      333.732        3.236      867.704
11/15/2014  21:00:00       86.295       78.767       16.065       64.804       45.609       42.659     4199.568     2080.185     1819.815        1.100        0.405      116.838       23.206        0.039      333.703        3.190      867.750
11/15/2014  21:01:00       21.218       76.323       -4.853       38.471       43.245       29.033     1480.011     1870.164      842.906        0.525        0.210       79.217       25.335        0.102      333.698        3.182      867.796
11/15/2014  21:02:00       41.920       92.666       -7.173       43.899       49.862       32.710     1927.150     2486.226     1069.950        0.794        0.274      101.707       23.046        0.051      333.688        3.166      867.829
11/15/2014  21:03:00       67.086       97.871       -9.159       43.603       51.803       36.875     1901.189     2683.564     1359.752        1.005        0.297      118.656       30.516        0.066      333.663        3.126      867.832
11/15/2014  21:04:00       52.368      207.215      -19.263       65.089      110.015       64.333     4236.535    12103.198     4138.682        3.326        1.024      213.730       59.667        0.078      333.645        3.096      867.843
11/15/2014  21:05:00       66.329      116.099        9.037       83.137       90.048       64.180     6911.692     8108.623     4119.049        1.855        0.957      133.710       48.034        0.129      333.634        3.076      867.874
11/15/2014  21:06:00       54.026       91.196        1.178       60.553       66.340       51.771     3666.653     4401.037     2680.280        1.099        0.537      105.998       40.873        0.149      333.619        3.051      867.885
11/15/2014  21:07:00       65.577      119.330       -3.549       75.270       72.808       50.413     5665.598     5300.988     2541.443        1.603        0.675      136.162       36.371        0.071      333.615        3.046      867.885
11/15/2014  21:08:00       57.836      100.049        1.664       51.866       77.649       41.322     2690.058     6029.298     1707.544        1.189        0.521      115.563       40.104        0.120      333.642        3.091      867.869
11/15/2014  21:09:00       68.818      178.534      -19.806       66.702       85.109       60.696     4449.219     7243.610     3684.050        2.619        0.769      191.338       56.781        0.088      333.614        3.042      867.871
11/15/2014  21:10:00       84.400       98.033       19.339       57.827       71.621       47.453     3343.939     5129.559     2251.782        1.391        0.536      129.360       45.395        0.123      333.601        3.021      867.890
11/15/2014  21:11:00      102.788      101.371        1.223       75.265       61.169       44.575     5664.819     3741.603     1986.920        1.612        0.570      144.366       27.761        0.037      333.596        3.014      867.900
11/15/2014  21:12:00      161.747      116.630       13.142       79.855       58.579       49.806     6376.852     3431.493     2480.651        2.611        0.614      199.411       35.108        0.031      333.588        2.998      867.906
11/15/2014  21:13:00       85.416       78.120        4.280       69.549       55.377       46.777     4837.012     3066.650     2188.122        1.175        0.505      115.752       36.175        0.098      333.598        3.017      867.937
11/15/2014  21:14:00       53.766       69.212        5.215       53.301       64.491       32.188     2840.975     4159.038     1036.087        0.787        0.402       87.641       40.548        0.214      333.562        2.956      867.982
11/15/2014  21:15:00       66.084      146.145      -20.632       53.716       61.957       40.689     2885.426     3838.689     1655.626        1.726        0.419      160.391       38.558        0.058      333.559        2.953      867.979
11/15/2014  21:16:00      127.385      109.417       -0.349       68.972       59.953       50.581     4757.203     3594.341     2558.435        1.955        0.545      167.925       36.902        0.048      333.531        2.905      867.959
11/15/2014  21:17:00       78.081       90.887      -13.688       62.354       55.094       39.321     3888.062     3035.388     1546.165        1.151        0.423      119.821       33.977        0.080      333.517        2.883      867.935
11/15/2014  21:18:00      110.491      139.635        7.032       88.922       71.309       56.217     7907.126     5084.961     3160.318        2.395        0.808      178.062       42.762        0.058      333.503        2.857      867.897
11/15/2014  21:19:00       81.968      155.835       -1.784       79.334       80.681       64.718     6293.902     6509.371     4188.382        2.400        0.850      176.077       50.314        0.082      333.490        2.835      867.879
11/15/2014  21:20:00       69.723      151.326      -14.866       51.669       71.143       56.854     2669.723     5061.349     3232.385        1.947        0.548      166.616       45.205        0.074      333.483        2.825      867.895
11/15/2014  21:21:00       64.340       97.565        5.032       57.676       58.540       48.877     3326.490     3426.890     2388.931        1.141        0.457      116.869       29.149        0.062      333.442        2.758      867.924
11/15/2014  21:22:00       95.402       85.736        7.495       55.219       46.252       33.999     3049.134     2139.220     1155.916        1.143        0.317      128.266       17.697        0.019      333.426        2.732      867.941
11/15/2014  21:23:00      128.986      117.027       10.951       78.956       54.110       48.621     6234.093     2927.910     2364.049        2.099        0.576      174.163       27.930        0.026      333.422        2.723      867.959
11/15/2014  21:24:00       75.992       86.825       -1.107       50.158       52.394       29.458     2515.813     2745.124      867.785        0.972        0.306      115.383       24.718        0.046      333.392        2.675      867.991
11/15/2014  21:25:00      172.660      101.456        8.691       60.691       58.018       45.890     3683.343     3366.083     2105.890        2.467        0.458      200.261       25.421        0.016      333.400        2.689      868.008
11/15/2014  21:26:00       67.102       59.436        7.375       40.468       34.282       31.298     1637.640     1175.235      979.573        0.594        0.190       89.640       19.601        0.048      333.382        2.660      868.022
11/15/2014  21:27:00       74.019       49.835        7.814       54.769       33.777       29.016     2999.660     1140.883      841.948        0.650        0.249       89.232       20.598        0.053      333.382        2.660      868.050
11/15/2014  21:28:00      110.928      107.941       10.013       63.930       52.905       49.536     4087.099     2798.924     2453.771        1.670        0.467      154.778       24.272        0.025      333.360        2.623      868.081
11/15/2014  21:29:00      121.464       94.447       15.275       88.755       53.795       44.873     7877.369     2893.906     2013.620        1.834        0.639      153.863       32.239        0.044      333.350        2.606      868.096
11/15/2014  21:30:00       78.197       75.810       12.740       66.643       60.797       40.603     4441.267     3696.262     1648.570        1.090        0.489      108.913       32.957        0.092      333.336        2.584      868.092
11/15/2014  21:31:00       58.571       70.822        5.451       47.792       41.142       31.150     2284.123     1692.687      970.345        0.671        0.247       91.904       25.984        0.080      333.299        2.524      868.075
11/15/2014  21:32:00       90.418       60.206        2.541       44.895       30.858       22.167     2015.555      952.193      491.390        0.763        0.173      108.629       14.402        0.018      333.287        2.503      868.035
11/15/2014  21:33:00      111.422       76.708       25.181       40.862       32.091       35.188     1669.665     1029.819     1238.213        1.143        0.197      135.274       24.023        0.032      333.261        2.460      868.040
11/15/2014  21:34:00       76.773       53.704       16.132       54.252       33.608       28.155     2943.274     1129.513      792.678        0.695        0.243       93.692       23.196        0.061      333.271        2.474      868.086
11/15/2014  21:35:00       85.988       63.932       -2.810       31.594       34.196       27.978      998.169     1169.363      782.742        0.722        0.148      107.150       20.748        0.037      333.248        2.437      868.137
11/15/2014  21:36:00      103.895       47.553        1.465       29.691       26.455       26.239      881.555      699.886      688.493        0.766        0.113      114.260       21.037        0.034      333.248        2.438      868.156
11/15/2014  21:37:00      118.744       80.474        7.756       36.164       32.273       28.444     1307.854     1041.546      809.042        1.190        0.158      143.444       13.569        0.009      333.223        2.396      868.171
11/15/2014  21:38:00      123.299       60.170       12.538       46.117       39.949       26.816     2126.792     1595.934      719.113        1.171        0.222      137.197       16.291        0.014      333.227        2.402      868.190
11/15/2014  21:39:00      132.215       71.026       16.508       36.313       30.612       24.815     1318.605      937.083      615.790        1.283        0.144      150.085       17.909        0.014      333.193        2.346      868.209
11/15/2014  21:40:00      122.791      102.525       15.870       53.342       43.602       40.530     2845.328     1901.163     1642.678        1.611        0.319      159.965       30.507        0.036      333.182        2.327      868.250
11/15/2014  21:41:00      136.726      116.809       -8.963       80.214       72.978       53.223     6434.329     5325.744     2832.676        2.350        0.730      179.829       42.269        0.055      333.204        2.362      868.298
11/15/2014  21:42:00      235.831      142.619       18.919       91.638       78.022       52.102     8397.472     6087.381     2714.603        4.675        0.860      275.602       28.290        0.011      333.239        2.420      868.330
11/15/2014  21:43:00      224.300      141.521       17.670       60.099       54.144       46.476     3611.874     2931.587     2160.031        3.968        0.435      265.215       26.958        0.010      333.252        2.439      868.337
11/15/2014  21:44:00      105.745       72.475       29.092       55.843       44.018       39.426     3118.444     1937.584     1554.381        1.194        0.331      128.198       31.902        0.062      333.233        2.412      868.333
11/15/2014  21:45:00      117.430       76.589       36.099       63.175       42.052       50.192     3991.136     1768.413     2519.264        1.462        0.414      140.199       39.918        0.081      333.315        2.547      868.315
11/15/2014  21:46:00      122.066       77.396        7.576       60.410       37.605       38.018     3649.404     1414.141     1445.378        1.373        0.325      144.535       19.640        0.018      333.226        2.399      868.316
11/15/2014  21:47:00      102.561       56.654        7.183       53.376       43.472       35.790     2848.966     1889.795     1280.899        0.990        0.301      117.169       30.259        0.067      333.223        2.394      868.304
11/15/2014  21:48:00      221.280      145.017       42.242       57.586       47.714       42.423     3316.112     2276.638     1799.672        3.958        0.370      264.565       27.437        0.011      333.218        2.384      868.271
11/15/2014  21:49:00      147.382      109.901       25.495       56.476       40.860       42.378     3189.560     1669.519     1795.871        2.055        0.333      183.846       18.874        0.011      333.192        2.342      868.239
11/15/2014  21:50:00      139.178      116.567       14.011       75.662       43.705       43.011     5724.675     1910.156     1849.918        2.132        0.474      181.544       26.635        0.022      333.181        2.326      868.221
11/15/2014  21:51:00      126.776       88.845        5.605       75.690       45.023       28.591     5728.959     2027.036      817.466        1.628        0.429      154.808       12.859        0.007      333.167        2.303      868.221
11/15/2014  21:52:00      132.543      121.196       15.415       93.530       64.838       61.241     8747.949     4203.912     3750.498        2.459        0.835      179.600       34.281        0.036      333.122        2.228      868.218
11/15/2014  21:53:00      144.427      117.671        7.713      100.437       62.424       52.870    10087.639     3896.747     2795.258        2.577        0.839      186.295       39.277        0.044      333.104        2.199      868.207
11/15/2014  21:54:00      142.057       89.521       19.042       75.815       41.387       46.460     5747.965     1712.905     2158.530        1.909        0.481      167.911       24.558        0.021      333.095        2.185      868.214
11/15/2014  21:55:00       82.904      135.395       -8.104       77.493       96.895       66.858     6005.158     9388.622     4469.975        2.256        0.993      158.760       55.968        0.124      333.058        2.124      868.219
11/15/2014  21:56:00      135.194      111.488       17.697      129.456       84.823       66.963    16758.923     7194.890     4484.004        2.972        1.422      175.234       47.772        0.074      333.040        2.094      868.217
11/15/2014  21:57:00       79.020      140.127        0.149      115.385       98.921       52.788    13313.627     9785.309     2786.592        2.588        1.294      160.872       42.670        0.070      333.027        2.073      868.210
11/15/2014  21:58:00       79.578      169.962      -19.457       76.355      100.565       58.687     5830.033    10113.229     3444.173        2.749        0.969      187.670       50.945        0.074      332.997        2.023      868.209
11/15/2014  21:59:00      165.670      123.721        7.752       90.178       59.163       43.279     8132.140     3500.267     1873.100        2.816        0.675      206.769       34.226        0.027      332.997        2.022      868.204
11/15/2014  22:00:00      142.154      122.385       17.018       89.653       78.044       54.589     8037.596     6090.868     2979.910        2.629        0.855      187.578       37.492        0.040      332.985        2.002      868.197
11/15/2014  22:01:00      136.321       97.143       31.180       93.520       52.357       46.932     8746.033     2741.203     2202.608        2.134        0.684      167.392       37.698        0.051      332.957        1.956      868.223
11/15/2014  22:02:00      164.670      130.276       22.262       98.141       69.991       63.444     9631.581     4898.683     4025.089        3.157        0.928      209.971       36.179        0.030      332.978        1.989      868.258
11/15/2014  22:03:00       97.857      141.856        9.371       99.251       85.773       65.139     9850.775     7356.982     4243.123        2.561        1.073      172.334       55.123        0.102      332.940        1.927      868.275
11/15/2014  22:04:00      120.621      127.291       -0.119       83.699       70.950       61.761     7005.555     5033.883     3814.382        2.330        0.793      175.363       50.077        0.082      332.935        1.919      868.273
11/15/2014  22:05:00       85.224      108.611      -15.208       56.288       77.382       45.101     3168.310     5987.974     2034.101        1.524        0.560      138.056       44.407        0.103      332.919        1.894      868.298
11/15/2014  22:06:00       60.820       62.575       16.195       74.706       54.795       55.542     5580.932     3002.465     3084.904        0.977        0.583       87.262       38.002        0.190      332.887        1.842      868.300
11/15/2014  22:07:00       31.296       78.963       -0.185       34.795       60.744       35.070     1210.693     3689.840     1229.914        0.667        0.307       84.939       30.619        0.130      332.879        1.830      868.295
11/15/2014  22:08:00       49.520       73.941       -3.716       35.832       33.812       26.129     1283.946     1143.261      682.749        0.552        0.155       88.992       19.829        0.050      332.881        1.833      868.309
11/15/2014  22:09:00       79.991       95.978        0.195       50.836       54.168       32.113     2584.285     2934.133     1031.218        1.108        0.327      124.941       25.167        0.041      332.851        1.785      868.320
11/15/2014  22:10:00       73.502      101.049       -4.123       56.564       62.105       39.308     3199.528     3857.056     1545.131        1.211        0.430      124.954       38.760        0.096      332.839        1.764      868.349
11/15/2014  22:11:00       72.281       66.466       15.490       55.885       39.778       33.334     3123.151     1582.254     1111.178        0.785        0.291       98.195       21.074        0.046      332.809        1.714      868.394
11/15/2014  22:12:00       90.533       79.289       16.613       63.265       37.990       33.301     4002.417     1443.233     1108.940        1.066        0.328      120.346       27.763        0.053      332.803        1.704      868.442
11/15/2014  22:13:00       69.903       72.979       -0.496       55.543       52.218       34.994     3085.020     2726.746     1224.569        0.862        0.352      101.056       31.245        0.096      332.784        1.673      868.488
11/15/2014  22:14:00       62.333       47.471       16.172       57.901       41.227       31.753     3352.543     1699.687     1008.277        0.623        0.303       78.351       24.341        0.097      332.771        1.651      868.515
11/15/2014  22:15:00       40.640       66.354        9.055       52.187       39.967       35.445     2723.455     1597.392     1256.333        0.586        0.279       77.811       23.829        0.094      332.761        1.635      868.522
11/15/2014  22:16:00       31.661       46.390        1.983       26.518       34.141       26.379      703.226     1165.641      695.827        0.286        0.128       56.165       23.639        0.177      332.750        1.617      868.516
11/15/2014  22:17:00       26.542      109.040       -0.027       35.631       49.802       32.395     1269.558     2480.285     1049.450        0.870        0.240      112.224       30.888        0.076      332.730        1.582      868.529
11/15/2014  22:18:00       29.194       79.735        7.539       37.859       62.366       40.832     1433.284     3889.477     1667.261        0.713        0.350       84.911       41.680        0.241      332.693        1.521      868.537
11/15/2014  22:19:00       34.056      107.533        0.938       51.731       60.739       38.501     2676.131     3689.247     1482.339        1.028        0.392      112.797       37.317        0.109      332.685        1.509      868.560
11/15/2014  22:20:00       20.897      134.468      -17.678       34.451       71.347       31.819     1186.865     5090.384     1012.456        1.306        0.364      136.082       37.762        0.077      332.664        1.473      868.580
11/15/2014  22:21:00       38.604      154.345      -28.894       30.099       44.552       21.290      905.973     1984.906      453.274        1.475        0.167      159.099       18.066        0.013      332.663        1.472      868.556
11/15/2014  22:22:00       40.738      161.129      -14.612       45.200       65.108       40.236     2043.009     4239.067     1618.917        1.787        0.395      166.199       40.162        0.058      332.682        1.502      868.516
11/15/2014  22:23:00       28.226      181.385      -23.021       42.064       64.528       32.945     1769.346     4163.829     1085.379        2.062        0.351      183.568       33.336        0.033      332.683        1.503      868.490
11/15/2014  22:24:00       38.696      155.790      -13.128       48.061       58.846       32.750     2309.847     3462.909     1072.586        1.639        0.342      160.524       29.479        0.034      332.675        1.492      868.482
11/15/2014  22:25:00       27.916      151.908      -17.988       47.711       71.603       37.766     2276.373     5127.027     1426.271        1.650        0.441      154.452       40.753        0.070      332.700        1.534      868.471
11/15/2014  22:26:00       40.930      168.614      -22.465       42.845       54.910       31.132     1835.729     3015.068      969.170        1.821        0.291      173.511       28.231        0.026      332.716        1.559      868.456
11/15/2014  22:27:00       24.066      132.994       -6.693       41.054       46.255       32.236     1685.451     2139.524     1039.131        1.159        0.243      135.153       26.282        0.038      332.711        1.552      868.453
11/15/2014  22:28:00       38.334      113.124      -10.227       41.589       56.371       28.895     1729.671     3177.654      834.921        1.006        0.287      119.443       27.863        0.054      332.687        1.513      868.466
11/15/2014  22:29:00       31.754      150.474      -11.760       51.317       49.874       37.717     2633.473     2487.436     1422.604        1.516        0.327      153.788       35.546        0.053      332.747        1.612      868.468
11/15/2014  22:30:00       44.643      137.326      -12.063       47.189       66.907       46.804     2226.777     4476.524     2190.579        1.494        0.445      144.400       49.784        0.119      332.783        1.670      868.465
11/15/2014  22:31:00       28.700       96.202       -5.944       36.733       61.864       30.117     1349.315     3827.180      907.046        0.810        0.304      100.392       30.305        0.091      332.763        1.638      868.474
11/15/2014  22:32:00       61.928      126.128       -6.825       56.604       70.569       50.440     3203.980     4979.917     2544.197        1.526        0.536      140.511       49.927        0.126      332.793        1.685      868.502
11/15/2014  22:33:00       64.347       79.453        6.238       54.513       60.014       54.608     2971.629     3601.702     2982.041        1.002        0.478      102.241       42.671        0.174      332.776        1.660      868.544
11/15/2014  22:34:00       75.671       70.505        2.816       38.318       25.476       28.132     1468.240      649.028      791.384        0.681        0.145      103.426       17.871        0.030      332.750        1.616      868.583
11/15/2014  22:35:00      102.214       83.753        6.868       48.141       32.548       23.431     2317.549     1059.389      549.025        1.072        0.196      132.145       14.157        0.011      332.699        1.531      868.655
11/15/2014  22:36:00      116.385       73.190       23.645       39.140       32.406       29.956     1531.931     1050.167      897.365        1.147        0.174      137.485       22.326        0.026      332.665        1.476      868.728
11/15/2014  22:37:00      144.563       87.768        8.161       39.178       29.638       24.131     1534.878      878.438      582.327        1.583        0.150      169.120       17.884        0.011      332.655        1.460      868.792
11/15/2014  22:38:00      164.709       78.393       23.152       35.315       33.542       33.312     1247.179     1125.041     1109.670        1.865        0.174      182.413       24.299        0.018      332.633        1.423      868.831
11/15/2014  22:39:00      154.439       77.820       17.551       51.413       44.476       39.660     2643.329     1978.132     1572.895        1.820        0.310      172.937       24.438        0.020      332.559        1.298      868.851
11/15/2014  22:40:00      174.707      128.027       19.126       45.295       42.829       35.911     2051.597     1834.299     1289.612        2.623        0.259      216.594       16.974        0.006      332.547        1.277      868.837
11/15/2014  22:41:00       94.923       77.551       15.736       41.864       41.535       36.578     1752.569     1725.173     1337.925        1.004        0.241      122.575       19.217        0.025      332.520        1.234      868.784
11/15/2014  22:42:00       71.422       63.445        1.152       50.435       39.916       33.248     2543.702     1593.271     1105.421        0.718        0.262       95.532       24.608        0.066      332.524        1.242      868.731
11/15/2014  22:43:00       33.773      104.657        4.520       36.471       59.694       39.686     1330.106     3563.411     1574.978        0.929        0.323      109.972       35.750        0.106      332.496        1.195      868.712
11/15/2014  22:44:00       54.119      103.592        0.315       43.015       60.867       43.920     1850.275     3704.770     1928.985        1.057        0.374      116.876       39.872        0.116      332.468        1.150      868.715
11/15/2014  22:45:00       66.316       52.512        3.367       44.072       32.200       32.524     1942.350     1036.825     1057.804        0.560        0.202       84.589       23.560        0.078      332.427        1.083      868.724
11/15/2014  22:46:00      105.387       65.457       -3.064       44.694       30.055       25.824     1997.587      903.292      666.880        0.948        0.178      124.061       13.284        0.011      332.398        1.034      868.763
11/15/2014  22:47:00       52.287       89.722       -2.521       43.255       67.970       36.363     1871.007     4619.951     1322.291        0.930        0.391      103.846       37.457        0.130      332.395        1.029      868.802
11/15/2014  22:48:00       41.286       94.656       -2.583       57.865       68.415       42.602     3348.403     4680.623     1814.931        1.026        0.492      103.268       43.539        0.178      332.398        1.035      868.834
11/15/2014  22:49:00       36.175       84.422        6.238       49.101       65.476       41.975     2410.901     4287.164     1761.872        0.847        0.423       91.846       42.817        0.217      332.378        1.000      868.857
11/15/2014  22:50:00       -0.134      238.499      -32.177       43.434       44.662       23.139     1886.496     1994.733      535.397        3.117        0.221      238.499       20.865        0.008      332.476        1.159      868.864
11/15/2014  22:51:00       33.448      229.977      -39.086       27.384       38.603       19.639      749.863     1490.160      385.672        2.908        0.131      232.397       16.657        0.005      332.537        1.260      868.876
11/15/2014  22:52:00       46.405      158.191      -28.149       38.860       41.179       31.939     1510.092     1695.707     1020.131        1.610        0.211      164.857       29.103        0.031      332.484        1.175      868.886
11/15/2014  22:53:00       44.909       97.617       -5.860       33.199       57.428       29.897     1102.202     3297.960      893.828        0.844        0.265      107.451       34.158        0.101      332.446        1.114      868.891
11/15/2014  22:54:00       42.320      105.447      -17.279       29.757       42.728       23.055      885.492     1825.695      531.536        0.823        0.162      113.623       22.227        0.038      332.411        1.058      868.902
11/15/2014  22:55:00       35.315      102.408       -9.902       34.143       46.636       25.631     1165.747     2174.948      656.934        0.791        0.200      108.326       21.845        0.041      332.385        1.012      868.935
11/15/2014  22:56:00       39.482       74.842      -17.234       44.770       52.130       35.581     2004.376     2717.527     1265.988        0.672        0.299       84.618       30.532        0.130      332.348        0.953      868.971
11/15/2014  22:57:00       48.543      113.558      -17.869       38.796       42.517       23.808     1505.120     1807.717      566.834        0.972        0.194      123.498       26.214        0.045      332.346        0.946      868.979
11/15/2014  22:58:00        9.963       76.760       -7.340       23.070       29.074       20.093      532.231      845.322      403.746        0.391        0.089       77.404       18.279        0.056      332.327        0.916      868.968
11/15/2014  22:59:00       14.980       22.254       -0.016       21.385       23.186       17.751      457.319      537.582      315.110        0.101        0.066       26.826       11.902        0.197      332.281        0.841      868.956
11/15/2014  23:00:00       72.393       44.390       20.159       31.760       24.660       28.308     1008.695      608.127      801.329        0.502        0.121       84.919       12.875        0.023      332.309        0.886      868.976
11/15/2014  23:01:00        8.401       24.749        4.164       21.103       30.823       19.759      445.332      950.073      390.424        0.124        0.089       26.136       17.254        0.436      332.275        0.832      868.996
11/15/2014  23:02:00       18.160       61.310       -0.477       24.599       21.917       19.828      605.128      480.363      393.154        0.278        0.074       63.943       14.464        0.051      332.286        0.849      869.028
11/15/2014  23:03:00       39.778       57.382       -0.229       22.902       29.226       21.676      524.499      854.151      469.848        0.336        0.092       69.821       19.464        0.078      332.277        0.836      869.060
11/15/2014  23:04:00       66.763       53.590        6.002       29.568       32.800       22.078      874.239     1075.809      487.433        0.490        0.122       85.611       18.165        0.045      332.266        0.819      869.096
11/15/2014  23:05:00       49.320       72.025        5.049       30.060       53.840       28.740      903.604     2898.778      826.014        0.614        0.231       87.293       30.559        0.123      332.230        0.758      869.127
11/15/2014  23:06:00       68.959       86.093       -4.062       41.786       34.411       25.869     1746.088     1184.151      669.180        0.789        0.180      110.305       19.330        0.031      332.206        0.718      869.163
11/15/2014  23:07:00       55.214       52.936       -4.800       41.512       26.391       23.764     1723.261      696.462      564.724        0.443        0.149       76.491       14.584        0.036      332.170        0.659      869.194
11/15/2014  23:08:00       32.822      105.115      -10.245       28.860       51.323       32.004      832.896     2634.009     1024.258        0.836        0.225      110.120       31.585        0.082      332.170        0.658      869.228
11/15/2014  23:09:00       30.166      122.585      -17.855       30.035       48.336       26.258      902.079     2336.393      689.499        1.009        0.196      126.242       26.366        0.044      332.146        0.618      869.268
11/15/2014  23:10:00       18.520      138.726      -16.173       32.337       62.212       32.862     1045.685     3870.337     1079.883        1.292        0.300      139.956       33.783        0.058      332.130        0.592      869.298
11/15/2014  23:11:00       24.540      134.616      -17.099       33.551       36.216       27.023     1125.668     1311.616      730.261        1.109        0.158      136.834       24.579        0.032      332.116        0.570      869.312
11/15/2014  23:12:00       13.356      182.900      -33.549       30.394       33.806       14.652      923.811     1142.827      214.687        1.852        0.114      183.387       12.844        0.005      332.119        0.574      869.312
11/15/2014  23:13:00       23.703      191.048      -22.394       47.772       44.110       34.291     2282.131     1945.669     1175.889        2.148        0.270      192.513       27.832        0.021      332.101        0.542      869.315
11/15/2014  23:14:00       18.451      133.156       -8.042       30.566       84.368       33.384      934.302     7118.041     1114.495        1.365        0.458      134.428       43.199        0.103      332.076        0.501      869.343
11/15/2014  23:15:00       41.444      163.936      -16.805       41.647       67.225       34.035     1734.496     4519.183     1158.370        1.814        0.371      169.094       35.825        0.045      332.042        0.447      869.381
11/15/2014  23:16:00       32.933       88.294        3.902       51.169       69.214       35.704     2618.298     4790.556     1274.747        0.879        0.434       94.235       35.638        0.143      332.017        0.407      869.414
11/15/2014  23:17:00       54.268       89.443       -5.138       38.337       49.380       33.257     1469.732     2438.431     1106.023        0.799        0.251      104.619       32.517        0.097      332.024        0.417      869.438
11/15/2014  23:18:00       75.176       55.002       -0.724       48.054       30.545       31.916     2309.166      932.986     1018.621        0.647        0.213       93.149       21.632        0.054      331.995        0.369      869.459
11/15/2014  23:19:00       87.457       58.430       -5.592       30.817       31.153       26.268      949.683      970.489      689.991        0.685        0.131      105.180       16.687        0.025      331.991        0.363      869.496
11/15/2014  23:20:00      101.498       84.885       -1.799       40.165       39.695       30.362     1613.201     1575.698      921.856        1.081        0.206      132.315       16.713        0.016      331.943        0.284      869.523
11/15/2014  23:21:00      109.745       50.567       13.608       45.899       40.480       28.650     2106.763     1638.649      820.802        0.968        0.228      120.834       20.729        0.029      331.916        0.240      869.533
11/15/2014  23:22:00      116.941       71.696        1.950       40.245       31.184       23.952     1619.644      972.455      573.693        1.099        0.158      137.170       12.613        0.008      331.853        0.136      869.518
11/15/2014  23:23:00       52.435       75.493       -2.683       40.196       64.766       33.073     1615.734     4194.669     1093.835        0.768        0.345       91.917       35.528        0.149      331.837        0.111      869.499
11/15/2014  23:24:00       63.352       86.871       -1.682       48.067       47.575       44.019     2310.430     2263.390     1937.704        0.904        0.326      107.518       33.899        0.099      331.856        0.143      869.476
11/15/2014  23:25:00       35.905       65.867       -8.124       44.489       34.711       30.378     1979.234     1204.853      922.816        0.490        0.205       75.018       24.380        0.106      331.838        0.111      869.453
11/15/2014  23:26:00       62.793       64.194        4.921       46.742       35.798       28.971     2184.854     1281.483      839.294        0.620        0.215       89.799       22.749        0.064      331.835        0.107      869.424
11/15/2014  23:27:00       49.499       79.141       -3.701       40.976       58.239       32.709     1679.029     3391.768     1069.851        0.743        0.307       93.346       33.521        0.129      331.832        0.101      869.412
11/15/2014  23:28:00       26.392       83.462        1.475       36.340       48.001       35.543     1320.601     2304.054     1263.309        0.628        0.244       87.536       29.921        0.117      331.804        0.055      869.435
11/15/2014  23:29:00      127.780       81.451       26.484       56.250       33.764       37.408     3164.069     1139.975     1399.394        1.468        0.285      151.532       18.379        0.015      331.860        0.148      869.466
11/15/2014  23:30:00       52.687       61.869        3.597       32.072       30.391       26.845     1028.603      923.618      720.681        0.464        0.134       81.263       22.041        0.074      331.806        0.057      869.498
11/15/2014  23:31:00       37.782       48.922       -6.664       18.939       23.313       15.247      358.702      543.481      232.467        0.250        0.057       61.813       12.343        0.040      331.806        0.058      869.531
11/15/2014  23:32:00       57.406       67.927        6.415       47.816       41.885       28.827     2286.366     1754.331      830.995        0.641        0.244       88.935       21.759        0.060      331.831        0.100      869.582
11/15/2014  23:33:00       66.237       60.801       10.905       35.968       41.021       30.945     1293.666     1682.751      957.587        0.607        0.197       89.912       27.905        0.096      331.807        0.060      869.628
11/15/2014  23:34:00       59.438       83.422        1.471       50.377       38.555       36.291     2537.805     1486.505     1317.063        0.792        0.267      102.431       18.380        0.032      331.774        0.006      869.668
11/15/2014  23:35:00       41.179       48.198        5.781       40.224       43.135       37.058     1617.957     1860.589     1373.280        0.445        0.243       63.394       26.225        0.171      331.773        0.004      869.713
11/15/2014  23:36:00       54.631       83.357       -6.533       55.881       55.932       33.968     3122.699     3128.375     1153.818        0.869        0.370       99.664       36.165        0.132      331.744       -0.043      869.728
11/15/2014  23:37:00      103.192       96.387       -2.800       40.210       37.781       32.958     1616.868     1427.417     1086.238        1.204        0.207      141.206       27.713        0.039      331.697       -0.121      869.723
11/15/2014  23:38:00       75.699       67.540        0.809       45.859       41.378       29.581     2103.003     1712.101      875.040        0.749        0.235      101.449       20.440        0.041      331.695       -0.123      869.707
11/15/2014  23:39:00       85.380       80.705        2.299       57.057       41.840       40.792     3255.511     1750.619     1663.965        1.024        0.334      117.486       31.460        0.072      331.723       -0.078      869.697
11/15/2014  23:40:00       64.773       98.832       -8.799       42.490       51.002       39.466     1805.375     2601.235     1557.572        1.000        0.298      118.167       33.273        0.079      331.705       -0.106      869.697
11/15/2014  23:41:00       54.073      121.015      -14.453       31.697       56.891       38.034     1004.711     3236.599     1446.598        1.173        0.284      132.546       28.683        0.047      331.637       -0.219      869.694
11/15/2014  23:42:00       54.104       98.738       -1.930       54.522       53.324       40.866     2972.598     2843.479     1670.047        1.008        0.374      112.589       33.780        0.090      331.641       -0.212      869.693
11/15/2014  23:43:00       58.461      123.052      -15.888       50.201       65.326       43.027     2520.148     4267.473     1851.335        1.372        0.432      136.234       41.598        0.093      331.651       -0.197      869.703
11/15/2014  23:44:00       45.736       71.084       -4.392       39.411       47.050       39.809     1553.243     2213.722     1584.724        0.626        0.268       84.527       31.992        0.143      331.638       -0.217      869.710
11/15/2014  23:45:00       80.149       84.775        9.549       57.801       49.573       46.758     3340.977     2457.496     2186.300        1.084        0.399      116.665       39.967        0.117      331.660       -0.182      869.689
11/15/2014  23:46:00       55.902      174.847      -17.246       56.957       92.377       43.077     3244.068     8533.482     1855.671        2.381        0.682      183.566       45.341        0.061      331.696       -0.126      869.654
11/15/2014  23:47:00       51.340       90.946        1.026       50.763       68.376       43.057     2576.887     4675.340     1853.924        1.001        0.455      104.436       43.793        0.176      331.694       -0.125      869.610
11/15/2014  23:48:00       31.801      117.070       -4.767       55.178       67.580       47.550     3044.592     4567.017     2261.049        1.230        0.494      121.312       45.682        0.142      331.682       -0.144      869.585
11/15/2014  23:49:00       32.227       99.874       -5.274       49.457       59.654       36.053     2445.995     3558.550     1299.788        0.917        0.365      104.945       25.121        0.057      331.659       -0.182      869.562
11/15/2014  23:50:00      111.636      114.446       12.583       83.706       63.484       54.486     7006.626     4030.181     2968.702        1.986        0.700      159.876       41.300        0.067      331.716       -0.093      869.558
11/15/2014  23:51:00       62.484       78.369       12.936       51.172       64.329       34.965     2618.530     4138.231     1222.568        0.909        0.399      100.230       39.433        0.155      331.725       -0.074      869.583
11/15/2014  23:52:00       24.896       98.485        0.168       49.841       73.054       39.553     2484.077     5336.893     1564.456        0.985        0.469      101.583       34.744        0.117      331.733       -0.060      869.586
11/15/2014  23:53:00       45.890       84.381       11.194       52.743       71.265       48.345     2781.849     5078.726     2337.210        0.977        0.510       96.053       43.635        0.206      331.763       -0.015      869.588
11/15/2014  23:54:00       35.445       50.113        4.718       39.963       41.935       30.424     1597.064     1758.538      925.617        0.403        0.214       61.381       25.772        0.176      331.725       -0.075      869.595
11/15/2014  23:55:00       42.303       74.468       -0.953       47.358       57.919       35.172     2242.766     3354.609     1237.041        0.708        0.342       85.645       33.162        0.150      331.689       -0.131      869.608
11/15/2014  23:56:00       33.222      113.874        2.611       36.287       48.433       35.199     1316.733     2345.781     1238.994        0.949        0.245      118.621       31.632        0.071      331.684       -0.142      869.615
11/15/2014  23:57:00       33.418      130.850      -15.367       22.765       50.528       28.714      518.265     2553.122      824.506        1.118        0.195      135.049       31.573        0.055      331.693       -0.125      869.650
11/15/2014  23:58:00       40.815       92.773      -14.340       31.964       41.125       25.379     1021.701     1691.283      644.105        0.692        0.168      101.354       24.099        0.057      331.657       -0.186      869.697
11/15/2014  23:59:00       53.609       99.067       -7.394       37.854       56.285       40.725     1432.921     3168.015     1658.519        0.950        0.313      112.642       35.878        0.101      331.627       -0.237      869.727
